[[[{"header":{"parameterUnit":"kt","parameterCategory":2,"dx":1,"dy":1,"la1":29.587661999999998,"la2":31.0,"lo1":-88.76705300000003,"lo2":-86.6583820000003,"nx":115,"ny":88,"refTime":"2022-10-24T06:00:00:Z","depth":0,"parameterNumber":1,"parameterNumberName":"U-component_of_WINDS"},"data":[-17.5802,-17.7298,-17.7298,-17.7298,-17.7298,-17.7298,-17.7298,-17.7298,-17.7298,-17.7298,-17.7298,-17.7298,-17.7298,-17.7298,-17.7298,-17.7373,-17.7855,-17.8663,-17.9554,-18.0413,-18.2279,-18.3372,-18.4038,-18.4421,-18.4378,-18.4329,-18.4361,-18.4497,-18.454,-18.4765,-18.5365,-18.6215,-18.5911,-18.617,-18.7053,-18.6787,-18.6147,-18.5292,-18.4227,-18.3251,-18.0667,-17.9361,-17.8147,-17.7772,-17.7585,-17.7424,-17.7257,-17.7298,-17.7298,-17.7298,-17.7298,-17.7298,-17.7298,-17.7298,-17.7298,-17.7298,-17.7298,-17.7298,-17.7298,-17.7298,-17.7298,-17.7298,-17.7148,-17.655,-17.5129,-17.3559,-17.2309,-17.05,-16.868,-16.7348,-16.5462,-16.4072,-16.2811,-16.1602,-16.0736,-16.0259,-15.9821,-15.99,-16.0471,-16.1898,-16.3396,-16.4895,-16.6322,-16.7749,-16.9033,-16.9176,-16.9176,-16.9176,-16.9176,-16.9176,-16.9176,-16.9176,-16.9176,-16.9176,-16.9176,-16.9176,-16.9176,-16.9176,-16.9176,-16.9176,-16.9176,-16.9176,-16.9176,-16.9176,-16.9176,-16.9176,-16.9176,-16.9176,-16.9176,-16.9176,-16.9176,-16.8319,-16.5822,-16.3967,-16.2754,-17.5728,-17.7148,-17.7298,-17.7298,-17.7298,-17.7298,-17.7298,-17.7298,-17.7298,-17.7298,-17.7298,-17.7298,-17.7298,-17.7298,-17.7298,-17.7298,-17.7515,-17.8056,-17.906,-17.9991,-18.1029,-18.1971,-18.2652,-18.2931,-18.2761,-18.2727,-18.2766,-18.2751,-18.2693,-18.3418,-18.3916,-18.4207,-18.4106,-18.3867,-18.3811,-18.377,-18.3777,-18.3205,-18.2586,-18.1383,-18.0283,-17.9128,-17.8281,-17.7833,-17.7605,-17.7521,-17.7324,-17.7298,-17.7298,-17.7298,-17.7298,-17.7298,-17.7298,-17.7298,-17.7298,-17.7298,-17.7298,-17.7298,-17.7298,-17.7298,-17.7298,-17.7298,-17.7298,-17.6625,-17.5354,-17.4239,-17.343,-17.1693,-16.9684,-16.7908,-16.5684,-16.3999,-16.2811,-16.1716,-16.1035,-16.0443,-16.0072,-15.9757,-16.0827,-16.204,-16.3539,-16.5109,-16.6536,-16.8105,-16.889,-16.9104,-16.9176,-16.9176,-16.9176,-16.9176,-16.9176,-16.9176,-16.9176,-16.9176,-16.9176,-16.9176,-16.9176,-16.9176,-16.9176,-16.9176,-16.9176,-16.9176,-16.9176,-16.9176,-16.9176,-16.9176,-16.9176,-16.9176,-16.9176,-16.9176,-16.889,-16.8248,-16.5893,-16.4038,-16.2683,-17.4905,-17.7148,-17.7298,-17.7298,-17.7298,-17.7298,-17.7298,-17.7298,-17.7298,-17.7298,-17.7298,-17.7298,-17.7298,-17.7298,-17.7298,-17.7298,-17.7257,-17.7489,-17.8328,-17.9005,-17.9671,-18.0714,-18.0932,-18.0989,-18.1047,-18.1053,-18.1095,-18.1154,-18.0923,-18.1768,-18.234,-18.251,-18.223,-18.2301,-18.3187,-18.2891,-18.2576,-18.1627,-18.1233,-18.0283,-17.9156,-17.8677,-17.8113,-17.7833,-17.7605,-17.7521,-17.7358,-17.7298,-17.7298,-17.7298,-17.7298,-17.7298,-17.7298,-17.7298,-17.7298,-17.7298,-17.7298,-17.7298,-17.7298,-17.7298,-17.7298,-17.7298,-17.7298,-17.7298,-17.5952,-17.5768,-17.4958,-17.2961,-17.0949,-16.8723,-16.6568,-16.4146,-16.2811,-16.1829,-16.1094,-16.0505,-16.0009,-16.0043,-16.1042,-16.2326,-16.3753,-16.5394,-16.7392,-16.889,-16.8962,-16.9176,-16.9176,-16.9176,-16.9176,-16.9176,-16.9176,-16.9176,-16.9176,-16.9176,-16.9176,-16.9176,-16.9176,-16.9176,-16.9176,-16.9176,-16.9176,-16.9176,-16.9176,-16.9176,-16.9176,-16.9176,-16.9176,-16.9176,-16.9176,-16.9104,-16.8676,-16.8034,-16.625,-16.4252,-16.254,-17.4307,-17.7223,-17.7298,-17.7298,-17.7298,-17.7298,-17.7298,-17.7298,-17.7298,-17.7298,-17.7298,-17.7298,-17.7298,-17.7298,-17.7298,-17.7298,-17.7291,-17.7553,-17.7817,-17.8287,-17.8808,-17.9601,-17.9581,-18.0044,-18.0025,-17.9933,-17.9956,-18.0093,-18.0082,-17.9849,-17.997,-18.0526,-18.025,-18.0331,-18.1239,-18.109,-18.0745,-18.0049,-17.9729,-17.9334,-17.8554,-17.8301,-17.8038,-17.7833,-17.7573,-17.7489,-17.7324,-17.7298,-17.7298,-17.7298,-17.7298,-17.7298,-17.7298,-17.7298,-17.7298,-17.7298,-17.7298,-17.7298,-17.7298,-17.7298,-17.7298,-17.7298,-17.7298,-17.7298,-17.7298,-17.7298,-17.6303,-17.4228,-17.2062,-16.9785,-16.7527,-16.4952,-16.2863,-16.1941,-16.1035,-16.0505,-15.9821,-16.0471,-16.1327,-16.2611,-16.4038,-16.5965,-16.8177,-16.9104,-16.9176,-16.9176,-16.9176,-16.9176,-16.9176,-16.9176,-16.9176,-16.9176,-16.9176,-16.9176,-16.9176,-16.9176,-16.9176,-16.9176,-16.9176,-16.9176,-16.9176,-16.9176,-16.9176,-16.9176,-16.9176,-16.9176,-16.9176,-16.9176,-16.9104,-16.9033,-16.8534,-16.7178,-16.5537,-16.3896,-16.2112,-17.4382,-17.7298,-17.7298,-17.7298,-17.7298,-17.7298,-17.7298,-17.7298,-17.7298,-17.7298,-17.7298,-17.7298,-17.7298,-17.7298,-17.7298,-17.7298,-17.7324,-17.7585,-17.7847,-17.8158,-17.8605,-17.9033,-17.9367,-17.9683,-17.9879,-17.9936,-17.9957,-17.9939,-17.9772,-17.9509,-17.9147,-17.864,-17.8459,-17.8685,-17.9123,-17.9003,-17.8958,-17.8685,-17.8696,-17.8649,-17.8273,-17.8038,-17.7922,-17.7742,-17.7585,-17.7424,-17.7257,-17.7298,-17.7298,-17.7298,-17.7298,-17.7298,-17.7298,-17.7298,-17.7298,-17.7298,-17.7298,-17.7298,-17.7298,-17.7298,-17.7298,-17.7298,-17.7298,-17.7298,-17.7298,-17.7298,-17.6567,-17.475,-17.2398,-17.009,-16.7822,-16.5318,-16.3155,-16.1829,-16.1094,-16.0505,-15.9947,-16.0043,-16.097,-16.2255,-16.3753,-16.5751,-16.7891,-16.9176,-16.9176,-16.9176,-16.9176,-16.9176,-16.9176,-16.9176,-16.9176,-16.9176,-16.9176,-16.9176,-16.9176,-16.9176,-16.9176,-16.9176,-16.9176,-16.9176,-16.9176,-16.9176,-16.9176,-16.9176,-16.9176,-16.9176,-16.9176,-16.9176,-16.9104,-16.889,-16.8034,-16.6464,-16.4823,-16.3182,-16.1612,-17.5204,-17.7148,-17.7298,-17.7298,-17.7298,-17.7298,-17.7298,-17.7298,-17.7298,-17.7298,-17.7298,-17.7298,-17.7298,-17.7298,-17.7298,-17.7298,-17.7332,-17.751,-17.7847,-17.8136,-17.8605,-17.9033,-17.9367,-17.9683,-17.9879,-17.9936,-17.9957,-17.9936,-17.9778,-17.9407,-17.8901,-17.8465,-17.8055,-17.7905,-17.7833,-17.7772,-17.7758,-17.7892,-17.7951,-17.7922,-17.7892,-17.7788,-17.7742,-17.7617,-17.7553,-17.7391,-17.7332,-17.7298,-17.7298,-17.7298,-17.7298,-17.7298,-17.7298,-17.7298,-17.7298,-17.7298,-17.7298,-17.7298,-17.7298,-17.7298,-17.7298,-17.7298,-17.7298,-17.7298,-17.7298,-17.7189,-17.6382,-17.5123,-17.2696,-17.028,-16.7969,-16.5684,-16.3664,-16.1659,-16.1022,-16.0505,-16.0134,-15.9821,-16.0613,-16.1826,-16.3468,-16.5394,-16.7035,-16.8391,-16.9176,-16.9176,-16.9176,-16.9176,-16.9176,-16.9176,-16.9176,-16.9176,-16.9176,-16.9176,-16.9176,-16.9176,-16.9176,-16.9176,-16.9176,-16.9176,-16.9176,-16.9176,-16.9176,-16.9176,-16.9176,-16.9176,-16.9176,-16.9176,-16.9104,-16.8605,-16.7891,-16.6322,-16.4681,-16.2754,-16.1042,-17.5728,-17.7223,-17.7298,-17.7298,-17.7298,-17.7298,-17.7298,-17.7298,-17.7298,-17.7298,-17.7298,-17.7298,-17.7298,-17.7298,-17.7298,-17.7298,-17.7358,-17.7585,-17.7847,-17.8163,-17.8605,-17.9033,-17.9381,-17.9683,-17.9873,-17.9939,-17.9957,-17.9926,-17.9772,-17.9458,-17.8996,-17.8417,-17.7944,-17.7758,-17.7636,-17.7605,-17.7648,-17.768,-17.7742,-17.7697,-17.7697,-17.7636,-17.7542,-17.7521,-17.7424,-17.7433,-17.7332,-17.7298,-17.7298,-17.7298,-17.7298,-17.7298,-17.7298,-17.7298,-17.7298,-17.7298,-17.7298,-17.7298,-17.7298,-17.7298,-17.7298,-17.7298,-17.7298,-17.7298,-17.7298,-17.7155,-17.6751,-17.4899,-17.2696,-17.0313,-16.7896,-16.5465,-16.3175,-16.1829,-16.1094,-16.0505,-16.0009,-15.9757,-15.9829,-16.1042,-16.2326,-16.4324,-16.675,-16.8105,-16.9176,-16.9176,-16.9176,-16.9176,-16.9176,-16.9176,-16.9176,-16.9176,-16.9176,-16.9176,-16.9176,-16.9176,-16.9176,-16.9176,-16.9176,-16.9176,-16.9176,-16.9176,-16.9176,-16.9176,-16.9176,-16.9176,-16.9176,-16.9176,-16.9176,-16.8605,-16.7463,-16.6036,-16.4395,-16.1898,-15.9971,-17.5728,-17.7148,-17.7298,-17.7298,-17.7298,-17.7298,-17.7298,-17.7298,-17.7298,-17.7298,-17.7298,-17.7298,-17.7298,-17.7298,-17.7298,-17.7298,-17.7399,-17.7542,-17.7876,-17.8189,-17.9049,-17.9144,-17.947,-17.9853,-18.0118,-18.0096,-17.9954,-17.9905,-17.9757,-17.9496,-17.892,-17.8217,-17.783,-17.7605,-17.7553,-17.7489,-17.7489,-17.7521,-17.7585,-17.7617,-17.7617,-17.7553,-17.7489,-17.7424,-17.7358,-17.7332,-17.7298,-17.7298,-17.7298,-17.7298,-17.7298,-17.7298,-17.7298,-17.7298,-17.7298,-17.7298,-17.7298,-17.7298,-17.7298,-17.7298,-17.7298,-17.7298,-17.7298,-17.7298,-17.7189,-17.693,-17.6083,-17.4415,-17.2058,-16.9849,-16.7732,-16.5146,-16.2705,-16.1829,-16.1035,-16.0433,-15.9947,-15.9757,-15.9757,-16.0399,-16.1684,-16.3753,-16.625,-16.7963,-16.9176,-16.9176,-16.9176,-16.9176,-16.9176,-16.9176,-16.9176,-16.9176,-16.9176,-16.9176,-16.9176,-16.9176,-16.9176,-16.9176,-16.9176,-16.9176,-16.9176,-16.9176,-16.9176,-16.9176,-16.9176,-16.9176,-16.9176,-16.9176,-16.9176,-16.7891,-16.6678,-16.5394,-16.4609,-16.1969,-15.9757,-17.6774,-17.7298,-17.7298,-17.7298,-17.7298,-17.7298,-17.7298,-17.7298,-17.7298,-17.7298,-17.7298,-17.7298,-17.7298,-17.7298,-17.7298,-17.7332,-17.7424,-17.7667,-17.7991,-17.8518,-17.9898,-18.0188,-18.0315,-18.0736,-18.0821,-18.0107,-17.9942,-17.9797,-17.9692,-17.9443,-17.8939,-17.8267,-17.7742,-17.751,-17.7391,-17.7324,-17.7324,-17.7358,-17.7391,-17.7424,-17.7424,-17.7391,-17.7399,-17.7291,-17.7407,-17.7298,-17.7298,-17.7298,-17.7298,-17.7298,-17.7298,-17.7298,-17.7298,-17.7298,-17.7298,-17.7298,-17.7298,-17.7298,-17.7298,-17.7298,-17.7298,-17.7298,-17.7298,-17.7298,-17.7114,-17.6298,-17.5081,-17.3334,-17.0746,-16.8736,-16.68,-16.4402,-16.2473,-16.1487,-16.0796,-16.032,-15.9884,-15.9757,-15.9757,-16.0185,-16.1398,-16.3824,-16.6179,-16.7606,-16.9104,-16.9176,-16.9176,-16.9176,-16.9176,-16.9176,-16.9176,-16.9176,-16.9176,-16.9176,-16.9176,-16.9176,-16.9176,-16.9176,-16.9176,-16.9176,-16.9176,-16.9176,-16.9176,-16.9176,-16.9176,-16.9176,-16.9176,-16.9176,-16.9176,-16.8177,-16.6322,-16.518,-16.4538,-16.2397,-15.9971,-17.7298,-17.7298,-17.7298,-17.7298,-17.7298,-17.7298,-17.7298,-17.7298,-17.7298,-17.7298,-17.7298,-17.7298,-17.7298,-17.7298,-17.7298,-17.7399,-17.7521,-17.7758,-17.8759,-17.9393,-18.0829,-18.1204,-18.1596,-18.1972,-18.1752,-18.0944,-18.0006,-17.9772,-17.971,-17.9387,-17.892,-17.8465,-17.7888,-17.7479,-17.7291,-17.7298,-17.7298,-17.7298,-17.7298,-17.7298,-17.7298,-17.7298,-17.7298,-17.7298,-17.7971,-17.7896,-17.7373,-17.812,-17.7896,-17.7373,-17.7298,-17.7298,-17.7298,-17.7298,-17.7298,-17.7298,-17.7298,-17.7298,-17.7298,-17.7298,-17.7298,-17.7298,-17.7264,-17.7264,-17.697,-17.5521,-17.4115,-17.2586,-16.9917,-16.7675,-16.5927,-16.3583,-16.227,-16.127,-16.0615,-16.0063,-15.9884,-15.9821,-15.9971,-16.0399,-16.1184,-16.3468,-16.5608,-16.7178,-16.8676,-16.9176,-16.9176,-16.9176,-16.9176,-16.9176,-16.9176,-16.9176,-16.9176,-16.9176,-16.9176,-16.9176,-16.9176,-16.9176,-16.9176,-16.9176,-16.9176,-16.9176,-16.9176,-16.9176,-16.9176,-16.9176,-16.9176,-16.9176,-16.9176,-16.8319,-16.6108,-16.4609,-16.4038,-16.2397,-16.0257,-17.7298,-17.7298,-17.7298,-17.7298,-17.7298,-17.7298,-17.7298,-17.7298,-17.7298,-17.7298,-17.7298,-17.7298,-17.7298,-17.7298,-17.7257,-17.7391,-17.7542,-17.7847,-17.8942,-18.0611,-18.1885,-18.3065,-18.3447,-18.3434,-18.3206,-18.2311,-18.1141,-18.0213,-17.9917,-17.9463,-17.8881,-17.8417,-17.802,-17.7605,-17.7257,-17.7298,-17.7298,-17.7298,-17.7298,-17.7447,-17.7597,-17.7747,-17.7971,-17.8345,-17.9242,-17.9242,-17.8868,-17.9317,-17.9018,-17.812,-17.7821,-17.7522,-17.7373,-17.7298,-17.7298,-17.7298,-17.7298,-17.7298,-17.7298,-17.7298,-17.7298,-17.7298,-17.7298,-17.7155,-17.6716,-17.5155,-17.3446,-17.1603,-16.8845,-16.6495,-16.4731,-16.302,-16.2069,-16.1153,-16.0494,-16.0,-15.9884,-15.9757,-16.0185,-16.0685,-16.1612,-16.2968,-16.5037,-16.6892,-16.8462,-16.9176,-16.9176,-16.9176,-16.9176,-16.9176,-16.9176,-16.9176,-16.9176,-16.9176,-16.9176,-16.9176,-16.9176,-16.9176,-16.9176,-16.9176,-16.9176,-16.9176,-16.9176,-16.9176,-16.9176,-16.9176,-16.9176,-16.9176,-16.9176,-16.889,-16.6393,-16.4752,-16.361,-16.2397,-16.0685,-17.7298,-17.7298,-17.7298,-17.7298,-17.7298,-17.7298,-17.7298,-17.7298,-17.7298,-17.7298,-17.7298,-17.7298,-17.7298,-17.7257,-17.7324,-17.7553,-17.7788,-17.8233,-17.969,-18.1301,-18.2855,-18.4108,-18.4856,-18.5157,-18.4965,-18.3892,-18.2547,-18.1303,-18.1037,-17.9633,-17.9092,-17.8568,-17.7905,-17.7798,-17.7515,-17.7298,-17.7298,-17.7298,-17.7373,-17.7672,-17.8943,-17.9093,-17.9317,-18.0513,-18.1037,-18.0887,-18.0738,-18.0812,-18.0588,-17.9616,-17.8793,-17.8345,-17.7747,-17.7298,-17.7298,-17.7298,-17.7298,-17.7298,-17.7298,-17.7298,-17.7298,-17.7298,-17.7298,-17.7085,-17.6161,-17.4079,-17.2214,-17.0387,-16.7321,-16.4632,-16.3291,-16.2273,-16.1314,-16.0856,-16.0187,-15.9875,-15.9821,-15.9757,-16.0257,-16.1113,-16.2754,-16.4252,-16.6108,-16.7606,-16.8748,-16.9176,-16.9176,-16.9176,-16.9176,-16.9176,-16.9176,-16.9176,-16.9176,-16.9176,-16.9176,-16.9176,-16.9176,-16.9176,-16.9176,-16.9176,-16.9176,-16.9176,-16.9176,-16.9176,-16.9176,-16.9176,-16.9176,-16.9176,-16.9176,-16.9176,-16.8034,-16.6607,-16.5109,-16.2183,-16.0613,-17.7298,-17.7298,-17.7298,-17.7298,-17.7298,-17.7298,-17.7298,-17.7298,-17.7298,-17.7298,-17.7298,-17.7298,-17.7298,-17.7332,-17.7424,-17.7605,-17.7934,-17.8267,-17.9869,-18.171,-18.3689,-18.5029,-18.5962,-18.662,-18.6867,-18.5703,-18.4129,-18.303,-18.2094,-18.0714,-17.9864,-17.9942,-18.0099,-17.9459,-17.9195,-17.9466,-17.9392,-17.9317,-17.9392,-17.9541,-18.0588,-18.0812,-18.1186,-18.2233,-18.2532,-18.2831,-18.2383,-18.2757,-18.2084,-18.1037,-18.0065,-17.9317,-17.8569,-17.7672,-17.7373,-17.7298,-17.7298,-17.7298,-17.7298,-17.7298,-17.7298,-17.7264,-17.7155,-17.6716,-17.5456,-17.311,-17.1117,-16.8897,-16.6223,-16.4072,-16.2724,-16.1731,-16.0916,-16.031,-16.0,-15.9884,-15.9757,-15.9757,-16.0257,-16.1612,-16.3396,-16.5251,-16.675,-16.8177,-16.8748,-16.9176,-16.9176,-16.9176,-16.9176,-16.9176,-16.9176,-16.9176,-16.9176,-16.9176,-16.9176,-16.9176,-16.9176,-16.9176,-16.9176,-16.9176,-16.9176,-16.9176,-16.9176,-16.9176,-16.9176,-16.9176,-16.9176,-16.9176,-16.9176,-16.9176,-16.8676,-16.7749,-16.5037,-16.1969,-16.0685,-17.7298,-17.7298,-17.7298,-17.7298,-17.7298,-17.7298,-17.7298,-17.7298,-17.7298,-17.7298,-17.7298,-17.7298,-17.7298,-17.7366,-17.7489,-17.7697,-17.7916,-17.8343,-17.9877,-18.1777,-18.3638,-18.5281,-18.6656,-18.7233,-18.7398,-18.7218,-18.5799,-18.4082,-18.27,-18.2435,-18.2503,-18.2923,-18.1946,-18.2156,-18.1888,-18.1261,-18.1336,-18.1336,-18.1336,-18.171,-18.2158,-18.2308,-18.2532,-18.2981,-18.3878,-18.4177,-18.2757,-18.4028,-18.4028,-18.2383,-18.1112,-17.999,-17.9242,-17.8046,-17.7298,-17.7298,-17.7298,-17.7298,-17.7298,-17.7298,-17.7298,-17.7155,-17.701,-17.6421,-17.5235,-17.2696,-17.0461,-16.8694,-16.6588,-16.4351,-16.289,-16.1819,-16.1023,-16.0402,-15.9875,-15.9757,-15.9757,-15.9829,-16.097,-16.2183,-16.3824,-16.5679,-16.7249,-16.8391,-16.9033,-16.9176,-16.9176,-16.9176,-16.9176,-16.9176,-16.9176,-16.9176,-16.9176,-16.9176,-16.9176,-16.9176,-16.9176,-16.9176,-16.9176,-16.9176,-16.9176,-16.9176,-16.9176,-16.9176,-16.9176,-16.9176,-16.9176,-16.9176,-16.9176,-16.9176,-16.8534,-16.7392,-16.5109,-16.3039,-16.1684,-17.7298,-17.7298,-17.7298,-17.7298,-17.7298,-17.7298,-17.7298,-17.7298,-17.7298,-17.7298,-17.7298,-17.7298,-17.7366,-17.7457,-17.7667,-17.7916,-17.8318,-17.88,-18.0273,-18.1542,-18.2963,-18.4585,-18.6227,-18.7469,-18.7928,-18.9192,-18.7089,-18.6054,-18.5427,-18.5081,-18.4186,-18.3121,-18.3372,-18.283,-18.2337,-18.2458,-18.2607,-18.2607,-18.2532,-18.3056,-18.3804,-18.4028,-18.4701,-18.5598,-18.6271,-18.6346,-18.6047,-18.6346,-18.5673,-18.4103,-18.2458,-18.1112,-18.0065,-17.8644,-17.7597,-17.7522,-17.7298,-17.7298,-17.7298,-17.7298,-17.7298,-17.7264,-17.7045,-17.672,-17.5531,-17.3708,-17.1663,-17.0057,-16.7603,-16.5433,-16.3769,-16.257,-16.1518,-16.0572,-15.9892,-15.9821,-15.99,-16.0827,-16.1969,-16.3396,-16.4966,-16.6607,-16.7677,-16.8676,-16.9104,-16.9104,-16.9176,-16.9176,-16.9176,-16.9176,-16.9176,-16.9176,-16.9176,-16.9176,-16.9176,-16.9176,-16.9176,-16.9176,-16.9176,-16.9176,-16.9176,-16.9176,-16.9176,-16.9176,-16.9176,-16.9176,-16.9176,-16.9176,-16.9176,-16.8962,-16.8605,-16.7178,-16.5751,-16.4609,-16.3039,-17.6625,-17.7298,-17.7298,-17.7298,-17.7298,-17.7298,-17.7298,-17.7298,-17.7298,-17.7298,-17.7298,-17.7298,-17.7324,-17.7553,-17.7847,-17.8136,-17.8512,-17.8996,-17.9948,-18.0881,-18.2034,-18.3406,-18.518,-18.6106,-18.7318,-18.7977,-18.7766,-18.7041,-18.6866,-18.6442,-18.6298,-18.5255,-18.5023,-18.4446,-18.4736,-18.4402,-18.4252,-18.4252,-18.4327,-18.485,-18.5523,-18.5823,-18.6196,-18.7094,-18.7094,-18.7094,-18.7019,-18.7169,-18.6645,-18.5823,-18.4177,-18.2757,-18.1635,-17.9766,-17.8345,-17.827,-17.7747,-17.7298,-17.7298,-17.7298,-17.7298,-17.7298,-17.7264,-17.7054,-17.6163,-17.4177,-17.2117,-17.0428,-16.8321,-16.6528,-16.4788,-16.3343,-16.2057,-16.1026,-16.0257,-16.0328,-16.0899,-16.1898,-16.3111,-16.4681,-16.625,-16.7321,-16.8391,-16.8962,-16.9104,-16.9176,-16.9176,-16.9176,-16.9176,-16.9176,-16.9176,-16.9176,-16.9176,-16.9176,-16.9176,-16.9176,-16.9176,-16.9176,-16.9176,-16.9176,-16.9176,-16.9176,-16.9176,-16.9176,-16.9176,-16.9176,-16.9176,-16.9104,-16.9104,-16.8819,-16.8605,-16.6892,-16.518,-16.4181,-16.2553,-17.5802,-17.7298,-17.7298,-17.7298,-17.7298,-17.7298,-17.7298,-17.7298,-17.7298,-17.7298,-17.7298,-17.7332,-17.7358,-17.7617,-17.8009,-17.8317,-17.8649,-17.9127,-17.9519,-18.0119,-18.1233,-18.2204,-18.2911,-18.4209,-18.5572,-18.6762,-18.6862,-18.6803,-18.6277,-18.5987,-18.6226,-18.6581,-18.6193,-18.6918,-18.5858,-18.6196,-18.7169,-18.7094,-18.7019,-18.7019,-18.7019,-18.7019,-18.7019,-18.7169,-18.7169,-18.7169,-18.7169,-18.7169,-18.7169,-18.6795,-18.5449,-18.4701,-18.4138,-18.156,-18.0214,-17.9507,-17.846,-17.7264,-17.7229,-17.7264,-17.7298,-17.7298,-17.7298,-17.7089,-17.6314,-17.4483,-17.2458,-16.967,-16.8505,-16.7312,-16.6049,-16.4295,-16.3138,-16.224,-16.1612,-16.1684,-16.2183,-16.3396,-16.4466,-16.5893,-16.7106,-16.8177,-16.889,-16.9033,-16.9176,-16.9176,-16.9176,-16.9176,-16.9176,-16.9176,-16.9176,-16.9176,-16.9176,-16.9176,-16.9176,-16.9176,-16.9176,-16.9176,-16.9176,-16.9176,-16.9176,-16.9176,-16.9176,-16.9176,-16.9176,-16.9176,-16.9176,-16.9104,-16.9033,-16.8538,-16.7758,-16.626,-16.4615,-16.3123,-16.1639,-17.5802,-17.7298,-17.7298,-17.7298,-17.7298,-17.7298,-17.7298,-17.7298,-17.7298,-17.7298,-17.7298,-17.7391,-17.7521,-17.7667,-17.8123,-17.8616,-17.909,-17.9357,-17.9592,-17.9902,-18.0432,-18.1303,-18.2152,-18.307,-18.3826,-18.5161,-18.5186,-18.5105,-18.4745,-18.4312,-18.4092,-18.4482,-18.5134,-18.5284,-18.5594,-18.6346,-18.7094,-18.7169,-18.7169,-18.7169,-18.7169,-18.7169,-18.7169,-18.7169,-18.7169,-18.7169,-18.7169,-18.7169,-18.7169,-18.672,-18.5823,-18.4701,-18.4177,-18.156,-18.0298,-18.0603,-17.8475,-17.7278,-17.7015,-17.712,-17.7264,-17.7298,-17.7298,-17.7089,-17.6464,-17.5579,-17.428,-17.2513,-17.0916,-16.9356,-16.7603,-16.6343,-16.5239,-16.4324,-16.3682,-16.361,-16.411,-16.4823,-16.5822,-16.6821,-16.7963,-16.8676,-16.8962,-16.9176,-16.9176,-16.9176,-16.9176,-16.9176,-16.9176,-16.9176,-16.9176,-16.9176,-16.9176,-16.9176,-16.9176,-16.9176,-16.9176,-16.9176,-16.9176,-16.9176,-16.9176,-16.9176,-16.9176,-16.9176,-16.9176,-16.9176,-16.9176,-16.9104,-16.8534,-16.7825,-16.6911,-16.549,-16.3431,-16.1728,-16.0732,-17.4606,-17.6101,-17.6999,-17.7298,-17.7298,-17.7298,-17.7298,-17.7298,-17.7366,-17.7358,-17.7424,-17.7617,-17.7788,-17.7944,-17.8238,-17.8671,-17.9188,-17.9546,-17.9634,-17.9809,-17.993,-18.0556,-18.117,-18.1247,-18.23,-18.3022,-18.2793,-18.2374,-18.2903,-18.2466,-18.2659,-18.2846,-18.3377,-18.3637,-18.3839,-18.5075,-18.5748,-18.6196,-18.672,-18.7169,-18.7169,-18.7169,-18.7169,-18.7169,-18.7169,-18.7169,-18.7169,-18.7169,-18.7169,-18.6908,-18.6274,-18.5864,-18.4819,-18.2953,-18.0939,-18.0826,-17.8589,-17.6835,-17.6869,-17.7015,-17.712,-17.7189,-17.7298,-17.705,-17.6688,-17.6152,-17.5211,-17.3706,-17.2272,-17.0472,-16.8996,-16.7566,-16.653,-16.5608,-16.4823,-16.4823,-16.5465,-16.625,-16.7035,-16.7891,-16.8534,-16.889,-16.9176,-16.9176,-16.9176,-16.9176,-16.9176,-16.9176,-16.9176,-16.9176,-16.9176,-16.9176,-16.9176,-16.9176,-16.9176,-16.9176,-16.9176,-16.9176,-16.9176,-16.9176,-16.9176,-16.9176,-16.9176,-16.9176,-16.9176,-16.9176,-16.9104,-16.889,-16.8034,-16.7249,-16.5771,-16.4151,-16.2169,-16.0682,-15.9966,-17.311,-17.4905,-17.6251,-17.6999,-17.7223,-17.7298,-17.7298,-17.7366,-17.7424,-17.7489,-17.7542,-17.7847,-17.8083,-17.8343,-17.8512,-17.8939,-17.9367,-17.9589,-17.9715,-17.9854,-17.9944,-18.0029,-18.0261,-18.0334,-18.0771,-18.1169,-18.0745,-18.0455,-18.0941,-18.0762,-18.0796,-18.1706,-18.1964,-18.1957,-18.2268,-18.328,-18.4252,-18.4402,-18.5673,-18.6421,-18.6645,-18.6869,-18.7169,-18.7169,-18.7169,-18.7169,-18.7169,-18.6944,-18.6759,-18.6722,-18.65,-18.6127,-18.4781,-18.239,-18.0932,-18.0223,-17.8102,-17.6688,-17.6835,-17.6833,-17.705,-17.7155,-17.7298,-17.705,-17.6688,-17.6152,-17.5415,-17.4224,-17.2677,-17.1005,-17.0136,-16.8431,-16.7315,-16.6964,-16.6393,-16.6036,-16.6892,-16.7392,-16.782,-16.8605,-16.889,-16.9176,-16.9176,-16.9176,-16.9176,-16.9176,-16.9176,-16.9176,-16.9176,-16.9176,-16.9176,-16.9176,-16.9176,-16.9176,-16.9176,-16.9176,-16.9176,-16.9176,-16.9176,-16.9176,-16.9176,-16.9176,-16.9176,-16.9176,-16.9176,-16.9104,-16.889,-16.8676,-16.7677,-16.6041,-16.4422,-16.2876,-16.1121,-15.9506,-15.886,-17.1989,-17.483,-17.5055,-17.6027,-17.7148,-17.7298,-17.7366,-17.7424,-17.7489,-17.7605,-17.7847,-17.8083,-17.8441,-17.8736,-17.8939,-17.9251,-17.9527,-17.9682,-17.9834,-17.9946,-17.995,-17.9955,-17.9957,-17.9952,-18.0233,-18.0075,-17.9679,-17.9327,-17.9334,-17.8844,-17.8978,-17.8778,-17.9628,-18.0133,-18.0513,-18.1635,-18.2532,-18.2757,-18.4177,-18.5,-18.515,-18.6346,-18.6795,-18.6795,-18.672,-18.6645,-18.6421,-18.5748,-18.4928,-18.4708,-18.4746,-18.3773,-18.2159,-18.0133,-17.8855,-17.8896,-17.7495,-17.661,-17.6651,-17.6835,-17.7015,-17.7264,-17.7298,-17.7089,-17.6651,-17.6152,-17.5446,-17.4417,-17.3213,-17.179,-17.0272,-16.9003,-16.8743,-16.8605,-16.8534,-16.8534,-16.8748,-16.8819,-16.8676,-16.9176,-16.9176,-16.9176,-16.9176,-16.9176,-16.9176,-16.9176,-16.9176,-16.9176,-16.9176,-16.9176,-16.9176,-16.9176,-16.9176,-16.9176,-16.9176,-16.9176,-16.9176,-16.9176,-16.9176,-16.9176,-16.9176,-16.9176,-16.9176,-16.9176,-16.9104,-16.8962,-16.8819,-16.8177,-16.6755,-16.4906,-16.3283,-16.188,-16.0207,-15.8531,-15.8451,-17.1316,-17.3559,-17.4456,-17.5728,-17.7148,-17.7298,-17.7399,-17.7489,-17.7648,-17.7847,-17.811,-17.8512,-17.882,-17.9069,-17.9296,-17.9482,-17.9718,-17.9814,-17.986,-17.9957,-17.9957,-17.9957,-17.9957,-17.9948,-17.9918,-17.9765,-17.9569,-17.9204,-17.88,-17.8343,-17.7888,-17.7817,-17.8214,-17.8494,-17.8719,-18.0065,-18.0812,-18.1186,-18.2458,-18.328,-18.3579,-18.4925,-18.5598,-18.4701,-18.4477,-18.4551,-18.4626,-18.3729,-18.3323,-18.2842,-18.1983,-18.0819,-17.9721,-17.8963,-17.8508,-17.8128,-17.7031,-17.6414,-17.6535,-17.6688,-17.6908,-17.7264,-17.712,-17.6872,-17.6499,-17.5984,-17.5182,-17.4249,-17.3128,-17.179,-17.0081,-16.9371,-16.9243,-16.9176,-16.9104,-16.9104,-16.9104,-16.9176,-16.9176,-16.9176,-16.9176,-16.9176,-16.9176,-16.9176,-16.9176,-16.9176,-16.9176,-16.9176,-16.9176,-16.9176,-16.9176,-16.9176,-16.9176,-16.9176,-16.9176,-16.9176,-16.9176,-16.9176,-16.9176,-16.9176,-16.9176,-16.9176,-16.9176,-16.9104,-16.9104,-16.8962,-16.8177,-16.7321,-16.625,-16.4193,-16.2357,-16.0885,-15.956,-15.873,-15.8514,-17.0344,-17.1989,-17.3634,-17.5204,-17.6625,-17.7182,-17.7391,-17.7585,-17.7817,-17.8131,-17.8417,-17.882,-17.9121,-17.9339,-17.9516,-17.9727,-17.9809,-17.9846,-17.9872,-17.9957,-17.9957,-17.9957,-17.9955,-17.9933,-17.989,-17.9718,-17.9445,-17.9155,-17.8758,-17.8292,-17.7934,-17.7636,-17.7574,-17.7298,-17.7522,-17.8719,-17.9242,-17.9541,-18.0812,-18.1635,-18.1934,-18.3131,-18.3579,-18.2607,-18.2348,-18.2237,-18.2052,-18.1753,-18.1272,-18.0454,-17.9255,-17.8388,-17.8038,-17.7881,-17.7724,-17.7302,-17.6569,-17.6099,-17.6226,-17.6422,-17.6688,-17.7054,-17.6908,-17.6688,-17.6266,-17.5734,-17.4865,-17.3853,-17.2695,-17.1497,-17.0217,-16.9438,-16.9176,-16.9176,-16.9176,-16.9176,-16.9176,-16.9176,-16.9176,-16.9176,-16.9176,-16.9176,-16.9176,-16.9176,-16.9176,-16.9176,-16.9176,-16.9176,-16.9176,-16.9176,-16.9176,-16.9176,-16.9176,-16.9176,-16.9176,-16.9176,-16.9176,-16.9176,-16.9176,-16.9176,-16.9176,-16.9176,-16.9176,-16.9104,-16.889,-16.8177,-16.7321,-16.6464,-16.4966,-16.3266,-16.1497,-16.0376,-15.9469,-15.8993,-15.8643,-16.8624,-17.0344,-17.1989,-17.3559,-17.5204,-17.6717,-17.7404,-17.7667,-17.7991,-17.8418,-17.88,-17.9129,-17.9372,-17.9538,-17.9727,-17.9814,-17.9944,-17.9946,-17.9954,-17.9957,-17.9957,-17.9957,-17.995,-17.9905,-17.975,-17.9559,-17.9387,-17.9072,-17.8703,-17.8136,-17.7847,-17.7605,-17.7391,-17.7298,-17.7373,-17.7522,-17.7522,-17.8046,-17.9317,-17.9955,-18.0254,-18.145,-18.1938,-18.1529,-18.1532,-18.1536,-18.0976,-18.0155,-17.8736,-17.6707,-17.6638,-17.6632,-17.6511,-17.6396,-17.6347,-17.603,-17.603,-17.586,-17.595,-17.6031,-17.6231,-17.6613,-17.6763,-17.6499,-17.595,-17.5446,-17.4726,-17.365,-17.2695,-17.1497,-17.047,-16.9635,-16.9243,-16.9176,-16.9176,-16.9176,-16.9176,-16.9176,-16.9176,-16.9176,-16.9176,-16.9176,-16.9176,-16.9176,-16.9176,-16.9176,-16.9176,-16.9176,-16.9176,-16.9176,-16.9176,-16.9176,-16.9176,-16.9176,-16.9176,-16.9176,-16.9176,-16.9176,-16.9176,-16.9176,-16.9176,-16.889,-16.8962,-16.8534,-16.7463,-16.675,-16.6036,-16.4752,-16.3182,-16.1626,-16.0849,-16.0007,-15.9244,-15.9042,-15.8911,-16.8325,-16.997,-17.0643,-17.2437,-17.4755,-17.5669,-17.6749,-17.7697,-17.8212,-17.8634,-17.9034,-17.9281,-17.9581,-17.9727,-17.9819,-17.9936,-17.995,-17.9954,-17.9957,-17.9957,-17.9957,-17.9957,-17.9857,-17.9715,-17.9598,-17.9445,-17.9263,-17.8916,-17.8516,-17.8103,-17.7788,-17.7585,-17.7358,-17.7298,-17.7264,-17.7298,-17.7298,-17.7338,-17.7718,-17.8096,-17.8245,-17.9668,-17.9894,-17.926,-17.9783,-17.9556,-17.8584,-17.7875,-17.7084,-17.6165,-17.5943,-17.5984,-17.6058,-17.6173,-17.5934,-17.552,-17.5649,-17.5691,-17.5617,-17.5702,-17.5909,-17.6112,-17.6186,-17.5827,-17.5402,-17.4773,-17.393,-17.2967,-17.1848,-17.0966,-17.0153,-16.9504,-16.9176,-16.9176,-16.9176,-16.9176,-16.9176,-16.9176,-16.9176,-16.9176,-16.9176,-16.9176,-16.9176,-16.9176,-16.9176,-16.9176,-16.9176,-16.9176,-16.9176,-16.9176,-16.9176,-16.9176,-16.9176,-16.9176,-16.9176,-16.9176,-16.9176,-16.9176,-16.9176,-16.9176,-16.8819,-16.8248,-16.8034,-16.7321,-16.6179,-16.5109,-16.4181,-16.3039,-16.1755,-16.0978,-16.0264,-15.9637,-15.9566,-15.9502,-15.9302,-16.8132,-16.9297,-16.9745,-17.154,-17.4041,-17.4986,-17.6211,-17.7784,-17.8318,-17.8833,-17.9214,-17.9534,-17.9692,-17.9791,-17.9933,-17.9952,-17.9954,-17.9957,-17.9957,-17.9957,-17.9957,-17.9952,-17.9846,-17.9674,-17.9505,-17.9372,-17.8996,-17.8649,-17.8215,-17.7934,-17.7636,-17.7489,-17.7257,-17.712,-17.7195,-17.716,-17.716,-17.7125,-17.6872,-17.6762,-17.6986,-17.7955,-17.7691,-17.6684,-17.7416,-17.7295,-17.6214,-17.595,-17.5818,-17.5389,-17.552,-17.5776,-17.5975,-17.6058,-17.5892,-17.5476,-17.5476,-17.5433,-17.5182,-17.5256,-17.5359,-17.5532,-17.5446,-17.5256,-17.4726,-17.4102,-17.3181,-17.2192,-17.121,-17.0407,-16.9837,-16.9376,-16.9176,-16.9176,-16.9176,-16.9176,-16.9176,-16.9176,-16.9176,-16.9176,-16.9176,-16.9176,-16.9176,-16.9176,-16.9176,-16.9176,-16.9176,-16.9176,-16.9176,-16.9176,-16.9176,-16.9176,-16.9176,-16.9176,-16.9176,-16.9176,-16.9176,-16.9176,-16.9033,-16.9033,-16.8534,-16.7749,-16.6964,-16.6036,-16.4823,-16.3896,-16.2754,-16.1755,-16.097,-16.0185,-15.9765,-15.9694,-15.9757,-15.963,-15.9366,-16.7511,-16.7726,-16.9222,-17.0867,-17.2653,-17.4438,-17.6107,-17.7766,-17.8492,-17.8916,-17.9247,-17.9546,-17.9727,-17.9819,-17.9942,-17.9954,-17.9957,-17.9957,-17.9957,-17.9957,-17.9954,-18.0022,-17.9918,-17.9701,-17.9457,-17.9179,-17.8715,-17.8418,-17.8151,-17.7772,-17.7489,-17.7424,-17.712,-17.6944,-17.6908,-17.6762,-17.6688,-17.6725,-17.6461,-17.6344,-17.6344,-17.6295,-17.6025,-17.6025,-17.5797,-17.5611,-17.5345,-17.5002,-17.4679,-17.4443,-17.5093,-17.5606,-17.5808,-17.5975,-17.585,-17.5389,-17.5047,-17.4865,-17.4585,-17.4395,-17.4346,-17.4585,-17.4585,-17.449,-17.4102,-17.3547,-17.2859,-17.1906,-17.1149,-17.0344,-16.9772,-16.9376,-16.9176,-16.9176,-16.9176,-16.9176,-16.9176,-16.9176,-16.9176,-16.9176,-16.9176,-16.9176,-16.9176,-16.9176,-16.9176,-16.9176,-16.9176,-16.9176,-16.9176,-16.9176,-16.9176,-16.9176,-16.9176,-16.9176,-16.9176,-16.9176,-16.9176,-16.9033,-16.8748,-16.8676,-16.8462,-16.7249,-16.625,-16.4752,-16.3396,-16.2611,-16.1755,-16.0899,-16.0043,-15.9757,-15.9757,-15.9757,-15.963,-15.9502,-15.9173,-16.7436,-16.7427,-16.8025,-16.9297,-17.1007,-17.2896,-17.4815,-17.6627,-17.8182,-17.9053,-17.9372,-17.9645,-17.9778,-17.9918,-17.995,-17.9957,-17.9957,-17.9957,-17.9957,-17.9957,-17.9954,-17.9939,-17.9825,-17.9692,-17.9325,-17.88,-17.8468,-17.8178,-17.7772,-17.7553,-17.7358,-17.7155,-17.7015,-17.6724,-17.6575,-17.6461,-17.6383,-17.6152,-17.5827,-17.5734,-17.5575,-17.5271,-17.5093,-17.5047,-17.4632,-17.4395,-17.4298,-17.3525,-17.3054,-17.3213,-17.4151,-17.5121,-17.5649,-17.585,-17.5606,-17.5166,-17.4679,-17.4249,-17.3853,-17.3547,-17.3517,-17.3569,-17.3547,-17.3443,-17.3128,-17.2804,-17.2136,-17.133,-17.0658,-17.0089,-16.9438,-16.9243,-16.9176,-16.9176,-16.9176,-16.9176,-16.9176,-16.9176,-16.9176,-16.9176,-16.9176,-16.9176,-16.9176,-16.9176,-16.9176,-16.9176,-16.9176,-16.9176,-16.9176,-16.9176,-16.9176,-16.9176,-16.9176,-16.9176,-16.9176,-16.9176,-16.9176,-16.8605,-16.8105,-16.782,-16.7463,-16.625,-16.5037,-16.3539,-16.2112,-16.1327,-16.1042,-16.0114,-15.9757,-15.9757,-15.9757,-15.963,-15.9431,-15.9237,-15.8354,-16.7634,-16.7448,-16.7385,-16.8325,-17.0035,-17.1397,-17.3493,-17.5853,-17.7345,-17.8597,-17.9381,-17.9701,-17.9885,-18.0009,-17.9957,-17.9957,-17.9957,-17.9957,-17.9957,-17.9957,-17.9952,-17.9933,-17.9809,-17.9692,-17.9296,-17.8736,-17.8317,-17.7922,-17.7553,-17.7358,-17.7223,-17.6869,-17.6688,-17.6425,-17.6072,-17.5909,-17.5744,-17.5532,-17.5093,-17.4819,-17.4773,-17.4346,-17.4053,-17.4003,-17.3547,-17.3074,-17.2859,-17.2136,-17.1906,-17.2362,-17.3339,-17.4443,-17.5389,-17.5649,-17.5476,-17.4985,-17.4346,-17.3803,-17.3181,-17.2804,-17.2713,-17.2602,-17.2657,-17.2529,-17.2305,-17.1964,-17.1437,-17.0782,-17.0217,-16.9766,-16.9238,-16.9176,-16.9176,-16.9176,-16.9176,-16.9176,-16.9176,-16.9176,-16.9176,-16.9176,-16.9176,-16.9176,-16.9176,-16.9176,-16.9176,-16.9176,-16.9176,-16.9176,-16.9176,-16.9176,-16.9176,-16.9176,-16.9176,-16.9176,-16.9176,-16.9176,-16.8248,-16.7106,-16.6536,-16.6108,-16.5679,-16.4823,-16.3682,-16.2326,-16.097,-16.0185,-15.9971,-15.9757,-15.9757,-15.9757,-15.9487,-15.9295,-15.9166,-15.8354,-15.7255,-16.7825,-16.7529,-16.7416,-16.8282,-16.9661,-17.0303,-17.247,-17.5153,-17.616,-17.7481,-17.9015,-17.955,-17.9662,-17.9933,-17.9954,-17.9957,-17.9957,-17.9957,-17.9957,-17.9957,-18.002,-17.9918,-17.9803,-17.9635,-17.9372,-17.9053,-17.8292,-17.7758,-17.7457,-17.708,-17.6944,-17.6835,-17.6235,-17.5794,-17.5543,-17.5182,-17.4819,-17.449,-17.4053,-17.3803,-17.3701,-17.3234,-17.2986,-17.2932,-17.2305,-17.1615,-17.0843,-17.0955,-17.1378,-17.1964,-17.2913,-17.4003,-17.5093,-17.5563,-17.5476,-17.4865,-17.4201,-17.3318,-17.2512,-17.2136,-17.1921,-17.1673,-17.1921,-17.1906,-17.1732,-17.1378,-17.0894,-17.0533,-17.0025,-16.9575,-16.9243,-16.9176,-16.9176,-16.9176,-16.9176,-16.9176,-16.9176,-16.9176,-16.9176,-16.9176,-16.9176,-16.9176,-16.9176,-16.9176,-16.9176,-16.9176,-16.9176,-16.9176,-16.9176,-16.9176,-16.9176,-16.9176,-16.9176,-16.889,-16.8962,-16.889,-16.7106,-16.5537,-16.4966,-16.4466,-16.411,-16.3182,-16.1969,-16.1541,-16.0257,-15.99,-15.9757,-15.9757,-15.9757,-15.9559,-15.9082,-15.8817,-15.7786,-15.6548,-15.5726,-16.7097,-16.7484,-16.7542,-16.7841,-16.8471,-17.0011,-17.1465,-17.2667,-17.4234,-17.6025,-17.7639,-17.7997,-17.8838,-17.9857,-17.9954,-17.9957,-17.9957,-17.9957,-17.9957,-17.9953,-17.993,-17.9797,-17.9692,-17.947,-17.9144,-17.8671,-17.811,-17.7667,-17.7324,-17.6975,-17.6799,-17.6463,-17.5917,-17.5328,-17.4726,-17.4346,-17.3903,-17.3443,-17.2913,-17.2585,-17.2529,-17.2021,-17.1673,-17.1556,-17.0833,-17.028,-17.0096,-17.0208,-17.071,-17.1437,-17.2546,-17.3672,-17.4679,-17.5256,-17.5256,-17.4632,-17.3752,-17.2804,-17.1964,-17.1378,-17.1028,-17.0648,-17.071,-17.071,-17.071,-17.0523,-17.0272,-17.0025,-16.9772,-16.9504,-16.9243,-16.9176,-16.9176,-16.9176,-16.9176,-16.9176,-16.9176,-16.9176,-16.9176,-16.9176,-16.9176,-16.9176,-16.9176,-16.9176,-16.9176,-16.9176,-16.9176,-16.9176,-16.9176,-16.9176,-16.9176,-16.9176,-16.9033,-16.8462,-16.7535,-16.6607,-16.4966,-16.4252,-16.3682,-16.3111,-16.254,-16.1398,-16.0542,-16.0399,-16.0114,-15.99,-15.9757,-15.9757,-15.9559,-15.9295,-15.8468,-15.7224,-15.6057,-15.4742,-15.3142,-16.5445,-16.7028,-16.7454,-16.7724,-16.7917,-16.9329,-17.0411,-17.1235,-17.274,-17.4403,-17.605,-17.6357,-17.7409,-17.9104,-17.912,-17.9046,-17.9198,-17.9805,-17.9956,-17.9948,-17.9843,-17.9772,-17.9548,-17.9357,-17.8901,-17.8465,-17.8028,-17.7636,-17.7155,-17.6761,-17.6425,-17.6031,-17.5372,-17.4652,-17.3953,-17.3391,-17.2967,-17.2491,-17.1848,-17.1497,-17.151,-17.1016,-17.0586,-17.0335,-16.9766,-16.9509,-16.9509,-16.9824,-17.0398,-17.1077,-17.2305,-17.3464,-17.4298,-17.4939,-17.4985,-17.4249,-17.3234,-17.2265,-17.139,-17.0782,-17.0344,-16.9953,-17.0017,-17.0145,-17.0081,-16.9953,-16.9895,-16.9772,-16.9641,-16.9443,-16.9176,-16.9176,-16.9176,-16.9176,-16.9176,-16.9176,-16.9176,-16.9176,-16.9176,-16.9176,-16.9176,-16.9176,-16.9176,-16.9176,-16.9176,-16.9176,-16.9176,-16.9176,-16.9104,-16.8605,-16.8177,-16.8248,-16.782,-16.6892,-16.5323,-16.4181,-16.3325,-16.2754,-16.2326,-16.1684,-16.1191,-16.0193,-15.9787,-15.9787,-15.9451,-15.9237,-15.9101,-15.9101,-15.8604,-15.8125,-15.6242,-15.5138,-15.4392,-15.2022,-15.0402,-16.3218,-16.5797,-16.7289,-16.7881,-16.8122,-16.8407,-16.9488,-17.1005,-17.1529,-17.2841,-17.4543,-17.4788,-17.5671,-17.7142,-17.7071,-17.7299,-17.7603,-17.9046,-17.9728,-17.9721,-17.9762,-17.9765,-17.9548,-17.9342,-17.8881,-17.8417,-17.8,-17.7542,-17.6869,-17.6499,-17.6031,-17.5458,-17.4559,-17.3853,-17.3181,-17.2418,-17.1921,-17.1569,-17.0966,-17.0595,-17.0595,-17.028,-16.9759,-16.9305,-16.9176,-16.9176,-16.9171,-16.9759,-17.0326,-17.1005,-17.2249,-17.336,-17.4102,-17.4706,-17.4585,-17.3853,-17.275,-17.1687,-17.0843,-17.0344,-17.0025,-16.97,-16.9895,-17.0017,-16.9953,-16.9766,-16.9707,-16.9707,-16.9305,-16.9104,-16.9176,-16.9176,-16.9176,-16.9176,-16.9176,-16.9176,-16.9176,-16.9176,-16.9176,-16.9176,-16.8962,-16.8748,-16.889,-16.8962,-16.8605,-16.8605,-16.8748,-16.8676,-16.8319,-16.7463,-16.6821,-16.6393,-16.5537,-16.3967,-16.2469,-16.204,-16.1398,-16.0827,-16.0613,-15.9971,-15.963,-15.9431,-15.9309,-15.9108,-15.8627,-15.8288,-15.8435,-15.8014,-15.7234,-15.6181,-15.437,-15.2849,-15.1882,-14.9496,-14.7572,-16.2055,-16.2873,-16.5348,-16.7127,-16.8256,-16.8745,-16.9267,-16.9865,-17.0136,-17.134,-17.2935,-17.3086,-17.3419,-17.373,-17.3807,-17.449,-17.5781,-17.7375,-17.8132,-17.8266,-17.9283,-17.971,-17.9407,-17.9162,-17.8671,-17.8189,-17.783,-17.7446,-17.6869,-17.6191,-17.5341,-17.4671,-17.393,-17.3074,-17.2136,-17.1615,-17.1077,-17.0523,-17.0153,-16.9895,-16.9895,-16.9569,-16.9305,-16.9104,-16.9176,-16.9176,-16.9104,-16.9694,-17.0398,-17.1077,-17.2078,-17.3074,-17.4053,-17.4443,-17.4538,-17.4249,-17.2913,-17.1687,-17.072,-17.0089,-16.9635,-16.9305,-16.9305,-16.9371,-16.9371,-16.9376,-16.931,-16.9167,-16.9171,-16.9033,-16.9176,-16.9176,-16.9176,-16.9176,-16.9176,-16.9176,-16.9104,-16.9176,-16.9033,-16.9033,-16.8034,-16.7392,-16.7249,-16.6536,-16.5965,-16.5965,-16.5893,-16.5751,-16.5608,-16.5465,-16.5109,-16.5037,-16.4752,-16.3325,-16.1042,-16.0542,-16.0399,-15.9829,-15.9757,-15.963,-15.9366,-15.9302,-15.9173,-15.8014,-15.7173,-15.669,-15.6212,-15.5153,-15.4166,-15.3538,-15.208,-15.0343,-14.929,-14.696,-14.5012,-16.0884,-16.1463,-16.3205,-16.5337,-16.7614,-16.8809,-16.9273,-16.9443,-16.9688,-17.038,-17.1256,-17.0614,-17.0769,-17.1452,-17.2135,-17.2971,-17.4034,-17.5629,-17.6759,-17.7485,-17.8247,-17.8931,-17.9251,-17.8881,-17.8441,-17.7973,-17.7636,-17.7324,-17.6797,-17.6077,-17.5123,-17.4176,-17.3213,-17.2362,-17.1437,-17.0771,-17.0344,-16.9888,-16.9635,-16.8794,-16.7656,-16.7315,-16.7249,-16.7249,-16.7249,-16.7178,-16.7244,-16.7832,-16.8394,-16.8947,-16.9874,-17.0889,-17.162,-17.2093,-17.224,-17.1872,-17.0781,-16.9542,-16.8403,-16.8476,-16.8376,-16.8177,-16.8748,-16.9176,-16.9176,-16.9176,-16.8534,-16.7535,-16.7178,-16.7178,-16.7178,-16.7249,-16.7249,-16.7249,-16.7249,-16.7178,-16.7249,-16.7178,-16.7178,-16.7178,-16.6393,-16.5822,-16.5679,-16.4966,-16.4538,-16.4466,-16.4466,-16.4609,-16.4466,-16.3896,-16.361,-16.3468,-16.2897,-16.1684,-16.0328,-15.9757,-15.9757,-15.9757,-15.9694,-15.9566,-15.9101,-15.8622,-15.7527,-15.7053,-15.5168,-15.3841,-15.3632,-15.2651,-15.1742,-15.0902,-14.9576,-14.8386,-14.6675,-14.4731,-14.2865,-16.0056,-16.1225,-16.1408,-16.3244,-16.6163,-16.8014,-16.8892,-16.9105,-16.9329,-16.9453,-16.9247,-16.78,-16.8019,-16.9546,-17.1143,-17.183,-17.206,-17.3879,-17.5457,-17.6626,-17.6819,-17.7602,-17.8818,-17.8392,-17.8091,-17.7905,-17.7489,-17.712,-17.6761,-17.6191,-17.5153,-17.3803,-17.2384,-17.1325,-17.0606,-16.9722,-16.9277,-16.9355,-16.8953,-16.7321,-16.4609,-16.4466,-16.4466,-16.4466,-16.4395,-16.4252,-16.4324,-16.468,-16.5035,-16.5389,-16.6569,-16.7358,-16.7731,-16.8268,-16.8318,-16.7731,-16.7214,-16.6314,-16.5155,-16.5941,-16.6536,-16.6678,-16.782,-16.8534,-16.8534,-16.8605,-16.7392,-16.5394,-16.4538,-16.4681,-16.4466,-16.4609,-16.4752,-16.4895,-16.4752,-16.4466,-16.4681,-16.4466,-16.4466,-16.4466,-16.4466,-16.4252,-16.4181,-16.3896,-16.3824,-16.3539,-16.3396,-16.3468,-16.3396,-16.2611,-16.1898,-16.1684,-16.0827,-15.99,-15.9472,-15.9543,-15.9186,-15.9044,-15.8932,-15.839,-15.771,-15.6407,-15.4957,-15.4402,-15.2652,-15.0963,-15.075,-15.0252,-14.934,-14.8089,-14.7601,-14.7106,-14.4751,-14.3032,-14.1385,-15.9693,-15.998,-16.1164,-16.2106,-16.3009,-16.4842,-16.5752,-16.599,-16.6123,-16.6138,-16.6054,-16.5741,-16.5736,-16.6273,-16.7876,-16.8714,-16.9019,-17.1676,-17.3179,-17.359,-17.4619,-17.5859,-17.7137,-17.6807,-17.7062,-17.7726,-17.7489,-17.6979,-17.6461,-17.5744,-17.4911,-17.3605,-17.0828,-16.903,-16.8231,-16.6757,-16.65,-16.7239,-16.6173,-16.518,-16.4466,-16.4466,-16.4466,-16.4395,-16.3253,-16.2683,-16.2611,-16.1842,-16.162,-16.2161,-16.2815,-16.3433,-16.4134,-16.4364,-16.4416,-16.4332,-16.4815,-16.4665,-16.3985,-16.4553,-16.4966,-16.4966,-16.5323,-16.5465,-16.5537,-16.5537,-16.518,-16.4609,-16.4181,-16.4324,-16.4181,-16.4324,-16.4466,-16.4466,-16.4466,-16.4252,-16.4395,-16.4466,-16.4466,-16.4324,-16.3396,-16.2683,-16.2469,-16.1612,-16.097,-16.1042,-16.0827,-16.0827,-16.0827,-16.0613,-16.0328,-16.0185,-16.0043,-15.9258,-15.8187,-15.7973,-15.7545,-15.6261,-15.5877,-15.5645,-15.4983,-15.4031,-15.2791,-15.1736,-14.9686,-14.8198,-14.7544,-14.6411,-14.543,-14.5087,-14.495,-14.4518,-14.342,-14.2323,-14.0679,-15.9633,-15.961,-16.036,-16.1221,-16.2021,-16.3104,-16.4075,-16.4757,-16.3325,-16.3062,-16.3696,-16.3772,-16.4244,-16.5027,-16.5881,-16.6731,-16.765,-16.9314,-17.0888,-17.2354,-17.3047,-17.4176,-17.535,-17.4992,-17.4972,-17.5417,-17.4912,-17.434,-17.3648,-17.2964,-17.2139,-17.1122,-16.9028,-16.7311,-16.6263,-16.5284,-16.509,-16.5608,-16.3468,-16.2326,-16.2326,-16.1612,-16.1256,-16.1256,-15.9757,-15.8901,-15.8901,-15.8346,-15.8211,-15.8687,-15.8502,-15.8701,-15.9294,-15.8798,-15.8361,-15.8099,-15.8339,-15.8342,-15.7707,-15.7846,-15.8616,-16.0114,-16.2112,-16.2255,-15.94,-15.9115,-15.94,-16.0114,-16.0899,-16.1256,-16.1256,-16.1898,-16.2255,-16.2326,-16.2326,-16.2326,-16.2255,-16.2326,-16.2255,-16.2255,-16.1541,-16.1042,-16.1042,-16.0328,-15.9757,-15.9757,-15.9757,-15.9757,-15.9829,-15.8616,-15.7617,-15.7617,-15.7617,-15.7189,-15.6546,-15.6208,-15.5789,-15.5076,-15.4225,-15.3644,-15.3115,-15.1252,-15.0128,-14.9051,-14.683,-14.5255,-14.5041,-14.3742,-14.3168,-14.3032,-14.3032,-14.2719,-14.2323,-14.1601,-13.9799,-15.9673,-15.9623,-15.9656,-16.0457,-16.1758,-16.1891,-16.2826,-16.4011,-16.062,-15.9987,-16.1569,-16.1569,-16.2533,-16.4126,-16.439,-16.5339,-16.6809,-16.7254,-16.8818,-17.1487,-17.1599,-17.2377,-17.3514,-17.3047,-17.2724,-17.2546,-17.184,-17.1166,-17.0567,-16.9767,-16.8862,-16.797,-16.6609,-16.5425,-16.4393,-16.3733,-16.3396,-16.3111,-16.0471,-15.9115,-15.9115,-15.7831,-15.7117,-15.7046,-15.5619,-15.4691,-15.4406,-15.4424,-15.4508,-15.4515,-15.3808,-15.3384,-15.3437,-15.2345,-15.1403,-15.0496,-15.0262,-14.9875,-14.915,-14.9303,-15.0481,-15.3336,-15.7545,-15.7688,-15.2051,-15.1837,-15.2693,-15.4263,-15.5976,-15.6832,-15.6903,-15.8259,-15.9115,-15.9115,-15.9115,-15.9115,-15.9115,-15.9115,-15.9115,-15.9115,-15.9115,-15.9044,-15.8972,-15.8972,-15.883,-15.8972,-15.8616,-15.8972,-15.8473,-15.676,-15.5262,-15.5058,-15.5058,-15.4915,-15.4577,-15.4257,-15.3855,-15.3855,-15.2665,-15.1656,-15.1109,-14.9011,-14.7227,-14.6562,-14.4033,-14.2369,-14.2301,-14.1679,-14.1035,-14.098,-14.082,-14.0713,-14.0255,-13.9748,-13.8351,-15.9719,-15.9759,-15.9786,-15.9903,-16.0257,-16.0236,-16.0505,-16.0594,0.0,0.0,0.0,-15.7966,-15.892,-16.0649,-16.2103,-16.2919,-16.3409,-16.6081,-16.7654,-16.8255,-16.939,-17.0637,-17.1853,-17.139,-17.1644,-17.2546,-17.184,-17.1162,-17.0473,-16.9536,-16.8437,-16.7104,-16.3812,-16.1766,-16.0965,-15.9447,-15.8045,-15.6832,-15.6252,-15.5904,-15.5904,-15.5619,-15.5547,-15.5476,-15.3978,-15.2551,-15.1195,-14.997,-14.8861,-14.7933,-14.7745,-14.7195,-14.623,-14.5924,-14.4629,-14.2078,-14.2674,-14.2546,-14.1219,-14.3159,-14.4773,-14.5273,-14.8484,-14.884,-14.5273,-14.7342,-14.9411,-15.0921,-15.2622,-15.3621,-15.3621,-15.5048,-15.5904,-15.5904,-15.5904,-15.5904,-15.5904,-15.5966,-15.5904,-15.5904,-15.5976,-15.5904,-15.6047,-15.6047,-15.5904,-15.5976,-15.619,-15.5966,-15.5833,-15.5333,-15.4558,-15.4311,-15.4114,-15.391,-15.2663,-15.1991,-15.1239,-15.0255,-14.8984,-14.7898,-14.7204,-14.5924,-14.4601,-14.3469,-14.1286,-13.9759,-13.9235,-13.8093,-13.69,-13.6833,-13.6833,-13.6752,-13.6588,-13.6011,-13.4813,-15.7321,0.0,-15.7327,-15.7347,0.0,-15.7318,-15.7329,-15.7302,-15.5525,-15.5045,-15.5578,-15.5626,-15.6576,-15.8273,-15.9158,-16.0535,-16.227,-16.405,-16.5251,-16.6013,-16.7512,-16.8503,-16.8985,-16.9375,-16.9775,-17.0,-16.9268,-16.8034,-16.642,-16.5388,-16.3905,-16.1924,-15.967,-15.8175,-15.757,-15.6742,-15.5904,-15.5181,-15.5181,-15.5181,-15.5048,-15.4334,-15.3906,-15.3835,-15.2337,0.0,0.0,0.0,0.0,0.0,0.0,0.0,0.0,0.0,0.0,-13.4749,-13.3592,-13.2702,-13.1904,-13.3034,-13.4499,-13.6068,-13.8352,-13.7995,-13.407,-13.8851,-14.2989,-14.5286,-14.777,-14.9197,-14.9197,-15.1266,-15.2693,-15.2693,-15.2693,-15.2693,-15.2693,-15.2693,-15.2979,-15.3692,-15.3906,-15.4263,-15.4977,-15.5181,-15.5181,-15.5181,-15.5181,-15.5181,-15.4967,-15.3121,-15.136,-15.1055,-15.1314,-15.1282,-15.0454,-14.9726,-14.8777,-14.8012,-14.6227,-14.4766,-14.4126,-14.226,-14.0501,-13.979,-13.8217,-13.7018,-13.687,-13.6076,-13.5381,-13.5611,-13.5463,-13.4884,-13.2967,-13.2374,-13.1846,-15.4952,-15.4952,-15.4955,-15.4965,-15.4821,-15.3533,-15.3206,-15.3421,-15.3286,-15.3073,-15.2734,-15.3029,-15.4137,-15.5869,-15.6252,-15.8118,-16.1104,-16.1606,-16.2659,-16.4192,-16.577,-16.6353,-16.6226,-16.7107,-16.7225,-16.6555,-16.5729,-16.4166,-16.1969,-16.0827,-15.9109,-15.6795,-15.5523,-15.4723,-15.4181,0.0,0.0,0.0,-15.4049,-15.4192,-15.412,-15.2979,-15.2265,-15.2265,-15.0921,0.0,-14.7627,-14.7485,-14.6673,-14.4757,-14.1968,0.0,0.0,0.0,0.0,0.0,0.0,0.0,0.0,0.0,0.0,0.0,-12.5794,-12.4723,-12.2369,-12.8505,-13.4356,-13.8352,-14.1348,-14.3061,-14.3418,-14.5986,-14.7627,-14.7569,-14.7627,-14.7711,-14.7997,-14.7997,-14.8781,-15.0695,-15.0981,-15.148,-15.2693,-15.3264,-15.3193,-15.2907,-15.3264,-15.3336,-15.3121,-14.9911,-14.7581,-14.7153,-14.7669,-14.7943,-14.7687,-14.6557,-14.5809,-14.5604,-14.3581,-14.195,-14.1153,-13.8992,-13.7309,-13.6664,-13.5361,-13.4587,-13.49,-13.4388,-13.3827,-13.4503,-13.419,-13.3067,-13.0086,-12.9676,-12.9873,-15.4952,-15.4952,-15.4965,-15.4972,-15.4444,-14.858,-14.6924,-14.809,-14.7886,-14.7686,-14.7649,-14.9073,-15.0676,-15.2383,-15.3978,-15.5682,-15.7578,-15.9167,-16.0746,-16.2349,-16.3841,-16.4533,-16.4397,-16.4221,-16.3843,-16.308,-16.2236,-16.1152,-15.9935,-15.8703,-15.7615,-15.6442,-15.3152,-15.1266,-15.0767,-14.8198,-14.7485,-14.884,-15.0196,-15.085,-15.085,-15.0767,-15.0564,-15.0564,-15.035,-14.8912,-14.6058,-14.5915,-14.3917,-13.9834,-13.7907,-13.5034,-13.0749,-12.7393,-12.3037,0.0,-11.3994,0.0,0.0,0.0,0.0,0.0,0.0,0.0,0.0,-11.6875,-12.2868,-13.0146,-13.2358,-13.3928,-13.5283,-13.6996,-13.8066,-13.8066,-13.8066,-13.8637,-13.9921,-14.008,-14.1206,-14.4131,-14.4488,-14.5059,-14.67,-14.6842,-14.6842,-14.7128,-14.7057,-14.6842,-14.6771,-14.62,-14.5514,-14.5576,-14.5118,-14.4381,-14.3347,-14.2338,-14.1646,-14.1363,-14.0153,-13.904,-13.8084,-13.7252,-13.6396,-13.5213,-13.3661,-13.2753,-13.2489,-13.1353,-13.0547,-13.0629,-13.0629,-13.002,-12.8558,-12.8952,-12.9807,-14.9428,-14.9428,-14.943,-14.837,-14.6464,-14.439,-14.3861,-14.4398,-14.5111,-14.5359,-14.5148,-14.489,-14.521,-14.6147,-14.7942,-15.0152,-15.2722,-15.4471,-15.615,-15.7849,-16.0255,-16.1384,-16.1431,-16.2875,-16.3267,-16.2628,-16.1805,-15.994,-15.6994,-15.5809,-15.3879,-15.1216,-14.922,-14.6331,-14.2704,-14.2847,-14.3774,-14.5344,-14.777,-14.9411,-15.0208,-15.0279,-15.0279,-15.0279,-15.0279,-14.8781,-14.5643,-14.5572,-14.3489,-13.8851,-13.5426,-13.1573,-12.6864,-12.0371,-11.4306,0.0,0.0,0.0,0.0,0.0,0.0,0.0,0.0,0.0,0.0,0.0,-11.2237,-11.8302,-12.3368,-12.7007,-12.8648,-13.0146,-13.1074,-13.1074,-13.1145,-13.1359,-13.2073,-13.2929,-13.4641,-13.7709,-13.8851,-14.0278,-14.2704,-14.3774,-14.4274,-14.4274,-14.2062,-14.0421,-14.0492,-14.1037,-14.1365,-14.1089,-14.1265,-14.1094,-14.007,-13.867,-13.77,-13.7343,-13.6468,-13.516,-13.3676,-13.2993,-13.2023,-13.0432,-12.9371,-12.8668,-12.8507,-12.7834,-12.7506,-12.7506,-12.7506,-12.7571,-12.7637,-12.8229,-12.8952,-14.4193,-14.3662,-14.2067,-13.9938,-13.7716,-13.9366,-14.02,-14.0495,-14.1971,-14.229,-14.1566,-14.0141,-13.9406,-13.9302,-14.1516,-14.4056,-14.6959,-14.8987,-15.1044,-15.3144,-15.6026,-15.7561,-15.8014,-16.016,-16.0885,-16.0333,-15.9558,-15.6974,-15.301,-15.1844,-14.9281,-14.5205,-14.3157,-13.9697,-13.4927,-13.8066,-14.0778,-14.2633,-14.5772,-14.8341,-15.0136,-15.0279,-15.0279,-15.0208,-14.9922,-14.827,-14.5201,-14.4417,-14.1634,-13.6513,-13.1859,-12.6864,-12.1441,-11.295,0.0,0.0,0.0,0.0,0.0,0.0,0.0,0.0,0.0,-8.6693,-9.2544,0.0,-10.2033,0.0,-11.4163,-11.9443,-12.1084,-12.2654,0.0,0.0,-12.3011,-12.3154,-12.3582,-12.4937,-12.7221,-13.0717,-13.2857,-13.5069,-13.7852,-13.985,-14.0722,-13.9825,-13.7029,-13.5033,-13.4979,-13.5884,-13.6373,-13.6048,-13.6374,-13.6619,-13.5729,-13.445,-13.3231,-13.3078,-13.2548,-13.1456,-12.9712,-12.8902,-12.8018,-12.6347,-12.5769,-12.5599,-12.573,-12.5599,-12.527,-12.3823,-12.3823,-12.4481,-12.5862,-12.6388,-12.7111,-14.1764,-13.9865,-13.3791,-13.1055,-13.0959,-13.2518,-13.3961,-13.5418,-13.6761,-13.6517,-13.4915,-13.4656,-13.3768,-13.2741,-13.5989,0.0,-14.0132,-14.3244,-14.6284,-14.9453,-15.1243,-15.2826,-15.4163,-15.423,-15.3974,-15.3552,-15.2419,-15.0407,-14.7758,-14.6341,-14.3771,-13.9908,-13.3743,-13.034,-13.0075,-13.4356,-13.8138,-14.1063,-14.4202,-14.7271,-15.0136,-15.0279,-15.0279,-15.0208,-14.8912,-14.6628,-14.3489,-14.0706,-13.6354,-13.0289,-12.5437,-11.9443,-11.1951,0.0,0.0,0.0,0.0,0.0,0.0,0.0,0.0,0.0,0.0,0.0,0.0,0.0,0.0,-9.7149,-10.4602,0.0,-11.1381,-11.295,0.0,0.0,0.0,-11.2308,-11.3735,-11.5305,-11.7969,-12.2463,0.0,0.0,-13.0003,-13.2786,-13.3482,-13.0029,-13.083,-13.1577,-13.1361,-13.1611,-13.1557,-13.1023,-13.0455,-13.0002,-12.9925,-12.8688,-12.7815,-12.7821,-12.8325,-12.8268,-12.7093,-12.6779,-12.6603,-12.544,-12.5467,-12.5401,-12.5533,-12.5072,-12.3889,-11.8562,-11.876,-12.0075,-12.1456,-12.2705,-12.3955,-13.3107,-12.764,-12.4983,-12.3917,-12.4126,-12.5695,-12.669,-12.7309,-12.8738,-12.8969,-12.8179,-12.6081,-12.4812,-12.4305,-12.4647,0.0,0.0,0.0,-13.8345,-14.1629,-14.5192,-14.7093,-14.7786,-14.943,-14.9545,-14.7956,-14.7111,-14.4309,-13.9702,-13.8612,-13.3261,-12.3917,0.0,0.0,-12.2226,-12.7792,-13.3072,-13.8066,-14.2133,-14.5701,-14.8769,-14.9839,-14.9839,-14.884,-14.6414,-14.3632,-14.0564,-13.7424,-13.2429,-12.5223,-11.9515,-11.2879,0.0,0.0,0.0,0.0,0.0,0.0,0.0,0.0,0.0,0.0,0.0,-7.1138,-7.492,0.0,0.0,0.0,-9.5469,-10.132,-10.5815,-10.6743,0.0,0.0,0.0,0.0,0.0,0.0,0.0,-11.3164,-11.7231,-12.0988,-12.4239,-12.4972,-12.4891,-12.4228,-12.6409,-12.7971,-12.7864,0.0,-12.7558,-12.7449,-12.6597,-12.5962,-12.6021,-12.5129,-12.4416,-12.413,-12.4559,-12.4194,-12.2532,-12.277,-12.2602,-12.1204,-12.064,-12.0565,-12.0348,-11.8825,-11.6787,-11.4748,-11.4748,-11.5603,-11.705,-11.7773,-11.8816,-12.2781,0.0,0.0,0.0,0.0,-11.8112,-11.9049,-11.9544,-12.1033,-12.1386,-12.069,-11.7805,0.0,0.0,0.0,0.0,0.0,0.0,-12.9789,-13.3188,-13.7486,-13.9873,-14.0749,-14.291,-14.3017,-14.1228,-14.049,-13.7331,-13.2078,-12.7449,-12.0051,-11.0193,0.0,0.0,0.0,0.0,-12.8648,-13.4784,-13.9993,-14.4345,-14.7841,-14.9483,-14.9554,-14.7984,-14.406,-14.0278,-13.6711,-13.2287,-12.6436,-11.9015,-11.2379,0.0,0.0,0.0,0.0,0.0,0.0,0.0,0.0,0.0,0.0,0.0,0.0,0.0,0.0,0.0,0.0,0.0,0.0,0.0,-9.8823,-10.0098,-10.0027,0.0,0.0,0.0,0.0,0.0,0.0,0.0,0.0,0.0,-11.5835,-11.6427,-11.7182,0.0,0.0,-12.3808,-12.3598,-12.3702,-12.3892,-12.3876,-12.3046,0.0,-12.2133,-12.144,-12.0795,-12.0552,-12.0037,-11.9004,-11.7126,-11.739,-11.7238,-11.5403,-11.5256,-11.4651,-11.2452,-11.0145,-10.8896,-10.883,-10.883,-10.929,-11.0671,-11.1324,-11.2168,0.0,0.0,0.0,0.0,0.0,0.0,0.0,0.0,-11.423,-11.3964,0.0,-11.0572,0.0,0.0,0.0,0.0,0.0,-11.6664,0.0,0.0,-12.7597,-13.0648,-13.3539,-13.3604,-13.3251,-13.2777,-13.1686,-12.9123,-12.4646,-11.1819,0.0,0.0,0.0,0.0,0.0,0.0,-12.5366,-13.1645,-13.7852,-14.3275,-14.777,-14.9483,-14.9494,-14.7841,-14.1991,-13.6568,-13.1787,-12.4295,-11.7303,-11.0952,-10.3389,0.0,0.0,0.0,0.0,0.0,0.0,0.0,0.0,0.0,0.0,0.0,0.0,0.0,0.0,0.0,0.0,0.0,0.0,0.0,0.0,-9.2253,0.0,0.0,0.0,0.0,0.0,0.0,0.0,0.0,0.0,0.0,-10.3709,-10.7208,-11.0894,-11.3447,0.0,0.0,0.0,0.0,-12.0509,-12.0106,-11.9577,-11.8795,-11.7388,-11.6618,-11.6286,-11.6286,0.0,0.0,-11.1501,-11.0877,-11.0366,-10.9645,-11.0237,-10.8709,-10.1399,-10.0019,-9.9953,-9.989,-9.9953,-10.0413,-10.1794,-10.2717,-10.3894,0.0,0.0,0.0,0.0,0.0,0.0,0.0,0.0,0.0,-10.4149,0.0,-10.0704,0.0,0.0,0.0,0.0,0.0,0.0,0.0,0.0,-12.0158,-12.3186,-12.5118,-12.5852,-12.5418,0.0,-12.195,-11.5776,0.0,0.0,0.0,0.0,0.0,0.0,0.0,0.0,-12.0157,-12.8434,-13.5712,-14.1705,-14.62,-14.7984,-14.7984,-14.6414,-14.1348,-13.3999,-12.4153,-11.7303,-10.9311,0.0,0.0,0.0,0.0,0.0,0.0,0.0,0.0,0.0,0.0,0.0,0.0,0.0,0.0,0.0,0.0,0.0,0.0,0.0,0.0,0.0,0.0,0.0,-8.581,0.0,0.0,0.0,0.0,0.0,0.0,0.0,0.0,0.0,-9.6691,-10.1497,-10.63,-10.9752,-11.2986,-11.5625,-11.729,0.0,0.0,0.0,0.0,0.0,0.0,0.0,-11.3387,-11.3387,-11.0911,-10.8633,-10.783,-10.6092,-10.4588,-10.3913,0.0,0.0,-9.1396,-9.0484,-9.1141,-9.1141,-9.1026,-9.1042,-9.1559,-9.2457,-9.3467,0.0,0.0,0.0,0.0,0.0,0.0,0.0,0.0,0.0,-9.5935,-9.4787,0.0,0.0,0.0,0.0,0.0,0.0,0.0,0.0,0.0,0.0,0.0,-11.6413,-11.7171,0.0,0.0,0.0,0.0,0.0,0.0,0.0,0.0,0.0,0.0,0.0,0.0,-11.6375,-12.5223,-13.3571,-14.0135,-14.4702,-14.6842,-14.6914,-14.4845,-14.0278,-13.2643,-12.1655,0.0,0.0,0.0,0.0,0.0,0.0,0.0,0.0,0.0,0.0,0.0,0.0,0.0,0.0,0.0,0.0,0.0,0.0,0.0,0.0,0.0,0.0,0.0,0.0,0.0,-8.0407,0.0,0.0,0.0,0.0,0.0,0.0,0.0,0.0,0.0,0.0,0.0,-10.0999,-10.4995,-10.8994,-11.251,-11.5182,-11.5997,-11.7078,0.0,0.0,0.0,0.0,0.0,0.0,0.0,0.0,0.0,0.0,0.0,0.0,0.0,0.0,-8.8588,-8.1277,-8.0336,-8.0715,-8.073,0.0,0.0,0.0,0.0,0.0,0.0,0.0,0.0,0.0,0.0,0.0,0.0,0.0,0.0,0.0,-8.9733,0.0,0.0,-8.4734,0.0,0.0,0.0,0.0,0.0,0.0,0.0,0.0,0.0,0.0,0.0,0.0,0.0,0.0,0.0,0.0,0.0,0.0,0.0,0.0,0.0,0.0,-11.4235,-12.2035,-13.1502,-13.8566,-14.3204,-14.6272,-14.6414,-14.3346,-13.8566,-13.2429,-12.4509,0.0,0.0,0.0,0.0,0.0,0.0,0.0,0.0,0.0,0.0,0.0,0.0,0.0,0.0,0.0,0.0,0.0,0.0,0.0,0.0,0.0,0.0,0.0,0.0,0.0,0.0,-7.6772,-7.5278,-7.4302,0.0,0.0,0.0,0.0,0.0,0.0,0.0,0.0,0.0,0.0,-10.4549,-10.9067,-11.1457,-11.433,-11.6459,-11.7521,-11.637,-11.4856,-11.3411,-11.0645,-10.7685,0.0,0.0,0.0,0.0,0.0,0.0,0.0,0.0,0.0,0.0,0.0,0.0,0.0,0.0,0.0,0.0,0.0,0.0,0.0,0.0,0.0,0.0,0.0,0.0,0.0,0.0,0.0,0.0,0.0,0.0,0.0,0.0,0.0,0.0,0.0,0.0,0.0,0.0,0.0,0.0,0.0,0.0,0.0,0.0,0.0,0.0,0.0,0.0,0.0,0.0,0.0,0.0,0.0,0.0,-11.1523,-12.0371,-13.086,-13.8566,-14.3132,-14.5273,-14.5344,-14.3132,-13.5498,-12.8148,0.0,0.0,0.0,0.0,0.0,0.0,0.0,0.0,0.0,0.0,0.0,0.0,0.0,0.0,0.0,0.0,0.0,0.0,0.0,0.0,0.0,0.0,0.0,0.0,0.0,0.0,0.0,0.0,-7.1403,-7.0965,-7.1028,0.0,0.0,0.0,0.0,0.0,0.0,0.0,0.0,0.0,0.0,-10.381,-10.9178,-11.124,-11.2803,-11.4443,-11.3885,-11.2602,-11.052,-10.6558,-10.2793,-9.9854,0.0,0.0,0.0,0.0,0.0,0.0,0.0,0.0,0.0,0.0,0.0,0.0,0.0,0.0,0.0,0.0,0.0,0.0,0.0,0.0,0.0,0.0,0.0,0.0,0.0,0.0,0.0,0.0,0.0,0.0,0.0,0.0,0.0,0.0,0.0,0.0,0.0,0.0,0.0,0.0,0.0,0.0,0.0,0.0,0.0,0.0,0.0,0.0,0.0,0.0,0.0,0.0,0.0,-10.9454,-11.8801,-12.9147,-13.7067,-14.2133,-14.3917,-14.3632,-14.1491,-13.3393,-12.5266,0.0,0.0,0.0,0.0,0.0,0.0,0.0,0.0,0.0,0.0,0.0,0.0,0.0,0.0,0.0,0.0,0.0,0.0,0.0,0.0,0.0,0.0,0.0,0.0,0.0,0.0,0.0,0.0,-6.8028,-6.8471,-6.7868,0.0,0.0,0.0,0.0,0.0,0.0,0.0,0.0,0.0,0.0,-10.0111,-10.5698,-10.7974,0.0,0.0,-11.0499,-10.9037,-10.6982,-10.3174,-9.903,-9.4908,-8.9614,0.0,0.0,0.0,0.0,0.0,0.0,0.0,0.0,0.0,0.0,0.0,0.0,0.0,0.0,0.0,0.0,0.0,0.0,0.0,0.0,0.0,0.0,0.0,0.0,0.0,0.0,0.0,0.0,0.0,0.0,0.0,0.0,0.0,0.0,0.0,0.0,0.0,0.0,0.0,0.0,0.0,0.0,0.0,0.0,0.0,0.0,0.0,0.0,0.0,0.0,0.0,0.0,-10.7913,-11.7303,-12.6721,-13.4641,-14.0564,-14.2419,-14.1705,-13.8439,-13.2022,-12.3377,0.0,0.0,0.0,0.0,0.0,0.0,0.0,0.0,0.0,0.0,0.0,0.0,0.0,0.0,0.0,0.0,0.0,0.0,0.0,0.0,0.0,0.0,0.0,0.0,0.0,0.0,0.0,0.0,0.0,0.0,0.0,0.0,0.0,0.0,0.0,0.0,0.0,0.0,0.0,0.0,0.0,-9.7348,-10.1223,-10.4226,-10.6434,0.0,0.0,-10.4634,-10.2709,-9.9946,-9.5966,-8.9743,0.0,0.0,0.0,0.0,0.0,0.0,0.0,0.0,0.0,0.0,0.0,0.0,0.0,0.0,0.0,0.0,0.0,0.0,0.0,0.0,0.0,0.0,0.0,0.0,0.0,0.0,0.0,0.0,0.0,0.0,0.0,0.0,0.0,0.0,0.0,0.0,0.0,0.0,0.0,0.0,0.0,0.0,0.0,0.0,0.0,0.0,0.0,0.0,0.0,0.0,0.0,0.0,0.0,0.0,-11.7303,-12.6793,-13.407,-13.9065,-14.1848,-14.1093,-13.6595,-12.9106,0.0,0.0,0.0,0.0,0.0,0.0,0.0,0.0,0.0,0.0,0.0,0.0,0.0,0.0,0.0,0.0,0.0,0.0,0.0,0.0,0.0,0.0,0.0,0.0,0.0,0.0,0.0,-5.7132,0.0,0.0,0.0,0.0,0.0,0.0,0.0,0.0,0.0,0.0,0.0,0.0,0.0,0.0,-9.1429,-9.6456,-9.9491,-10.135,0.0,0.0,-10.0761,-9.7131,-9.4488,-9.0895,0.0,0.0,0.0,0.0,0.0,0.0,0.0,0.0,0.0,0.0,0.0,0.0,0.0,0.0,0.0,0.0,0.0,0.0,0.0,0.0,0.0,0.0,0.0,0.0,0.0,0.0,0.0,0.0,0.0,0.0,0.0,0.0,0.0,0.0,0.0,0.0,0.0,0.0,0.0,0.0,0.0,0.0,0.0,0.0,0.0,0.0,0.0,0.0,0.0,0.0,0.0,0.0,0.0,0.0,-10.5458,-11.6232,-12.508,-13.2501,-13.8368,-14.0879,-13.984,-13.4975,-12.7386,-11.8649,0.0,0.0,0.0,0.0,0.0,0.0,0.0,0.0,0.0,0.0,0.0,0.0,0.0,0.0,0.0,0.0,0.0,0.0,0.0,0.0,0.0,0.0,0.0,0.0,0.0,0.0,0.0,0.0,0.0,0.0,0.0,0.0,0.0,0.0,0.0,0.0,0.0,0.0,0.0,0.0,0.0,0.0,-9.2347,-9.4637,0.0,0.0,0.0,-9.4913,-9.0944,0.0,0.0,0.0,0.0,0.0,0.0,0.0,0.0,0.0,0.0,0.0,0.0,0.0,0.0,0.0,0.0,0.0,0.0,0.0,0.0,0.0,0.0,0.0,0.0,0.0,0.0,0.0,0.0,0.0,0.0,0.0,0.0,0.0,0.0,0.0,0.0,0.0,0.0,0.0,0.0,0.0,0.0,0.0,0.0,0.0,0.0,0.0,0.0,0.0,0.0,0.0,0.0,0.0,0.0,0.0,0.0,0.0,-11.4617,-12.2654,-13.0308,-13.76,-13.9285,-13.7836,-13.3175,-12.6036,-11.729,0.0,0.0,0.0,0.0,0.0,0.0,0.0,0.0,0.0,0.0,0.0,0.0,0.0,0.0,0.0,0.0,0.0,0.0,0.0,0.0,0.0,0.0,0.0,0.0,0.0,0.0,0.0,0.0,0.0,0.0,0.0,0.0,0.0,0.0,0.0,0.0,0.0,0.0,0.0,0.0,0.0,-8.5289,-8.8126,-8.949,-9.0133,0.0,0.0,-8.7746,-8.4444,-8.3326,0.0,0.0,0.0,0.0,0.0,0.0,0.0,0.0,0.0,0.0,0.0,0.0,0.0,0.0,0.0,0.0,0.0,0.0,0.0,0.0,0.0,0.0,0.0,0.0,0.0,0.0,0.0,0.0,0.0,0.0,0.0,0.0,0.0,0.0,0.0,0.0,0.0,0.0,0.0,0.0,0.0,0.0,0.0,0.0,0.0,0.0,0.0,0.0,0.0,0.0,0.0,0.0,0.0,0.0,0.0,0.0,-11.3022,-12.1013,-12.8117,-13.4121,-13.5971,-13.4856,-13.0586,-12.2829,-11.4507,0.0,0.0,0.0,0.0,0.0,0.0,0.0,0.0,0.0,0.0,0.0,0.0,0.0,0.0,0.0,0.0,0.0,0.0,0.0,0.0,0.0,0.0,0.0,0.0,0.0,0.0,0.0,0.0,0.0,0.0,0.0,0.0,0.0,0.0,0.0,0.0,0.0,0.0,0.0,0.0,0.0,-7.9021,-8.1757,-8.3312,0.0,0.0,0.0,0.0,-7.7993,-7.5978,0.0,0.0,0.0,0.0,0.0,0.0,0.0,0.0,0.0,0.0,0.0,0.0,0.0,0.0,0.0,0.0,0.0,0.0,0.0,0.0,0.0,0.0,0.0,0.0,0.0,0.0,0.0,0.0,0.0,0.0,0.0,0.0,0.0,0.0,0.0,0.0,0.0,0.0,0.0,0.0,0.0,0.0,0.0,0.0,0.0,0.0,0.0,0.0,0.0,0.0,0.0,0.0,0.0,0.0,0.0,0.0,-11.031,-11.9015,-12.6641,-13.3142,-13.4714,-13.3554,-12.9566,-12.1394,-11.2784,0.0,0.0,0.0,0.0,0.0,0.0,0.0,0.0,0.0,0.0,0.0,0.0,0.0,0.0,0.0,0.0,0.0,0.0,0.0,0.0,0.0,0.0,0.0,0.0,0.0,0.0,0.0,0.0,0.0,0.0,0.0,0.0,0.0,0.0,0.0,0.0,0.0,0.0,0.0,0.0,-7.2013,-7.4647,-7.6777,0.0,0.0,0.0,0.0,0.0,0.0,-7.0324,-6.7426,0.0,0.0,0.0,0.0,0.0,0.0,0.0,0.0,0.0,0.0,0.0,0.0,0.0,0.0,0.0,0.0,0.0,0.0,0.0,0.0,0.0,0.0,0.0,0.0,0.0,0.0,0.0,0.0,0.0,0.0,0.0,0.0,0.0,0.0,0.0,0.0,0.0,0.0,0.0,0.0,0.0,0.0,0.0,0.0,0.0,0.0,0.0,0.0,0.0,0.0,0.0,0.0,0.0,0.0,0.0,-10.7242,-11.6803,-12.5094,-13.1967,-13.3455,-13.2389,-12.8669,-12.0351,-11.1118,-10.1385,0.0,0.0,0.0,0.0,0.0,0.0,0.0,0.0,0.0,0.0,0.0,0.0,0.0,0.0,0.0,0.0,0.0,0.0,0.0,0.0,0.0,0.0,0.0,0.0,0.0,0.0,0.0,0.0,0.0,0.0,0.0,0.0,0.0,0.0,0.0,0.0,0.0,0.0,0.0,-6.8063,-7.0734,0.0,0.0,0.0,0.0,0.0,0.0,0.0,0.0,-6.2207,0.0,0.0,0.0,0.0,0.0,0.0,0.0,0.0,0.0,0.0,0.0,0.0,0.0,0.0,0.0,0.0,0.0,0.0,0.0,0.0,0.0,0.0,0.0,0.0,0.0,0.0,0.0,0.0,0.0,0.0,0.0,0.0,0.0,0.0,0.0,0.0,0.0,0.0,0.0,0.0,0.0,0.0,0.0,0.0,0.0,0.0,0.0,0.0,0.0,0.0,0.0,0.0,0.0,0.0,0.0,0.0,-11.4663,-12.2409,-12.696,-12.9664,-12.9553,-12.6683,-11.8363,-10.8676,-9.7488,0.0,0.0,0.0,0.0,0.0,0.0,0.0,0.0,0.0,0.0,0.0,0.0,0.0,0.0,0.0,0.0,0.0,0.0,0.0,0.0,0.0,0.0,0.0,0.0,0.0,0.0,0.0,0.0,0.0,0.0,0.0,0.0,0.0,0.0,0.0,0.0,0.0,0.0,-5.7059,-6.1857,0.0,0.0,0.0,0.0,0.0,0.0,0.0,0.0,-5.8162,0.0,0.0,0.0,0.0,0.0,0.0,0.0,0.0,0.0,0.0,0.0,0.0,0.0,0.0,0.0,0.0,0.0,0.0,0.0,0.0,0.0,0.0,0.0,0.0,0.0,0.0,0.0,0.0,0.0,0.0,0.0,0.0,0.0,0.0,0.0,0.0,0.0,0.0,0.0,0.0,0.0,0.0,0.0,0.0,0.0,0.0,0.0,0.0,0.0,0.0,0.0,0.0,0.0,0.0,0.0,0.0,0.0,0.0,-11.9227,-12.5702,-12.697,-12.6667,-12.4456,-11.5733,-10.5639,0.0,0.0,0.0,0.0,0.0,0.0,0.0,0.0,0.0,0.0,0.0,0.0,0.0,0.0,0.0,0.0,0.0,0.0,0.0,0.0,0.0,0.0,0.0,0.0,0.0,0.0,0.0,0.0,0.0,0.0,0.0,0.0,0.0,0.0,0.0,0.0,0.0,0.0,0.0,0.0,0.0,0.0,0.0,0.0,0.0,0.0,0.0,0.0,0.0,0.0,0.0,0.0,0.0,0.0,0.0,0.0,0.0,0.0,0.0,0.0,0.0,0.0,0.0,0.0,0.0,0.0,0.0,0.0,0.0,0.0,0.0,0.0,0.0,0.0,0.0,0.0,0.0,0.0,0.0,0.0,0.0,0.0,0.0,0.0,0.0,0.0,0.0,0.0,0.0,0.0,0.0,0.0,0.0,0.0,0.0,0.0,0.0,0.0,0.0,0.0,0.0,0.0,0.0,0.0,0.0,0.0,0.0,0.0,-11.6024,-12.3718,-12.4461,-12.3831,-12.2043,-11.243,-10.2416,0.0,0.0,0.0,0.0,0.0,0.0,0.0,0.0,0.0,0.0,0.0,0.0,0.0,0.0,0.0,0.0,0.0,0.0,0.0,0.0,0.0,0.0,0.0,0.0,0.0,0.0,0.0,0.0,0.0,0.0,0.0,0.0,0.0,0.0,0.0,0.0,0.0,0.0,0.0,0.0,0.0,0.0,0.0,0.0,0.0,0.0,0.0,0.0,-5.329,0.0,0.0,0.0,0.0,0.0,0.0,0.0,0.0,0.0,0.0,0.0,0.0,0.0,0.0,0.0,0.0,0.0,0.0,0.0,0.0,0.0,0.0,0.0,0.0,0.0,0.0,0.0,0.0,0.0,0.0,0.0,0.0,0.0,0.0,0.0,0.0,0.0,0.0,0.0,0.0,0.0,0.0,0.0,0.0,0.0,0.0,0.0,0.0,0.0,0.0,0.0,0.0,0.0,0.0,0.0,0.0,0.0,0.0,0.0,-11.2964,-11.7483,-12.1093,-12.1221,-11.7402,-10.8386,-9.8911,0.0,0.0,0.0,0.0,0.0,0.0,0.0,0.0,0.0,0.0,0.0,0.0,0.0,0.0,0.0,0.0,0.0,0.0,0.0,0.0,0.0,0.0,0.0,0.0,0.0,0.0,0.0,0.0,0.0,0.0,0.0,0.0,0.0,0.0,0.0,0.0,0.0,0.0,0.0,0.0,0.0,0.0,0.0,0.0,0.0,0.0,0.0,0.0,0.0,0.0,0.0,0.0,0.0,0.0,0.0,0.0,0.0,0.0,0.0,0.0,0.0,0.0,0.0,0.0,0.0,0.0,0.0,0.0,0.0,0.0,0.0,0.0,0.0,0.0,0.0,0.0,0.0,0.0,0.0,0.0,0.0,0.0,0.0,0.0,0.0,0.0,0.0,0.0,0.0,0.0,0.0,0.0,0.0,0.0,0.0,0.0,0.0,0.0,0.0,0.0,0.0,0.0,0.0,0.0,0.0,0.0,0.0,0.0,-10.791,-11.3798,-11.6357,-11.4564,-10.8426,-10.1343,-9.3384,0.0,0.0,0.0,0.0,0.0,0.0,0.0,0.0,0.0,0.0,0.0,0.0,0.0,0.0,0.0,0.0,0.0,0.0,0.0,0.0,0.0,0.0,0.0,0.0,0.0,0.0,0.0,0.0,0.0,0.0,0.0,0.0,0.0,0.0,0.0,0.0,0.0,0.0,0.0,0.0,0.0,0.0,0.0,0.0,0.0,0.0,0.0,0.0,0.0,0.0,0.0,0.0,0.0,0.0,0.0,0.0,0.0,0.0,0.0,0.0,0.0,0.0,0.0,0.0,0.0,0.0,0.0,0.0,0.0,0.0,0.0,0.0,0.0,0.0,0.0,0.0,0.0,0.0,0.0,0.0,0.0,0.0,0.0,0.0,0.0,0.0,0.0,0.0,0.0,0.0,0.0,0.0,0.0,0.0,0.0,0.0,0.0,0.0,0.0,0.0,0.0,0.0,0.0,0.0,0.0,0.0,0.0,0.0,0.0,-10.9284,-10.9313,-10.6017,-9.9327,-9.4408,-8.7969,0.0,0.0,0.0,0.0,0.0,0.0,0.0,0.0,0.0,0.0,0.0,0.0,0.0,0.0,0.0,0.0,0.0,0.0,0.0,0.0,0.0,0.0,0.0,0.0,0.0,0.0,0.0,0.0,0.0,0.0,0.0,0.0,0.0,0.0,0.0,0.0,0.0,0.0,0.0,0.0,0.0,0.0,0.0,0.0,0.0,0.0,0.0,0.0,0.0,0.0,0.0,0.0,0.0,0.0,0.0,0.0,0.0,0.0,0.0,0.0,0.0,0.0,0.0,0.0,0.0,0.0,0.0,0.0,0.0,0.0,0.0,0.0,0.0,0.0,0.0,0.0,0.0,0.0,0.0,0.0,0.0,0.0,0.0,0.0,0.0,0.0,0.0,0.0,0.0,0.0,0.0,0.0,0.0,0.0,0.0,0.0,0.0,0.0,0.0,0.0,0.0,0.0,0.0,0.0,0.0,0.0,0.0,0.0,0.0,-10.3399,-9.9277,-9.5361,-9.1755,-8.8201,-8.347,0.0,0.0,0.0,0.0,0.0,0.0,0.0,0.0,0.0,0.0,0.0,0.0,0.0,0.0,0.0,0.0,0.0,0.0,0.0,0.0,0.0,0.0,0.0,0.0,0.0,0.0,0.0,0.0,0.0,0.0,0.0,0.0,0.0,0.0,0.0,0.0,0.0,0.0,0.0,0.0,0.0,0.0,0.0,0.0,0.0,0.0,0.0,0.0,0.0,0.0,0.0,0.0,0.0,0.0,0.0,0.0,0.0,0.0,0.0,0.0,0.0,0.0,0.0,0.0,0.0,0.0,0.0,0.0,0.0,0.0,0.0,0.0,0.0,0.0,0.0,0.0,0.0,0.0,0.0,0.0,0.0,0.0,0.0,0.0,0.0,0.0,0.0,0.0,0.0,0.0,0.0,0.0,0.0,0.0,0.0,0.0,0.0,0.0,0.0,0.0,0.0,0.0,0.0,0.0,0.0,0.0,0.0,0.0,0.0,-9.2681,-9.0078,-8.8439,-8.8331,-8.3082,-7.7845,-7.2741,0.0,0.0,0.0,0.0,0.0,0.0,0.0,0.0,0.0,0.0,0.0,0.0,0.0,0.0,0.0,0.0,0.0,0.0,0.0,0.0,0.0,0.0,0.0,0.0,0.0,0.0,0.0,0.0,0.0,0.0,0.0,0.0,0.0,0.0,0.0,0.0,0.0,0.0,0.0,0.0,0.0,0.0,0.0,0.0,0.0,0.0,0.0,0.0,0.0,0.0,0.0,0.0,0.0,0.0,0.0,0.0,0.0,0.0,0.0,0.0,0.0,0.0,0.0,0.0,0.0,0.0,0.0,0.0,0.0,0.0,0.0,0.0,0.0,0.0,0.0,0.0,0.0,0.0,0.0,0.0,0.0,0.0,0.0,0.0,0.0,0.0,0.0,0.0,0.0,0.0,0.0,0.0,0.0,0.0,0.0,0.0,0.0,0.0,0.0,0.0,0.0,0.0,0.0,0.0,0.0,0.0,0.0,0.0,-8.391,-8.3244,-8.3176,-8.3637,-7.8597,-7.3704,0.0,0.0,0.0,0.0,0.0,0.0,0.0,0.0,0.0,0.0,0.0,0.0,0.0,0.0,0.0,0.0,0.0,0.0,0.0,0.0,0.0,0.0,0.0,0.0,0.0,0.0,0.0,0.0,0.0,0.0,0.0,0.0,0.0,0.0,0.0,0.0,0.0,0.0,0.0,0.0,0.0,0.0,0.0,0.0,0.0,0.0,0.0,0.0,0.0,0.0,0.0,0.0,0.0,0.0,0.0,0.0,0.0,0.0,0.0,0.0,0.0,0.0,0.0,0.0,0.0,0.0,0.0,0.0,0.0,0.0,0.0,0.0,0.0,0.0,0.0,0.0,0.0,0.0,0.0,0.0,0.0,0.0,0.0,0.0,0.0,0.0,0.0,0.0,0.0,0.0,0.0,0.0,0.0,0.0,0.0,0.0,0.0,0.0,0.0,0.0,0.0,0.0,0.0,0.0,0.0,0.0,0.0,0.0,-7.3064,-7.7417,-7.9129,-7.9169,-7.7631,-7.4706,-7.1423,0.0,0.0,0.0,0.0,0.0,0.0,0.0,0.0,0.0,0.0,0.0,0.0,0.0,0.0,0.0,0.0,0.0,0.0,0.0,0.0,0.0,0.0,0.0,0.0,0.0,0.0,0.0,0.0,0.0,0.0,0.0,0.0,0.0,0.0,0.0,0.0,0.0,0.0,0.0,0.0,0.0,0.0,0.0,0.0,0.0,0.0,0.0,0.0,0.0,0.0,0.0,0.0,0.0,0.0,0.0,0.0,0.0,0.0,0.0,0.0,0.0,0.0,0.0,0.0,0.0,0.0,0.0,0.0,0.0,0.0,0.0,0.0,0.0,0.0,0.0,0.0,0.0,0.0,0.0,0.0,0.0,0.0,0.0,0.0,0.0,0.0,0.0,0.0,0.0,0.0,0.0,0.0,0.0,0.0,0.0,0.0,0.0,0.0,0.0,0.0,0.0,0.0,0.0,0.0,0.0,0.0,0.0,0.0,0.0,-7.111,0.0,-7.5419,0.0,-7.2993,-6.9782,0.0,0.0,0.0,0.0,0.0,0.0,0.0,0.0,0.0,0.0,0.0,0.0,0.0,0.0,0.0,0.0,0.0,0.0,0.0,0.0,0.0,0.0,0.0,0.0,0.0,0.0,0.0,0.0,0.0,0.0,0.0,0.0,0.0,0.0,0.0,0.0,0.0,0.0,0.0,0.0,0.0,0.0,0.0,0.0,0.0,0.0,0.0,0.0,0.0,0.0,0.0,0.0,0.0,0.0,0.0,0.0,0.0,0.0,0.0,0.0,0.0,0.0,0.0,0.0,0.0,0.0,0.0,0.0,0.0,0.0,0.0,0.0,0.0,0.0,0.0,0.0,0.0,0.0,0.0,0.0,0.0,0.0,0.0,0.0,0.0,0.0,0.0,0.0,0.0,0.0,0.0,0.0,0.0,0.0,0.0,0.0,0.0,0.0,0.0,0.0,0.0,0.0,0.0,0.0,0.0,0.0,0.0,0.0,0.0,-6.8185,-7.071,-7.2494,-7.3421,-7.1637,-6.8997,0.0,0.0,0.0,0.0,0.0,0.0,0.0,0.0,0.0,0.0,0.0,0.0,0.0,0.0,0.0,0.0,0.0,0.0,0.0,0.0,0.0,0.0,0.0,0.0,0.0,0.0,0.0,0.0,0.0,0.0,0.0,0.0,0.0,0.0,0.0,0.0,0.0,0.0,0.0,0.0,0.0,0.0,0.0,0.0,0.0,0.0,0.0,0.0,0.0,0.0,0.0,0.0,0.0,0.0,0.0,0.0,0.0,0.0,0.0,0.0,0.0,0.0,0.0,0.0,0.0,0.0,0.0,0.0,0.0,0.0,0.0,0.0,0.0,0.0,0.0,0.0,0.0,0.0,0.0,0.0,0.0,0.0,0.0,0.0,0.0,0.0,0.0,0.0,0.0,0.0,0.0,0.0,0.0,0.0,0.0,0.0,0.0,0.0,0.0,0.0,0.0,0.0,0.0,0.0,0.0,0.0,0.0,0.0,0.0,-6.7971,-6.9541,-7.0496,-7.0496,-7.0424,-6.8997,0.0,0.0,0.0,0.0,0.0,0.0,0.0,0.0,0.0,0.0,0.0,0.0,0.0,0.0,0.0,0.0,0.0,0.0,0.0,0.0,0.0,0.0,0.0,0.0,0.0,0.0,0.0,0.0,0.0,0.0,0.0,0.0,0.0,0.0,0.0,0.0,0.0,0.0,0.0,0.0,0.0,0.0,0.0,0.0,0.0,0.0,0.0,0.0,0.0,0.0,0.0,0.0,0.0,0.0,0.0,0.0,0.0,0.0,0.0,0.0,0.0,0.0,0.0,0.0,0.0,0.0,0.0,0.0,0.0,0.0,0.0,0.0,0.0,0.0,0.0,0.0,0.0,0.0,0.0,0.0,0.0,0.0,0.0,0.0,0.0,0.0,0.0,0.0,0.0,0.0,0.0,0.0,0.0,0.0,0.0,0.0,0.0,0.0,0.0,0.0,0.0,0.0,0.0,0.0,0.0,0.0,0.0,0.0,0.0,0.0,-6.79,-6.8756,-6.8756,-6.8756,-6.7757,-6.5787,0.0,0.0,0.0,0.0,0.0,0.0,0.0,0.0,0.0,0.0,0.0,0.0,0.0,0.0,0.0,0.0,0.0,0.0,0.0,0.0,0.0,0.0,0.0,0.0,0.0,0.0,0.0,0.0,0.0,0.0,0.0,0.0,0.0,0.0,0.0,0.0,0.0,0.0,0.0,0.0,0.0,0.0,0.0,0.0,0.0,0.0,0.0,0.0,0.0,0.0,0.0,0.0,0.0,0.0,0.0,0.0,0.0,0.0,0.0,0.0,0.0,0.0,0.0,0.0,0.0,0.0,0.0,0.0,0.0,0.0,0.0,0.0,0.0,0.0,0.0,0.0,0.0,0.0,0.0,0.0,0.0,0.0,0.0,0.0,0.0,0.0,0.0,0.0,0.0,0.0,0.0,0.0,0.0,0.0,0.0,0.0,0.0,0.0,0.0,0.0,0.0,0.0,0.0,0.0,0.0,0.0,0.0,0.0,0.0,0.0,-6.7401,-6.8043,-6.7401,-6.6331,0.0,0.0,0.0,0.0,0.0,0.0,0.0,0.0,0.0,0.0,0.0,0.0,0.0,0.0,0.0,0.0,0.0,0.0,0.0,0.0,0.0,0.0,0.0,0.0,0.0,0.0,0.0,0.0,0.0,0.0,0.0,0.0,0.0,0.0,0.0,0.0,0.0,0.0,0.0,0.0,0.0,0.0,0.0,0.0,0.0,0.0,0.0,0.0,0.0,0.0,0.0,0.0,0.0,0.0,0.0,0.0,0.0,0.0,0.0,0.0,0.0,0.0,0.0,0.0,0.0,0.0,0.0,0.0,0.0,0.0,0.0,0.0,0.0,0.0,0.0,0.0,0.0,0.0,0.0,0.0,0.0,0.0,0.0,0.0,0.0,0.0,0.0,0.0,0.0,0.0,0.0,0.0,0.0,0.0,0.0,0.0,0.0,0.0,0.0,0.0,0.0,0.0,0.0,0.0,0.0,0.0,0.0,0.0,0.0,0.0,0.0,-6.6357,-6.773,-6.6402,0.0,-6.3183,0.0,0.0,0.0,0.0,0.0,0.0,0.0,0.0,0.0,0.0,0.0,0.0,0.0,0.0,0.0,0.0,0.0,0.0,0.0,0.0,0.0,0.0,0.0,0.0,0.0,0.0,0.0,0.0,0.0,0.0,0.0,0.0,0.0,0.0,0.0,0.0,0.0,0.0,0.0,0.0,0.0,0.0,0.0,0.0,0.0,0.0,0.0,0.0,0.0,0.0,0.0,0.0,0.0,0.0,0.0,0.0,0.0,0.0,0.0,0.0,0.0,0.0,0.0,0.0,0.0,0.0,0.0,0.0,0.0,0.0,0.0,0.0,0.0,0.0,0.0,0.0,0.0,0.0,0.0,0.0,0.0,0.0,0.0,0.0,0.0,0.0,0.0,0.0,0.0,0.0,0.0,0.0,0.0,0.0,0.0,0.0,0.0,0.0,0.0,0.0,0.0,0.0,0.0,0.0,0.0,0.0,0.0,0.0,0.0,0.0,0.0,0.0,-6.57,-6.4766,-6.3027,0.0,0.0,0.0,0.0,0.0,0.0,0.0,0.0,0.0,0.0,0.0,0.0,0.0,0.0,0.0,0.0,0.0,0.0,0.0,0.0,0.0,0.0,0.0,0.0,0.0,0.0,0.0,0.0,0.0,0.0,0.0,0.0,0.0,0.0,0.0,0.0,0.0,0.0,0.0,0.0,0.0,0.0,0.0,0.0,0.0,0.0,0.0,0.0,0.0,0.0,0.0,0.0,0.0,0.0,0.0,0.0,0.0,0.0,0.0,0.0,0.0,0.0,0.0,0.0,0.0,0.0,0.0,0.0,0.0,0.0,0.0,0.0,0.0,0.0,0.0,0.0,0.0,0.0,0.0,0.0,0.0,0.0,0.0,0.0,0.0,0.0,0.0,0.0,0.0,0.0,0.0,0.0,0.0,0.0,0.0,0.0,0.0,0.0,0.0,0.0,0.0,0.0,0.0,0.0,0.0,0.0,0.0,0.0,0.0,0.0,-6.5557,-6.5423,-6.5413,-6.4579,-6.294,0.0,0.0,0.0,0.0,0.0,0.0,0.0,0.0,0.0,0.0,0.0,0.0,0.0,0.0,0.0,0.0,0.0,0.0,0.0,0.0,0.0,0.0,0.0,0.0,0.0,0.0,0.0,0.0,0.0,0.0,0.0,0.0,0.0,0.0,0.0,0.0,0.0,0.0,0.0,0.0,0.0,0.0,0.0,0.0,0.0,0.0,0.0,0.0,0.0,0.0,0.0,0.0,0.0,0.0,0.0,0.0,0.0,0.0,0.0,0.0,0.0,0.0,0.0,0.0,0.0,0.0,0.0,0.0,0.0,0.0,0.0,0.0,0.0,0.0,0.0,0.0,0.0,0.0,0.0,0.0,0.0,0.0,0.0,0.0,0.0,0.0,0.0,0.0,0.0,0.0,0.0,0.0,0.0,0.0,0.0,0.0,0.0,0.0,0.0,0.0,0.0,0.0,0.0,0.0,0.0,0.0,0.0,0.0,0.0,0.0,0.0,0.0,0.0,0.0,-6.2415,0.0,0.0,0.0,0.0,0.0,0.0,0.0,0.0,0.0,0.0,0.0,0.0,0.0,0.0,0.0,0.0,0.0,0.0,0.0,0.0,0.0,0.0,0.0,0.0,0.0,0.0,0.0,0.0,0.0,0.0,0.0,0.0,0.0,0.0,0.0,0.0,0.0,0.0,0.0,0.0,0.0,0.0,0.0,0.0,0.0,0.0,0.0,0.0,0.0,0.0,0.0,0.0,0.0,0.0,0.0,0.0,0.0,0.0,0.0,0.0,0.0,0.0,0.0,0.0,0.0,0.0,0.0,0.0,0.0,0.0,0.0,0.0,0.0,0.0,0.0,0.0,0.0,0.0,0.0,0.0,0.0,0.0,0.0,0.0,0.0,0.0,0.0,0.0,0.0,0.0,0.0,0.0,0.0,0.0,0.0,0.0,0.0,0.0,0.0,0.0,0.0,0.0,0.0,0.0,0.0,0.0,0.0,0.0,0.0,0.0,0.0,0.0,0.0,0.0,0.0,0.0,0.0,0.0,0.0,0.0,0.0,0.0,0.0,0.0,0.0,0.0,0.0,0.0,0.0,0.0,0.0,0.0,0.0,0.0,0.0,0.0,0.0,0.0,0.0,0.0,0.0,0.0,0.0,0.0,0.0,0.0,0.0,0.0,0.0,0.0,0.0,0.0,0.0,0.0,0.0,0.0,0.0,0.0,0.0,0.0,0.0,0.0,0.0,0.0,0.0,0.0,0.0,0.0,0.0,0.0,0.0,0.0,0.0,0.0,0.0,0.0,0.0,0.0,0.0,0.0,0.0,0.0,0.0,0.0,0.0,0.0,0.0,0.0,0.0,0.0,0.0,0.0,0.0,0.0,0.0,0.0,0.0,0.0,0.0,0.0,0.0,0.0,0.0,0.0,0.0,0.0,0.0,0.0,0.0,0.0,0.0,0.0,0.0,0.0,0.0,0.0,0.0,0.0,0.0,0.0,0.0,0.0,0.0,0.0,0.0,0.0,0.0,0.0,0.0,0.0,0.0,0.0,0.0,0.0,0.0,0.0,0.0,0.0,0.0,0.0,0.0,0.0,0.0,0.0,0.0,0.0,0.0,0.0,0.0,0.0,0.0,0.0,0.0,0.0,0.0,0.0,0.0,0.0,0.0,0.0,0.0,0.0,0.0,0.0,0.0,0.0,0.0,0.0,0.0,0.0,0.0,0.0,0.0,0.0,0.0,0.0,0.0,0.0,0.0,0.0,0.0,0.0,0.0,0.0,0.0,0.0,0.0,0.0,0.0,0.0,0.0,0.0,0.0,0.0,0.0,0.0,0.0,0.0,0.0,0.0,0.0,0.0,0.0,0.0,0.0,0.0,0.0,0.0,0.0,0.0,0.0,0.0,0.0,0.0,0.0,0.0,0.0,0.0,0.0,0.0,0.0,0.0,0.0,0.0,0.0,0.0,0.0,0.0,0.0,0.0,0.0,0.0,0.0,0.0,0.0,0.0,0.0,0.0,0.0,0.0,0.0,0.0,0.0,0.0,0.0,0.0,0.0,0.0,0.0,0.0,0.0,0.0,0.0,0.0,0.0,0.0,0.0,0.0,0.0,0.0,0.0,0.0,0.0,0.0,0.0,0.0,0.0,0.0,0.0,0.0,0.0,0.0,0.0,0.0,0.0,0.0,0.0,0.0,0.0,0.0,0.0,0.0,0.0,0.0,0.0,0.0,0.0,0.0,0.0,0.0,0.0,0.0,0.0,0.0,0.0,0.0,0.0,0.0,0.0,0.0,0.0,0.0,0.0,0.0,0.0,0.0,0.0,0.0,0.0,0.0,0.0,0.0,0.0,0.0,0.0,0.0,0.0,0.0,0.0,0.0,0.0,0.0,0.0,0.0,0.0,0.0,0.0,0.0,0.0,0.0,0.0,0.0,0.0,0.0,0.0,0.0,0.0,0.0,0.0,0.0,0.0,0.0,0.0,0.0,0.0,0.0,0.0,0.0,0.0,0.0,0.0,0.0,0.0,0.0,0.0,0.0,0.0,0.0,0.0,0.0,0.0,0.0,0.0,0.0,0.0,0.0,0.0,0.0,0.0,0.0,0.0,0.0,0.0,0.0,0.0,0.0,0.0,0.0,0.0,0.0,0.0,0.0,0.0,0.0,0.0,0.0,0.0,0.0,0.0,0.0,0.0,0.0,0.0,0.0,0.0,0.0,0.0,0.0,0.0,0.0,0.0,0.0,0.0,0.0,0.0,0.0,0.0,0.0,0.0,0.0,0.0,0.0,0.0,0.0,0.0,0.0,0.0,0.0,0.0,0.0,0.0,0.0,0.0,0.0,0.0,0.0,0.0,0.0,0.0,0.0,0.0,0.0,0.0,0.0,0.0,0.0,0.0,0.0,0.0,0.0,0.0,0.0,0.0,0.0,0.0,0.0,0.0,0.0,0.0,0.0,0.0,0.0,0.0,0.0,0.0,0.0,0.0,0.0,0.0,0.0,0.0,0.0,0.0,0.0,0.0,0.0,0.0,0.0,0.0,0.0,0.0,0.0,0.0,0.0,0.0,0.0,0.0,0.0,0.0,0.0,0.0,0.0,0.0,0.0,0.0,0.0,0.0,0.0,0.0,0.0,0.0,0.0,0.0,0.0,0.0,0.0,0.0,0.0,0.0,0.0,0.0,0.0,0.0,0.0,0.0,0.0,0.0,0.0,0.0,0.0,0.0,0.0,0.0,0.0,0.0,0.0,0.0,0.0,0.0,0.0,0.0,0.0,0.0,0.0,0.0,0.0,0.0,0.0,0.0,0.0,0.0,0.0,0.0,0.0,0.0,0.0,0.0,0.0,0.0,0.0,0.0,0.0,0.0,0.0,0.0,0.0,0.0,0.0,0.0,0.0,0.0,0.0,0.0,0.0,0.0,0.0,0.0,0.0,0.0,0.0,0.0,0.0,0.0,0.0,0.0,0.0,0.0,0.0,0.0,0.0,0.0,0.0,0.0,0.0,0.0,0.0,0.0,0.0,0.0,0.0,0.0,0.0,0.0,0.0,0.0,0.0,0.0,0.0,0.0,0.0,0.0,0.0,0.0,0.0,0.0,0.0,0.0,0.0,0.0,0.0,0.0,0.0,0.0,0.0,0.0,0.0,0.0,0.0,0.0,0.0,0.0,0.0,0.0,0.0,0.0,0.0,0.0,0.0,0.0,0.0,0.0,0.0,0.0,0.0,0.0,0.0,0.0,0.0,0.0,0.0,0.0,0.0,0.0,0.0,0.0,0.0,0.0,0.0,0.0,0.0,0.0,0.0,0.0,0.0,0.0,0.0,0.0,0.0,0.0,0.0,0.0,0.0,0.0,0.0,0.0,0.0,0.0,0.0,0.0,0.0,0.0,0.0,0.0,0.0,0.0,0.0,0.0,0.0,0.0,0.0,0.0,0.0,0.0,0.0,0.0,0.0,0.0,0.0,0.0,0.0,0.0,0.0,0.0,0.0,0.0,0.0,0.0,0.0,0.0,0.0,0.0,0.0,0.0,0.0,0.0,0.0,0.0,0.0,0.0,0.0,0.0,0.0,0.0,0.0,0.0,0.0,0.0,0.0,0.0,0.0,0.0,0.0,0.0,0.0,0.0,0.0,0.0,0.0,0.0,0.0,0.0,0.0,0.0,0.0,0.0,0.0,0.0,0.0,0.0,0.0,0.0,0.0,0.0,0.0,0.0,0.0,0.0,0.0,0.0,0.0,0.0,0.0,0.0,0.0,0.0,0.0,0.0,0.0,0.0,0.0,0.0,0.0,0.0,0.0,0.0,0.0,0.0,0.0,0.0,0.0,0.0,0.0,0.0,0.0,0.0,0.0,0.0,0.0,0.0,0.0,0.0,0.0,0.0,0.0,0.0,0.0,0.0,0.0,0.0,0.0,0.0,0.0,0.0,0.0,0.0,0.0,0.0,0.0,0.0,0.0,0.0,0.0,0.0,0.0,0.0,0.0,0.0,0.0,0.0,0.0,0.0,0.0,0.0,0.0,0.0,0.0,0.0,0.0,0.0,0.0,0.0,0.0,0.0,0.0,0.0,0.0,0.0,0.0,0.0,0.0,0.0,0.0,0.0,0.0,0.0,0.0,0.0,0.0,0.0,0.0,0.0,0.0,0.0,0.0,0.0,0.0,0.0,0.0,0.0,0.0,0.0,0.0,0.0,0.0,0.0,0.0,0.0,0.0,0.0,0.0,0.0,0.0,0.0,0.0,0.0,0.0,0.0,0.0,0.0,0.0,0.0,0.0,0.0,0.0,0.0,0.0,0.0,0.0,0.0,0.0,0.0,0.0,0.0,0.0,0.0,0.0,0.0,0.0,0.0,0.0,0.0,0.0,0.0,0.0,0.0,0.0,0.0,0.0]}],[{"header":{"parameterUnit":"kt","parameterCategory":2,"dx":1,"dy":1,"la1":29.587661999999998,"la2":31.0,"lo1":-88.76705300000003,"lo2":-86.6583820000003,"nx":115,"ny":88,"refTime":"2022-10-24T06:00:00:Z","depth":0,"parameterNumber":2,"parameterNumberName":"V-component_of_WINDS"},"data":[-3.0999,-3.1262,-3.1262,-3.1262,-3.1262,-3.1262,-3.1262,-3.1262,-3.1262,-3.1262,-3.1262,-3.1262,-3.1262,-3.1262,-3.1262,-3.1276,-3.1161,-3.0499,-2.884,-2.6762,-2.4402,-2.0487,-1.6101,-1.2088,-0.7043,-0.3419,-0.0201,0.2415,0.4228,0.6856,1.0323,1.4655,1.8106,2.1417,2.4211,2.5628,2.6368,2.6453,2.6917,2.6774,2.6598,2.6606,2.7022,2.7958,2.912,3.0089,3.1056,3.1262,3.1262,3.1262,3.1262,3.1262,3.1262,3.1262,3.1262,3.1262,3.1262,3.1262,3.1262,3.1262,3.1262,3.1262,3.1236,3.1131,3.088,3.0603,3.1547,3.2949,3.4702,3.7292,4.068,4.4539,4.842,5.2313,5.515,5.6751,5.7973,5.8199,5.8407,5.8926,5.9471,6.0017,6.0536,6.1056,6.1523,6.1575,6.1575,6.1575,6.1575,6.1575,6.1575,6.1575,6.1575,6.1575,6.1575,6.1575,6.1575,6.1575,6.1575,6.1575,6.1575,6.1575,6.1575,6.1575,6.1575,6.1575,6.1575,6.1575,6.1575,6.1575,6.1575,6.1263,6.0354,5.9679,5.9238,-3.0986,-3.1236,-3.1262,-3.1262,-3.1262,-3.1262,-3.1262,-3.1262,-3.1262,-3.1262,-3.1262,-3.1262,-3.1262,-3.1262,-3.1262,-3.1262,-3.0902,-2.9996,-2.8561,-2.6499,-2.3431,-1.9327,-1.5378,-1.1589,-0.758,-0.3788,-0.0399,0.2392,0.5183,0.8209,1.1652,1.5914,1.935,2.278,2.4403,2.5827,2.6851,2.6563,2.6067,2.5895,2.5538,2.5573,2.6644,2.757,2.8527,2.9508,3.0669,3.1262,3.1262,3.1262,3.1262,3.1262,3.1262,3.1262,3.1262,3.1262,3.1262,3.1262,3.1262,3.1262,3.1262,3.1262,3.1262,3.1144,3.092,3.1115,3.1752,3.3179,3.4715,3.7224,4.0734,4.4519,4.842,5.196,5.4272,5.6226,5.7275,5.8147,5.8536,5.8978,5.9523,6.0095,6.0614,6.1185,6.1471,6.1549,6.1575,6.1575,6.1575,6.1575,6.1575,6.1575,6.1575,6.1575,6.1575,6.1575,6.1575,6.1575,6.1575,6.1575,6.1575,6.1575,6.1575,6.1575,6.1575,6.1575,6.1575,6.1575,6.1575,6.1575,6.1471,6.1237,6.038,5.9705,5.9212,-3.084,-3.1236,-3.1262,-3.1262,-3.1262,-3.1262,-3.1262,-3.1262,-3.1262,-3.1262,-3.1262,-3.1262,-3.1262,-3.1262,-3.1262,-3.1262,-3.1056,-2.9701,-2.7846,-2.5357,-2.2061,-1.8197,-1.4041,-0.9683,-0.6718,-0.3951,-0.0593,0.2569,0.5923,0.9327,1.355,1.7775,2.177,2.481,2.6153,2.7129,2.7694,2.6335,2.5874,2.5538,2.5378,2.5509,2.6222,2.757,2.8527,2.9508,3.0476,3.1262,3.1262,3.1262,3.1262,3.1262,3.1262,3.1262,3.1262,3.1262,3.1262,3.1262,3.1262,3.1262,3.1262,3.1262,3.1262,3.1262,3.1025,3.119,3.1835,3.3424,3.4974,3.7405,4.0952,4.4559,4.842,5.1607,5.4097,5.6051,5.7449,5.8251,5.8614,5.9082,5.9601,6.0199,6.0926,6.1471,6.1497,6.1575,6.1575,6.1575,6.1575,6.1575,6.1575,6.1575,6.1575,6.1575,6.1575,6.1575,6.1575,6.1575,6.1575,6.1575,6.1575,6.1575,6.1575,6.1575,6.1575,6.1575,6.1575,6.1575,6.1575,6.1549,6.1393,6.1159,6.051,5.9783,5.916,-3.0735,-3.1249,-3.1262,-3.1262,-3.1262,-3.1262,-3.1262,-3.1262,-3.1262,-3.1262,-3.1262,-3.1262,-3.1262,-3.1262,-3.1262,-3.1262,-3.0863,-2.9314,-2.717,-2.4462,-2.0966,-1.7096,-1.2754,-0.8845,-0.55,-0.2944,-0.0589,0.2358,0.6092,1.1,1.5548,1.997,2.353,2.5745,2.6884,2.7872,2.7617,2.6106,2.5659,2.5204,2.5293,2.5455,2.6211,2.757,2.8721,2.9701,3.0669,3.1262,3.1262,3.1262,3.1262,3.1262,3.1262,3.1262,3.1262,3.1262,3.1262,3.1262,3.1262,3.1262,3.1262,3.1262,3.1262,3.1262,3.1262,3.1262,3.2079,3.3669,3.5593,3.8224,4.1187,4.4778,4.8242,5.1254,5.4272,5.6051,5.7973,5.8407,5.8718,5.9186,5.9705,6.0406,6.1211,6.1549,6.1575,6.1575,6.1575,6.1575,6.1575,6.1575,6.1575,6.1575,6.1575,6.1575,6.1575,6.1575,6.1575,6.1575,6.1575,6.1575,6.1575,6.1575,6.1575,6.1575,6.1575,6.1575,6.1575,6.1575,6.1549,6.1523,6.1341,6.0848,6.025,5.9653,5.9004,-3.0748,-3.1262,-3.1262,-3.1262,-3.1262,-3.1262,-3.1262,-3.1262,-3.1262,-3.1262,-3.1262,-3.1262,-3.1262,-3.1262,-3.1262,-3.1262,-3.0669,-2.912,-2.6976,-2.484,-2.0744,-1.6648,-1.2543,-0.8434,-0.5299,-0.2748,-0.0196,0.2552,0.6278,1.1569,1.7053,2.1736,2.4882,2.6505,2.717,2.7951,2.7744,2.6505,2.591,2.5704,2.565,2.6211,2.6988,2.8151,2.912,3.0089,3.1056,3.1262,3.1262,3.1262,3.1262,3.1262,3.1262,3.1262,3.1262,3.1262,3.1262,3.1262,3.1262,3.1262,3.1262,3.1262,3.1262,3.1262,3.1262,3.1262,3.2326,3.377,3.5467,3.7903,4.126,4.4877,4.8329,5.1607,5.4097,5.6051,5.7624,5.8251,5.8588,5.9056,5.9601,6.0328,6.1107,6.1575,6.1575,6.1575,6.1575,6.1575,6.1575,6.1575,6.1575,6.1575,6.1575,6.1575,6.1575,6.1575,6.1575,6.1575,6.1575,6.1575,6.1575,6.1575,6.1575,6.1575,6.1575,6.1575,6.1575,6.1575,6.1549,6.1471,6.1159,6.0588,5.9991,5.9393,5.8822,-3.0893,-3.1236,-3.1262,-3.1262,-3.1262,-3.1262,-3.1262,-3.1262,-3.1262,-3.1262,-3.1262,-3.1262,-3.1262,-3.1262,-3.1262,-3.1262,-3.1069,-2.9108,-2.6976,-2.4441,-2.0744,-1.6648,-1.2543,-0.8434,-0.5299,-0.2748,-0.0196,0.2748,0.6082,1.1956,1.8014,2.1913,2.5024,2.6588,2.757,2.7958,2.7558,2.7182,2.6793,2.6988,2.7182,2.7364,2.8151,2.8927,2.9314,3.0282,3.1069,3.1262,3.1262,3.1262,3.1262,3.1262,3.1262,3.1262,3.1262,3.1262,3.1262,3.1262,3.1262,3.1262,3.1262,3.1262,3.1262,3.1262,3.1262,3.1443,3.2491,3.3842,3.5528,3.775,4.1296,4.4977,4.848,5.2137,5.4072,5.6051,5.71,5.7973,5.8459,5.89,5.9497,6.0199,6.0796,6.1289,6.1575,6.1575,6.1575,6.1575,6.1575,6.1575,6.1575,6.1575,6.1575,6.1575,6.1575,6.1575,6.1575,6.1575,6.1575,6.1575,6.1575,6.1575,6.1575,6.1575,6.1575,6.1575,6.1575,6.1575,6.1549,6.1367,6.1107,6.0536,5.9939,5.9238,5.8614,-3.0986,-3.1249,-3.1262,-3.1262,-3.1262,-3.1262,-3.1262,-3.1262,-3.1262,-3.1262,-3.1262,-3.1262,-3.1262,-3.1262,-3.1262,-3.1262,-3.0476,-2.912,-2.6976,-2.4247,-2.0744,-1.6648,-1.2347,-0.8434,-0.5496,-0.2552,0.0196,0.3337,0.6278,1.1173,1.7038,2.2302,2.5801,2.7558,2.8333,2.8527,2.8733,2.8539,2.8151,2.7946,2.7946,2.8333,2.8915,2.9508,3.0089,3.0488,3.1069,3.1262,3.1262,3.1262,3.1262,3.1262,3.1262,3.1262,3.1262,3.1262,3.1262,3.1262,3.1262,3.1262,3.1262,3.1262,3.1262,3.1262,3.1262,3.1636,3.2161,3.3799,3.5528,3.7952,4.1278,4.4917,4.8528,5.1607,5.4097,5.6051,5.7449,5.8147,5.8173,5.8614,5.9082,5.9809,6.0692,6.1185,6.1575,6.1575,6.1575,6.1575,6.1575,6.1575,6.1575,6.1575,6.1575,6.1575,6.1575,6.1575,6.1575,6.1575,6.1575,6.1575,6.1575,6.1575,6.1575,6.1575,6.1575,6.1575,6.1575,6.1575,6.1575,6.1367,6.0952,6.0432,5.9835,5.8926,5.8225,-3.0986,-3.1236,-3.1262,-3.1262,-3.1262,-3.1262,-3.1262,-3.1262,-3.1262,-3.1262,-3.1262,-3.1262,-3.1262,-3.1262,-3.1262,-3.1262,-3.0682,-2.8915,-2.6782,-2.4053,-2.0202,-1.6264,-1.2156,-0.8049,-0.4913,-0.2161,0.0982,0.4318,0.667,1.1765,1.7819,2.3265,2.6577,2.8527,2.9314,2.9701,2.9701,2.9508,2.912,2.8927,2.8927,2.9314,2.9701,3.0089,3.0476,3.1069,3.1262,3.1262,3.1262,3.1262,3.1262,3.1262,3.1262,3.1262,3.1262,3.1262,3.1262,3.1262,3.1262,3.1262,3.1262,3.1262,3.1262,3.1262,3.1443,3.1596,3.2436,3.3903,3.5984,3.8628,4.1626,4.5218,4.8775,5.1607,5.4272,5.6026,5.7624,5.8147,5.8147,5.8381,5.8848,5.9601,6.051,6.1133,6.1575,6.1575,6.1575,6.1575,6.1575,6.1575,6.1575,6.1575,6.1575,6.1575,6.1575,6.1575,6.1575,6.1575,6.1575,6.1575,6.1575,6.1575,6.1575,6.1575,6.1575,6.1575,6.1575,6.1575,6.1575,6.1107,6.0666,6.0199,5.9913,5.8952,5.8147,-3.117,-3.1262,-3.1262,-3.1262,-3.1262,-3.1262,-3.1262,-3.1262,-3.1262,-3.1262,-3.1262,-3.1262,-3.1262,-3.1262,-3.1262,-3.1069,-3.0089,-2.814,-2.6006,-2.271,-1.871,-1.4775,-1.0831,-0.6904,-0.4143,-0.0786,0.2356,0.5493,0.8238,1.2548,1.7624,2.2876,2.7159,2.9108,3.0282,3.0669,3.0669,3.0476,3.0282,3.0089,3.0089,3.0282,3.0682,3.0863,3.1082,3.1262,3.1262,3.1262,3.1262,3.1262,3.1262,3.1262,3.1262,3.1262,3.1262,3.1262,3.1262,3.1262,3.1262,3.1262,3.1262,3.1262,3.1262,3.1262,3.1429,3.1681,3.2845,3.4675,3.6683,3.9732,4.3137,4.6754,5.0061,5.2665,5.4974,5.6576,5.7798,5.8147,5.8147,5.8303,5.8744,5.9627,6.0484,6.1004,6.1549,6.1575,6.1575,6.1575,6.1575,6.1575,6.1575,6.1575,6.1575,6.1575,6.1575,6.1575,6.1575,6.1575,6.1575,6.1575,6.1575,6.1575,6.1575,6.1575,6.1575,6.1575,6.1575,6.1575,6.1575,6.1211,6.0536,6.0121,5.9887,5.9108,5.8225,-3.1262,-3.1262,-3.1262,-3.1262,-3.1262,-3.1262,-3.1262,-3.1262,-3.1262,-3.1262,-3.1262,-3.1262,-3.1262,-3.1262,-3.1262,-3.0682,-2.9508,-2.7558,-2.4924,-2.1828,-1.781,-1.3466,-0.9716,-0.6355,-0.3172,0.0,0.3142,0.6278,0.9418,1.3331,1.7819,2.1913,2.6189,2.9302,3.0863,3.1262,3.1262,3.1262,3.1262,3.1262,3.1262,3.1262,3.1262,3.1262,3.1381,3.1368,3.1276,3.1407,3.1368,3.1276,3.1262,3.1262,3.1262,3.1262,3.1262,3.1262,3.1262,3.1262,3.1262,3.1262,3.1262,3.1262,3.1456,3.1456,3.1802,3.2135,3.3451,3.5309,3.7281,4.0255,4.4072,4.768,5.0969,5.3569,5.55,5.7075,5.7798,5.7973,5.8225,5.8381,5.8666,5.9497,6.0276,6.0848,6.1393,6.1575,6.1575,6.1575,6.1575,6.1575,6.1575,6.1575,6.1575,6.1575,6.1575,6.1575,6.1575,6.1575,6.1575,6.1575,6.1575,6.1575,6.1575,6.1575,6.1575,6.1575,6.1575,6.1575,6.1575,6.1263,6.0458,5.9913,5.9705,5.9108,5.8329,-3.1262,-3.1262,-3.1262,-3.1262,-3.1262,-3.1262,-3.1262,-3.1262,-3.1262,-3.1262,-3.1262,-3.1262,-3.1262,-3.1262,-3.1056,-3.0282,-2.8915,-2.6976,-2.4154,-2.0578,-1.6313,-1.3002,-0.9213,-0.5805,-0.2398,0.0199,0.3359,0.6687,0.9823,1.4321,1.8209,2.2302,2.5812,2.8527,3.1056,3.1262,3.1262,3.1262,3.1262,3.1289,3.1315,3.1342,3.1381,3.1447,3.1605,3.1605,3.1539,3.1618,3.1566,3.1407,3.1355,3.1302,3.1276,3.1262,3.1262,3.1262,3.1262,3.1262,3.1262,3.1262,3.1262,3.1262,3.1262,3.1636,3.2354,3.2859,3.3714,3.6671,3.8593,4.0934,4.4139,4.7709,5.11,5.3921,5.5851,5.7249,5.7798,5.8147,5.8303,5.8484,5.8822,5.9316,6.0069,6.0744,6.1315,6.1575,6.1575,6.1575,6.1575,6.1575,6.1575,6.1575,6.1575,6.1575,6.1575,6.1575,6.1575,6.1575,6.1575,6.1575,6.1575,6.1575,6.1575,6.1575,6.1575,6.1575,6.1575,6.1575,6.1575,6.1471,6.0562,5.9965,5.9549,5.9108,5.8484,-3.1262,-3.1262,-3.1262,-3.1262,-3.1262,-3.1262,-3.1262,-3.1262,-3.1262,-3.1262,-3.1262,-3.1262,-3.1262,-3.1056,-3.0669,-2.9314,-2.7364,-2.4851,-2.1268,-1.7657,-1.3789,-0.9649,-0.6455,-0.3838,-0.1211,0.2207,0.4979,0.7916,1.1469,1.5913,1.9812,2.3509,2.6588,2.8757,3.0902,3.1262,3.1262,3.1262,3.1276,3.1328,3.1552,3.1579,3.1618,3.1829,3.1922,3.1895,3.1869,3.1882,3.1843,3.1671,3.1526,3.1447,3.1342,3.1262,3.1262,3.1262,3.1262,3.1262,3.1262,3.1262,3.1262,3.1262,3.1262,3.2022,3.2848,3.364,3.5233,3.7969,4.075,4.3921,4.7595,5.0193,5.3193,5.4799,5.6725,5.7598,5.7973,5.8147,5.8329,5.864,5.9238,5.9783,6.0458,6.1004,6.1419,6.1575,6.1575,6.1575,6.1575,6.1575,6.1575,6.1575,6.1575,6.1575,6.1575,6.1575,6.1575,6.1575,6.1575,6.1575,6.1575,6.1575,6.1575,6.1575,6.1575,6.1575,6.1575,6.1575,6.1575,6.1575,6.1159,6.064,6.0095,5.903,5.8459,-3.1262,-3.1262,-3.1262,-3.1262,-3.1262,-3.1262,-3.1262,-3.1262,-3.1262,-3.1262,-3.1262,-3.1262,-3.1262,-3.1069,-3.0089,-2.8527,-2.6394,-2.3469,-1.9699,-1.5698,-1.1637,-0.7876,-0.5073,-0.2647,0.0,0.3039,0.5425,0.8391,1.2733,1.6605,2.1089,2.4689,2.7318,2.9428,3.0993,3.1645,3.1632,3.1618,3.1632,3.1658,3.1843,3.1882,3.1948,3.2133,3.2185,3.2238,3.2159,3.2225,3.2106,3.1922,3.175,3.1618,3.1487,3.1328,3.1276,3.1262,3.1262,3.1262,3.1262,3.1262,3.1262,3.1456,3.1636,3.2354,3.3311,3.463,3.6762,3.9381,4.2022,4.5116,4.8974,5.216,5.4624,5.6376,5.7249,5.7798,5.8147,5.8147,5.8329,5.8822,5.9471,6.0147,6.0692,6.1211,6.1419,6.1575,6.1575,6.1575,6.1575,6.1575,6.1575,6.1575,6.1575,6.1575,6.1575,6.1575,6.1575,6.1575,6.1575,6.1575,6.1575,6.1575,6.1575,6.1575,6.1575,6.1575,6.1575,6.1575,6.1575,6.1575,6.1393,6.1056,6.0069,5.8952,5.8484,-3.1262,-3.1262,-3.1262,-3.1262,-3.1262,-3.1262,-3.1262,-3.1262,-3.1262,-3.1262,-3.1262,-3.1262,-3.1262,-3.0876,-2.9701,-2.7946,-2.5995,-2.2886,-1.8906,-1.4905,-1.1232,-0.728,-0.4684,-0.2247,0.0204,0.3268,0.5474,0.8641,1.2776,1.6964,2.1399,2.5301,2.7801,2.987,3.1458,3.1961,3.1974,3.1974,3.1974,3.204,3.2119,3.2146,3.2185,3.2264,3.2423,3.2475,3.2225,3.2449,3.2449,3.2159,3.1935,3.1737,3.1605,3.1394,3.1262,3.1262,3.1262,3.1262,3.1262,3.1262,3.1262,3.1636,3.2009,3.2698,3.4062,3.5528,3.7985,4.0889,4.4248,4.6933,4.9995,5.2383,5.5248,5.6801,5.7598,5.8147,5.8147,5.8173,5.8588,5.903,5.9627,6.0302,6.0874,6.1289,6.1523,6.1575,6.1575,6.1575,6.1575,6.1575,6.1575,6.1575,6.1575,6.1575,6.1575,6.1575,6.1575,6.1575,6.1575,6.1575,6.1575,6.1575,6.1575,6.1575,6.1575,6.1575,6.1575,6.1575,6.1575,6.1575,6.1341,6.0926,6.0095,5.9341,5.8848,-3.1262,-3.1262,-3.1262,-3.1262,-3.1262,-3.1262,-3.1262,-3.1262,-3.1262,-3.1262,-3.1262,-3.1262,-3.0876,-2.9895,-2.814,-2.5995,-2.308,-1.899,-1.5574,-1.1899,-0.8188,-0.5438,-0.3454,-0.1432,0.082,0.3302,0.5512,0.8733,1.2966,1.721,2.1392,2.5532,2.8019,2.9981,3.1536,3.2172,3.2199,3.2199,3.2185,3.2278,3.241,3.2449,3.2568,3.2726,3.2845,3.2858,3.2805,3.2858,3.2739,3.2462,3.2172,3.1935,3.175,3.15,3.1315,3.1302,3.1262,3.1262,3.1262,3.1262,3.1262,3.1456,3.1816,3.2753,3.4915,3.7716,4.0224,4.3584,4.6874,4.9986,5.3014,5.5185,5.6602,5.7454,5.7998,5.7973,5.8199,5.8536,5.8952,5.9471,6.0043,6.064,6.103,6.1393,6.1549,6.1549,6.1575,6.1575,6.1575,6.1575,6.1575,6.1575,6.1575,6.1575,6.1575,6.1575,6.1575,6.1575,6.1575,6.1575,6.1575,6.1575,6.1575,6.1575,6.1575,6.1575,6.1575,6.1575,6.1575,6.1497,6.1367,6.0848,6.0328,5.9913,5.9341,-3.1144,-3.1262,-3.1262,-3.1262,-3.1262,-3.1262,-3.1262,-3.1262,-3.1262,-3.1262,-3.1262,-3.1262,-3.0669,-2.9314,-2.6976,-2.4441,-2.1523,-1.7827,-1.3965,-1.0271,-0.6754,-0.4002,-0.2424,-0.0812,0.1226,0.3281,0.5737,0.878,1.3067,1.7337,2.1638,2.5624,2.8271,3.0452,3.2366,3.2515,3.2489,3.2489,3.2502,3.2594,3.2713,3.2766,3.2831,3.299,3.299,3.299,3.2976,3.3003,3.2911,3.2766,3.2475,3.2225,3.2027,3.1698,3.1447,3.1434,3.1342,3.1262,3.1262,3.1262,3.1262,3.1262,3.1456,3.2615,3.5241,3.8415,4.1918,4.5467,4.9061,5.2107,5.4538,5.6443,5.7586,5.8211,5.8329,5.8355,5.8562,5.8926,5.9367,5.9939,6.051,6.09,6.1289,6.1497,6.1549,6.1575,6.1575,6.1575,6.1575,6.1575,6.1575,6.1575,6.1575,6.1575,6.1575,6.1575,6.1575,6.1575,6.1575,6.1575,6.1575,6.1575,6.1575,6.1575,6.1575,6.1575,6.1575,6.1549,6.1549,6.1445,6.1367,6.0744,6.0121,5.9757,5.9566,-3.0999,-3.1262,-3.1262,-3.1262,-3.1262,-3.1262,-3.1262,-3.1262,-3.1262,-3.1262,-3.1262,-3.1069,-3.0476,-2.8927,-2.6405,-2.3674,-2.0355,-1.6459,-1.2553,-0.8849,-0.5735,-0.3379,-0.1596,-0.0402,0.1215,0.326,0.5505,0.8973,1.3843,1.8113,2.2247,2.6015,2.8658,3.086,3.2563,3.2831,3.3003,3.299,3.2976,3.2976,3.2976,3.2976,3.2976,3.3003,3.3003,3.3003,3.3003,3.3003,3.3003,3.2937,3.27,3.2568,3.2261,3.2014,3.1777,3.1854,3.1668,3.1456,3.1649,3.1456,3.1262,3.1262,3.1262,3.2422,3.4871,3.8083,4.1802,4.5066,4.9514,5.3155,5.5559,5.7173,5.8171,5.865,5.8822,5.8848,5.903,5.9471,5.9861,6.038,6.0822,6.1211,6.1471,6.1523,6.1575,6.1575,6.1575,6.1575,6.1575,6.1575,6.1575,6.1575,6.1575,6.1575,6.1575,6.1575,6.1575,6.1575,6.1575,6.1575,6.1575,6.1575,6.1575,6.1575,6.1575,6.1575,6.1575,6.1549,6.1523,6.1551,6.1474,6.0925,6.0118,5.9775,5.9632,-3.0999,-3.1262,-3.1262,-3.1262,-3.1262,-3.1262,-3.1262,-3.1262,-3.1262,-3.1262,-3.1262,-3.0282,-2.9508,-2.814,-2.5628,-2.1931,-1.685,-1.3722,-1.0198,-0.6872,-0.4528,-0.2769,-0.159,-0.0399,0.1203,0.3636,0.5658,0.9498,1.4945,1.9575,2.3419,2.6749,2.9529,3.1422,3.2308,3.2858,3.299,3.3003,3.3003,3.3003,3.3003,3.3003,3.3003,3.3003,3.3003,3.3003,3.3003,3.3003,3.3003,3.2924,3.2766,3.2568,3.2475,3.2014,3.2603,3.3881,3.328,3.2657,3.2408,3.1829,3.1456,3.1262,3.1262,3.2422,3.4501,3.732,4.1037,4.7639,5.2051,5.5231,5.6893,5.8905,5.9734,5.9809,5.9575,5.9549,5.9731,5.9991,6.0354,6.0718,6.1133,6.1393,6.1497,6.1575,6.1575,6.1575,6.1575,6.1575,6.1575,6.1575,6.1575,6.1575,6.1575,6.1575,6.1575,6.1575,6.1575,6.1575,6.1575,6.1575,6.1575,6.1575,6.1575,6.1575,6.1575,6.1575,6.1575,6.1549,6.1341,6.1291,6.1577,6.1258,6.0698,6.0267,5.9895,-3.0788,-3.1051,-3.121,-3.1262,-3.1262,-3.1262,-3.1262,-3.1262,-3.0876,-3.0476,-3.0089,-2.8927,-2.7364,-2.5801,-2.4257,-2.016,-1.4889,-1.0981,-0.7843,-0.5101,-0.3141,-0.1773,-0.0791,0.0395,0.1989,0.4193,0.6783,1.0755,1.6002,2.0386,2.3845,2.6919,2.9454,3.1142,3.2209,3.2634,3.2752,3.2831,3.2924,3.3003,3.3003,3.3003,3.3003,3.3003,3.3003,3.3003,3.3003,3.3003,3.3003,3.3167,3.3264,3.34,3.3629,3.3702,3.4148,3.474,3.431,3.3373,3.2781,3.2408,3.1829,3.1443,3.1262,3.2215,3.4145,3.6439,4.0048,4.6138,5.1234,5.6213,5.7984,5.9544,6.0406,6.0276,5.9991,5.9991,6.0224,6.051,6.0796,6.1107,6.1341,6.1471,6.1575,6.1575,6.1575,6.1575,6.1575,6.1575,6.1575,6.1575,6.1575,6.1575,6.1575,6.1575,6.1575,6.1575,6.1575,6.1575,6.1575,6.1575,6.1575,6.1575,6.1575,6.1575,6.1575,6.1575,6.1549,6.1471,6.1159,6.0874,6.1156,6.1374,6.1036,6.0677,6.0207,-3.0524,-3.084,-3.1078,-3.121,-3.1249,-3.1262,-3.1262,-3.0876,-3.0089,-2.9701,-2.8915,-2.6976,-2.483,-2.2886,-2.1523,-1.7624,-1.2543,-0.8823,-0.5687,-0.3139,-0.2159,-0.1178,-0.0197,0.0984,0.2761,0.5337,0.8484,1.2223,1.6626,2.0595,2.4605,2.7359,2.9635,3.1062,3.1934,3.2317,3.2489,3.2515,3.2739,3.2871,3.2911,3.295,3.3003,3.3003,3.3003,3.3003,3.3003,3.2963,3.3141,3.3344,3.4145,3.4497,3.5082,3.5453,3.5785,3.5849,3.5225,3.4145,3.3373,3.2974,3.2215,3.1636,3.1262,3.2215,3.4145,3.6439,3.9491,4.445,5.0126,5.5563,5.8168,6.0058,6.0691,6.077,6.0562,6.0432,6.0744,6.0926,6.1081,6.1367,6.1471,6.1575,6.1575,6.1575,6.1575,6.1575,6.1575,6.1575,6.1575,6.1575,6.1575,6.1575,6.1575,6.1575,6.1575,6.1575,6.1575,6.1575,6.1575,6.1575,6.1575,6.1575,6.1575,6.1575,6.1575,6.1549,6.1471,6.1393,6.103,6.0639,6.0862,6.1099,6.1446,6.1628,6.0981,-3.0326,-3.0827,-3.0867,-3.1038,-3.1236,-3.1262,-3.0876,-3.0089,-2.9701,-2.8527,-2.6976,-2.483,-2.2107,-1.9575,-1.7624,-1.4107,-0.9998,-0.6667,-0.412,-0.1963,-0.157,-0.0785,0.0,0.1374,0.3146,0.6288,1.0006,1.4113,1.8256,2.2554,2.5552,2.7916,3.0261,3.1357,3.1829,3.2027,3.2185,3.2225,3.2475,3.262,3.2647,3.2858,3.2937,3.2937,3.2924,3.2911,3.2871,3.2752,3.3024,3.3817,3.4032,3.5098,3.6234,3.7058,3.7609,3.7414,3.6314,3.533,3.4337,3.3373,3.2408,3.1456,3.1262,3.2422,3.4337,3.6439,3.9699,4.3689,4.824,5.3342,5.8007,6.0262,6.1209,6.1367,6.1341,6.1341,6.1419,6.1445,6.1393,6.1575,6.1575,6.1575,6.1575,6.1575,6.1575,6.1575,6.1575,6.1575,6.1575,6.1575,6.1575,6.1575,6.1575,6.1575,6.1575,6.1575,6.1575,6.1575,6.1575,6.1575,6.1575,6.1575,6.1575,6.1575,6.1549,6.1497,6.1445,6.1211,6.09,6.0429,6.0441,6.0726,6.1498,6.2247,6.1618,-3.0208,-3.0603,-3.0761,-3.0986,-3.1236,-3.1262,-3.0682,-2.9701,-2.8733,-2.6976,-2.4636,-2.1523,-1.8795,-1.6257,-1.3521,-1.0781,-0.765,-0.4905,-0.2747,0.0,0.0,0.0,0.0196,0.1767,0.3729,0.6474,1.059,1.4694,1.899,2.2886,2.6189,2.8163,3.0423,3.1473,3.1513,3.175,3.1882,3.1948,3.2172,3.2317,3.237,3.2607,3.2726,3.2568,3.2528,3.2541,3.2555,3.2396,3.2944,3.3888,3.4756,3.5967,3.7177,3.7836,3.8147,3.8472,3.7427,3.6293,3.5315,3.4145,3.2988,3.1456,3.1829,3.3181,3.5108,3.7607,4.0847,4.4659,4.8827,5.3342,5.8564,6.0811,6.139,6.1575,6.1549,6.1549,6.1549,6.1575,6.1575,6.1575,6.1575,6.1575,6.1575,6.1575,6.1575,6.1575,6.1575,6.1575,6.1575,6.1575,6.1575,6.1575,6.1575,6.1575,6.1575,6.1575,6.1575,6.1575,6.1575,6.1575,6.1575,6.1575,6.1575,6.1549,6.1549,6.1497,6.1211,6.09,6.051,6.0167,6.0098,6.0353,6.085,6.1528,6.1245,-3.0036,-3.0326,-3.0616,-3.0893,-3.1144,-3.1043,-3.0282,-2.912,-2.717,-2.5035,-2.2302,-1.8795,-1.5671,-1.2934,-1.0194,-0.7454,-0.5101,-0.3532,-0.1766,0.0,0.0,0.0,0.0785,0.2944,0.4907,0.765,1.1368,1.528,1.938,2.3275,2.6394,2.8333,3.0114,3.1262,3.1302,3.1513,3.1605,3.1658,3.1882,3.2027,3.208,3.2291,3.237,3.2199,3.2358,3.2543,3.2715,3.2662,3.3188,3.426,3.5656,3.6496,3.7437,3.781,3.8182,3.8699,3.8135,3.7431,3.6455,3.5493,3.4145,3.2615,3.2988,3.4145,3.6262,3.8758,4.2183,4.6177,5.0336,5.4278,5.8403,6.0626,6.1575,6.1575,6.1575,6.1575,6.1575,6.1575,6.1575,6.1575,6.1575,6.1575,6.1575,6.1575,6.1575,6.1575,6.1575,6.1575,6.1575,6.1575,6.1575,6.1575,6.1575,6.1575,6.1575,6.1575,6.1575,6.1575,6.1575,6.1575,6.1575,6.1575,6.1575,6.1549,6.1471,6.1211,6.09,6.0588,6.0043,5.9828,5.9579,5.9763,6.002,6.0634,6.0699,-2.9733,-3.0036,-3.0326,-3.0603,-3.0893,-3.0167,-2.9289,-2.814,-2.6006,-2.3489,-2.0372,-1.7248,-1.3526,-0.9802,-0.7454,-0.4905,-0.2159,-0.1963,-0.0982,0.0,0.0,0.0,0.157,0.4318,0.6866,0.941,1.3331,1.7046,2.0558,2.4441,2.6976,2.8527,3.0282,3.1262,3.1276,3.1302,3.1302,3.1394,3.1618,3.1933,3.1986,3.2199,3.249,3.2621,3.3031,3.3851,3.4359,3.4611,3.5148,3.6755,3.6339,3.674,3.7317,3.7494,3.8087,3.8824,3.8824,3.8183,3.7399,3.7015,3.6055,3.453,3.4159,3.5108,3.7399,3.9699,4.2755,4.6936,5.0336,5.4278,5.7659,6.0071,6.139,6.1575,6.1575,6.1575,6.1575,6.1575,6.1575,6.1575,6.1575,6.1575,6.1575,6.1575,6.1575,6.1575,6.1575,6.1575,6.1575,6.1575,6.1575,6.1575,6.1575,6.1575,6.1575,6.1575,6.1575,6.1575,6.1575,6.1575,6.1575,6.1471,6.1497,6.1341,6.0952,6.0692,6.0432,5.9965,5.9393,5.9227,5.9141,5.9228,5.9539,5.9859,6.0206,-2.968,-2.997,-3.0089,-3.0405,-3.0814,-2.9988,-2.8588,-2.6953,-2.4452,-2.1143,-1.7436,-1.3716,-1.0394,-0.7454,-0.4709,-0.2748,-0.157,-0.0982,0.0,0.0,0.0,0.0,0.2943,0.5687,0.8627,1.1368,1.4896,1.8608,2.2117,2.5229,2.7364,2.912,3.0476,3.1262,3.1456,3.1262,3.1262,3.1469,3.1936,3.2406,3.2433,3.3097,3.3544,3.3629,3.4539,3.5309,3.5523,3.5583,3.6431,3.7847,3.7799,3.7607,3.7623,3.7447,3.8199,3.9716,3.9141,3.895,3.8933,3.855,3.7591,3.6631,3.6647,3.7975,3.9891,4.2565,4.5589,4.9393,5.3155,5.617,5.8588,6.0441,6.1575,6.1575,6.1575,6.1575,6.1575,6.1575,6.1575,6.1575,6.1575,6.1575,6.1575,6.1575,6.1575,6.1575,6.1575,6.1575,6.1575,6.1575,6.1575,6.1575,6.1575,6.1575,6.1575,6.1575,6.1575,6.1575,6.1575,6.1575,6.1445,6.1237,6.1159,6.09,6.0484,6.0095,5.9757,5.9341,5.8874,5.879,5.8529,5.8696,5.8669,5.8843,5.9165,-2.9457,-2.9852,-2.9931,-3.0247,-3.0492,-2.9479,-2.8106,-2.6372,-2.308,-1.9388,-1.5482,-1.1177,-0.8238,-0.5689,-0.2944,-0.1374,-0.0982,0.0,0.0,0.0,0.0196,0.1374,0.3532,0.6863,1.0389,1.3526,1.7038,2.0355,2.3858,2.6394,2.8333,2.9701,3.1056,3.1829,3.1842,3.2036,3.2036,3.2229,3.3181,3.3759,3.3802,3.4792,3.5345,3.5345,3.6701,3.7281,3.7255,3.7399,3.8375,4.029,3.9716,3.8566,3.8007,3.7623,3.8391,3.9908,3.9908,4.0099,4.0847,4.0864,4.0082,3.9316,3.9699,4.0864,4.2755,4.5229,4.8638,5.2029,5.5423,5.7845,5.9726,6.1021,6.1575,6.1575,6.1575,6.1575,6.1575,6.1575,6.1575,6.1575,6.1575,6.1575,6.1575,6.1575,6.1575,6.1575,6.1575,6.1575,6.1575,6.1575,6.1575,6.1575,6.1575,6.1575,6.1575,6.1575,6.1575,6.1575,6.1523,6.1523,6.1341,6.1056,6.077,6.0432,5.9991,5.9653,5.9238,5.8874,5.8588,5.8303,5.8347,5.8321,5.8147,5.8495,5.8991,-2.8596,-2.9575,-2.9838,-3.0128,-3.0055,-2.8604,-2.7302,-2.5973,-2.2311,-1.8608,-1.5091,-1.0981,-0.7454,-0.4709,-0.2356,-0.0982,0.0,0.0,0.0,0.0,0.0982,0.1964,0.3729,0.8042,1.2352,1.5873,1.977,2.2895,2.5434,2.7958,2.9701,3.0089,3.1829,3.2795,3.2988,3.3759,3.4145,3.4352,3.53,3.5878,3.5878,3.687,3.7415,3.7415,3.9174,4.0341,4.0482,4.1611,4.2946,4.3898,4.1229,3.9333,3.8775,3.8007,3.8583,4.029,4.142,4.2183,4.3327,4.4088,4.4278,4.3327,4.3327,4.3708,4.5229,4.7314,4.9771,5.2967,5.561,5.8031,5.9911,6.1021,6.1575,6.1575,6.1575,6.1575,6.1575,6.1575,6.1575,6.1575,6.1575,6.1575,6.1575,6.1575,6.1575,6.1575,6.1575,6.1575,6.1575,6.1575,6.1575,6.1575,6.1575,6.1575,6.1575,6.1575,6.1575,6.1523,6.1419,6.1393,6.1315,6.0874,6.051,5.9965,5.9471,5.9186,5.8874,5.8562,5.8251,5.8147,5.8147,5.8147,5.8495,5.8843,5.9512,-2.8583,-2.9522,-2.9627,-2.9852,-2.9769,-2.8158,-2.6711,-2.4823,-2.1089,-1.7241,-1.3526,-0.9218,-0.6082,-0.3729,-0.157,-0.0393,0.0,0.0,0.0,0.0,0.0982,0.2552,0.4513,0.8238,1.3129,1.899,2.2506,2.524,2.7958,2.9314,3.0476,3.1636,3.2408,3.3552,3.4723,3.53,3.5685,3.6439,3.7975,3.8758,3.9125,4.0464,4.1229,4.142,4.3136,4.4088,4.4468,4.7105,4.8806,4.824,4.5039,4.1437,3.9141,3.8583,3.9333,4.1246,4.2946,4.4659,4.6177,4.7314,4.7713,4.7524,4.7314,4.7693,4.8827,4.9959,5.2217,5.5049,5.7101,5.8774,6.0626,6.139,6.1575,6.1575,6.1575,6.1575,6.1575,6.1575,6.1575,6.1575,6.1575,6.1575,6.1575,6.1575,6.1575,6.1575,6.1575,6.1575,6.1575,6.1575,6.1575,6.1575,6.1575,6.1575,6.1575,6.1575,6.1575,6.1367,6.1185,6.1081,6.0952,6.051,6.0069,5.9523,5.9004,5.8718,5.8614,5.8277,5.8147,5.8147,5.8147,5.8495,5.8817,5.9339,6.039,-2.7864,-2.8961,-2.9326,-2.968,-2.9599,-2.7914,-2.6316,-2.4323,-2.0402,-1.6411,-1.2347,-0.8042,-0.5103,-0.2946,0.0,0.0,0.0,0.0,0.0,0.0,0.1374,0.2944,0.5101,0.8238,1.3521,1.9575,2.3674,2.6988,2.9314,3.0476,3.1249,3.2781,3.3745,3.5093,3.6823,3.7591,3.8358,3.9316,4.1229,4.2374,4.2565,4.4278,4.5418,4.5608,4.7314,4.9016,4.9771,5.2217,5.2967,5.1465,4.8071,4.3898,4.029,3.9141,3.9908,4.201,4.4278,4.6367,4.8638,4.9959,5.0546,5.0922,5.0734,5.0901,5.1653,5.278,5.4465,5.6729,5.8403,5.9701,6.118,6.1575,6.1575,6.1575,6.1575,6.1575,6.1575,6.1575,6.1575,6.1575,6.1575,6.1575,6.1575,6.1575,6.1575,6.1575,6.1575,6.1575,6.1575,6.1575,6.1575,6.1575,6.1575,6.1575,6.1575,6.1575,6.1237,6.0822,6.0614,6.0458,6.0302,5.9991,5.9575,5.9082,5.8588,5.8303,5.8225,5.8147,5.8147,5.8147,5.8443,5.8965,5.9312,6.039,6.1549,-2.6206,-2.8035,-2.9144,-2.9483,-2.9534,-2.7545,-2.5968,-2.3837,-2.0071,-1.6113,-1.2126,-0.8036,-0.4901,-0.2944,-0.0982,0.0,0.0,0.0,0.0,0.0,0.216,0.3729,0.5297,0.9414,1.3526,1.7241,2.3275,2.7558,2.9895,3.1622,3.2795,3.3373,3.5655,3.7767,3.8917,4.0847,4.2374,4.3708,4.5418,4.6367,4.6746,4.8449,4.9603,4.9792,5.1653,5.3904,5.6542,5.5959,5.4652,5.278,4.9582,4.5608,4.1229,3.9525,3.9908,4.2183,4.4849,4.7862,5.0691,5.2217,5.3177,5.3717,5.3177,5.2967,5.353,5.4652,5.6146,5.7473,5.8959,6.0466,6.139,6.1575,6.1575,6.1575,6.1575,6.1575,6.1575,6.1575,6.1575,6.1575,6.1575,6.1575,6.1575,6.1575,6.1575,6.1575,6.1575,6.1575,6.1575,6.1575,6.1575,6.1575,6.1575,6.1471,6.1497,6.1471,6.0822,6.025,6.0043,5.9861,5.9731,5.9393,5.8952,5.8796,5.8329,5.8199,5.8147,5.8147,5.8147,5.8469,5.8886,5.9379,6.0174,6.1272,6.2522,-2.4414,-2.7839,-2.8413,-2.8464,-2.8381,-2.5977,-2.3907,-2.1775,-1.8121,-1.4433,-1.1059,-0.6994,-0.4488,-0.2943,-0.0982,0.0,0.0,0.0,0.0393,0.1178,0.3141,0.5493,0.8238,1.2156,1.6264,2.016,2.4636,2.814,3.0669,3.2202,3.3566,3.4901,3.7192,3.9874,4.2755,4.4278,4.5988,4.7693,4.9582,5.0713,5.0901,5.2592,5.3717,5.4091,5.6332,5.8217,5.8984,5.8192,5.6705,5.4465,5.1111,4.7145,4.2946,4.0864,4.0864,4.3136,4.6557,4.9959,5.278,5.4652,5.5983,5.6891,5.6705,5.6705,5.6705,5.7263,5.8007,5.8959,5.9911,6.0441,6.139,6.1575,6.1575,6.1575,6.1575,6.1575,6.1575,6.1575,6.1575,6.1575,6.1575,6.1575,6.1575,6.1575,6.1575,6.1575,6.1575,6.1575,6.1575,6.1575,6.1575,6.1575,6.1523,6.1315,6.0978,6.064,6.0043,5.9783,5.9575,5.9367,5.916,5.8744,5.8433,5.8381,5.8277,5.8199,5.8147,5.8147,5.8469,5.8965,5.9446,6.0156,6.1276,6.2323,6.4218,-2.1965,-2.5895,-2.7084,-2.7316,-2.6595,-2.4363,-2.2057,-1.9699,-1.6253,-1.2769,-0.9612,-0.6159,-0.3871,-0.254,-0.0782,0.0,0.0,0.0,0.0589,0.1767,0.3728,0.6278,0.9606,1.3722,1.8014,2.1913,2.5218,2.8333,3.1636,3.3359,3.5093,3.7015,3.9683,4.2737,4.5798,4.7882,4.9393,5.1299,5.3155,5.4278,5.4488,5.5773,5.7077,5.7821,5.9701,6.0651,6.0651,5.9305,5.7635,5.5586,5.1653,4.7902,4.4468,4.2201,4.201,4.4659,4.8449,5.2051,5.4862,5.6729,5.8031,5.8934,5.8749,5.8378,5.8564,5.8934,5.933,5.9911,6.0281,6.0836,6.1575,6.1575,6.1575,6.1575,6.1575,6.1575,6.1575,6.1575,6.1575,6.1575,6.1575,6.1575,6.1575,6.1575,6.1575,6.1575,6.1575,6.1575,6.1549,6.1367,6.1211,6.1237,6.1081,6.0744,6.0173,5.9757,5.9445,5.9238,5.9082,5.8848,5.8868,5.8503,5.8949,5.8949,5.9418,5.9339,5.9486,5.9486,5.9299,5.9711,6.0171,6.0915,6.2378,6.4139,6.5983,-1.8957,-2.2196,-2.5188,-2.5839,-2.4751,-2.2732,-2.0248,-1.7596,-1.4441,-1.1139,-0.7811,-0.534,-0.345,-0.1353,-0.0386,0.0,0.0,0.0,0.0588,0.1764,0.3922,0.6474,0.9606,1.3918,1.8209,2.2302,2.5412,2.8915,3.2781,3.5108,3.7015,3.93,4.3118,4.6177,4.8638,5.1277,5.3177,5.4301,5.617,5.7287,5.7287,5.8217,5.949,6.0995,6.1575,6.1575,6.1364,5.949,5.7611,5.5563,5.1841,4.8281,4.5229,4.3155,4.3327,4.6177,5.0148,5.3927,5.6542,5.8031,5.8959,5.9886,5.933,5.8749,5.8934,5.9701,6.0096,6.0096,6.0995,6.1549,6.1575,6.1575,6.1575,6.1575,6.1575,6.1575,6.1575,6.1575,6.1575,6.1575,6.1497,6.1419,6.1471,6.1497,6.1367,6.1367,6.1419,6.1393,6.1263,6.0952,6.0718,6.0562,6.025,5.9679,5.9134,5.8978,5.8744,5.8536,5.8459,5.8225,5.8495,5.8817,5.9365,5.9686,6.0099,6.0563,6.0817,6.0854,6.0553,6.054,6.1002,6.2143,6.3884,6.578,6.7836,-1.7748,-2.054,-2.3238,-2.3674,-2.2712,-1.9413,-1.6671,-1.4301,-1.0592,-0.8043,-0.6228,-0.3588,-0.1703,-0.0569,-0.019,0.0,0.0,0.0,0.0972,0.2723,0.489,0.7846,1.1956,1.6069,2.016,2.4053,2.6577,2.9495,3.2781,3.6247,3.9475,4.2338,4.5589,4.9016,5.2217,5.3904,5.5586,5.7263,5.8588,5.933,5.933,6.0256,6.0995,6.1549,6.1575,6.1575,6.1549,5.9675,5.7635,5.5586,5.2404,4.9016,4.5418,4.3898,4.3517,4.4659,4.9582,5.3927,5.6915,5.8774,6.0071,6.0995,6.0995,6.0811,6.0811,6.1021,6.1206,6.1154,6.1364,6.1523,6.1575,6.1575,6.1575,6.1575,6.1575,6.1575,6.1549,6.1575,6.1523,6.1523,6.1159,6.0926,6.0874,6.0614,6.0406,6.0406,6.038,6.0328,6.0276,6.0224,6.0095,6.0069,5.9965,5.9445,5.8614,5.8433,5.8381,5.8173,5.8147,5.8495,5.8991,5.9165,5.9512,6.0854,6.0924,6.1327,6.2125,6.1704,6.1311,6.145,6.2218,6.343,6.5495,6.7167,6.9361,-1.6555,-1.8932,-2.0943,-2.1033,-1.9282,-1.5883,-1.3136,-1.0735,-0.7594,-0.5392,-0.3924,-0.1117,0.0373,0.0561,0.0563,0.0377,0.0,0.0383,0.1735,0.3873,0.6419,0.9769,1.4107,1.8209,2.2107,2.5607,2.8333,3.0669,3.3167,3.6424,4.043,4.464,4.824,5.1465,5.4465,5.6519,5.8031,5.912,6.0071,6.0395,6.0195,6.0691,6.0874,6.0874,6.0874,6.0848,6.0665,5.9021,5.7162,5.5506,5.2341,4.9203,4.6588,4.5108,4.4544,4.5651,4.9576,5.366,5.737,5.9247,6.0661,6.1211,6.1419,6.1575,6.1575,6.1575,6.1341,6.0978,6.0848,6.0848,6.0848,6.0874,6.0874,6.0874,6.0874,6.0848,6.0874,6.0848,6.0848,6.0848,6.0562,6.0354,6.0302,6.0043,5.9887,5.9861,5.9861,5.9913,5.9861,5.9653,5.9549,5.9497,5.929,5.8848,5.8355,5.8147,5.8147,5.8147,5.8321,5.8669,5.9486,5.9899,6.1061,6.2063,6.2889,6.3527,6.3833,6.3621,6.3631,6.3472,6.4263,6.5098,6.7424,6.9421,7.201,-1.4883,-1.6945,-1.8747,-1.8058,-1.5634,-1.267,-0.9775,-0.7014,-0.4989,-0.2958,-0.1108,0.1647,0.2383,0.1665,0.1494,0.0937,0.0188,0.1138,0.268,0.4818,0.7913,1.1641,1.5645,1.9931,2.3644,2.6588,2.9701,3.1829,3.3359,3.6247,4.0638,4.6367,5.0858,5.3813,5.6051,5.844,5.9944,6.018,6.1077,6.09,5.9913,5.9861,5.9861,5.9861,5.9835,5.9783,5.9809,5.7912,5.6424,5.5138,5.1721,4.9375,4.8096,4.6467,4.6284,4.8096,5.0127,5.3038,5.7473,5.9579,6.0614,6.0666,6.1081,6.1341,6.1341,6.1367,6.0926,6.0199,5.9887,5.9939,5.9861,5.9913,5.9965,6.0017,5.9965,5.9861,5.9939,5.9861,5.9861,5.9861,5.9861,5.9783,5.9757,5.9653,5.9627,5.9523,5.9471,5.9497,5.9471,5.9186,5.8926,5.8848,5.8536,5.8199,5.8043,5.8069,5.7939,5.7887,5.8633,5.922,5.9948,6.1216,6.2804,6.3561,6.46,6.5837,6.6135,6.67,6.6881,6.6515,6.6489,6.6846,6.8849,7.1508,7.4386,-1.2919,-1.4876,-1.6051,-1.5787,-1.4261,-1.0082,-0.7237,-0.489,-0.2175,0.0,0.163,0.2351,0.2712,0.2358,0.1648,0.1288,0.1106,0.1311,0.2645,0.4735,0.7815,1.1526,1.5692,1.9754,2.3311,2.676,2.9701,3.2602,3.53,3.8358,4.1992,4.6517,5.182,5.5738,5.8337,5.8643,5.937,6.0457,6.0277,6.0121,5.9861,5.9861,5.9861,5.9835,5.9419,5.9212,5.9186,5.751,5.5848,5.4258,5.2509,5.0552,4.8229,4.7713,4.7534,4.8093,5.0192,5.271,5.5267,5.8271,6.0043,6.0043,6.0173,6.0224,6.025,6.025,6.0121,5.9913,5.9757,5.9809,5.9757,5.9809,5.9861,5.9861,5.9861,5.9783,5.9835,5.9861,5.9861,5.9809,5.9471,5.9212,5.9134,5.8822,5.8588,5.8614,5.8536,5.8536,5.8536,5.8459,5.8355,5.8303,5.8251,5.7965,5.7576,5.7498,5.7342,5.6874,5.7699,5.8969,6.027,6.1647,6.3483,6.5583,6.7036,6.7929,6.8801,6.9247,6.9367,6.9203,6.9138,6.9513,7.0727,7.2909,7.5392,-1.0638,-1.2036,-1.3149,-1.2865,-1.133,-0.8548,-0.5371,-0.2157,0.1069,0.3558,0.5359,0.5361,0.4839,0.3961,0.3076,0.2183,0.1463,0.2032,0.3356,0.5454,0.888,1.2752,1.6884,2.0905,2.4591,2.7783,3.1235,3.4283,3.691,4.0329,4.3718,4.7255,5.1475,5.5373,5.8673,5.8936,5.9477,6.0276,5.9497,5.9082,5.9082,5.8822,5.8692,5.8692,5.8147,5.7835,5.7835,5.6462,5.525,5.3867,5.2266,5.0419,4.8511,4.7793,4.7661,4.8524,5.0304,5.2022,5.3918,5.6284,5.7731,5.8277,5.9004,5.9056,5.8017,5.7913,5.8017,5.8277,5.8562,5.8692,5.8692,5.8926,5.9056,5.9082,5.9082,5.9082,5.9056,5.9082,5.9056,5.9056,5.8796,5.8614,5.8614,5.8355,5.8147,5.8147,5.8147,5.8147,5.8173,5.7731,5.7368,5.7368,5.7368,5.7212,5.6978,5.7241,5.7281,5.7019,5.8431,5.9942,6.128,6.3619,6.5472,6.7338,6.925,7.0258,7.035,7.1276,7.1576,7.1508,7.1508,7.2132,7.2909,7.4303,7.5904,-0.8717,-0.9588,-1.029,-0.9638,-0.8124,-0.6891,-0.3908,0.0179,0.4031,0.6985,0.8821,0.8821,0.7807,0.609,0.5023,0.3608,0.2002,0.2737,0.4236,0.6363,1.0308,1.4323,1.8428,2.2398,2.5814,2.8874,3.2819,3.5798,3.8205,4.1935,4.5444,4.8363,5.1335,5.4549,5.7811,5.8988,5.9471,5.9367,5.8407,5.7913,5.7913,5.7446,5.7186,5.716,5.6641,5.6303,5.6199,5.5254,5.4335,5.3392,5.1463,4.9838,4.8931,4.7852,4.7556,4.8899,5.0095,5.1241,5.2634,5.3789,5.4771,5.581,5.7342,5.7394,5.5342,5.5264,5.5576,5.6147,5.677,5.7082,5.7108,5.7601,5.7913,5.7913,5.7913,5.7913,5.7913,5.7913,5.7913,5.7913,5.7913,5.7887,5.7861,5.7861,5.7809,5.7861,5.7731,5.7861,5.7679,5.7056,5.6511,5.6628,5.6628,5.6576,5.6835,5.7483,5.7907,5.7907,5.9944,6.1851,6.2978,6.5373,6.7678,6.8928,7.1029,7.215,7.2116,7.3165,7.3418,7.3194,7.3502,7.4033,7.4575,7.568,7.6492,-0.7846,-0.8547,-0.8025,-0.7156,-0.5946,-0.4196,-0.2101,0.035,0.0,0.0,0.0,1.0527,0.9894,0.8947,0.7255,0.5867,0.4814,0.4349,0.5122,0.7346,1.036,1.4179,1.8252,2.2184,2.5844,2.8874,3.2819,3.6187,3.8965,4.286,4.6712,5.0492,5.2634,5.4716,5.6803,5.7444,5.7524,5.7082,5.6678,5.6744,5.6744,5.6641,5.6615,5.6589,5.6043,5.5524,5.503,5.4399,5.3447,5.2204,5.1595,5.0863,4.9461,4.918,4.8743,4.8229,4.9301,5.0128,5.0008,5.1576,5.2693,5.2875,5.4044,5.4173,5.2875,5.3628,5.4381,5.5117,5.555,5.5913,5.5913,5.6433,5.6744,5.6744,5.6744,5.6744,5.6744,5.6574,5.6744,5.6744,5.677,5.6744,5.6796,5.6796,5.6744,5.677,5.6848,5.6574,5.6719,5.6537,5.6446,5.712,5.743,5.7544,5.7839,5.8534,5.9004,5.8809,6.0761,6.2779,6.4389,6.6694,6.9165,7.1141,7.2767,7.3726,7.4228,7.4589,7.4718,7.4681,7.4681,7.4831,7.5129,7.617,7.7052,-0.515,0.0,-0.4979,-0.4292,0.0,-0.1888,0.0172,0.2917,0.645,0.9822,1.2928,1.3273,1.2839,1.1588,0.9735,0.8238,0.6908,0.6087,0.6493,0.8156,1.1163,1.4187,1.7202,2.1172,2.4994,2.8448,3.2519,3.6292,3.9954,4.3736,4.7386,5.1055,5.2845,5.4657,5.6379,5.6662,5.6744,5.629,5.629,5.629,5.6433,5.6173,5.6017,5.5991,5.5446,0.0,0.0,0.0,0.0,0.0,0.0,0.0,0.0,0.0,0.0,4.6892,4.698,4.6992,4.7196,4.8092,4.8953,4.9525,5.0356,5.0226,4.8798,5.0538,5.2044,5.3059,5.3784,5.4303,5.4303,5.5056,5.5576,5.5576,5.5576,5.5576,5.5576,5.5576,5.568,5.5939,5.6017,5.6147,5.6407,5.629,5.629,5.629,5.629,5.629,5.6212,5.5732,5.5465,5.6289,5.7328,5.8261,5.8508,5.9735,6.0866,6.0931,6.2824,6.4833,6.6062,6.8427,7.0626,7.219,7.3878,7.4976,7.5089,7.5428,7.5429,7.5171,7.5282,7.5539,7.5229,7.5658,7.6121,-0.2705,-0.2705,-0.2536,-0.186,-0.1013,0.0167,0.2674,0.586,0.8704,1.1879,1.4875,1.5746,1.5351,1.3979,1.2126,1.0537,0.8972,0.8116,0.8347,0.9503,1.2137,1.4371,1.6555,2.0333,2.406,2.7872,3.2027,3.6207,4.0571,4.4601,4.8076,5.1135,5.2793,5.4411,5.5927,0.0,0.0,0.0,5.6069,5.6121,5.6095,5.568,5.542,5.542,5.5117,0.0,5.3732,5.368,5.3023,5.1617,5.0622,0.0,0.0,0.0,0.0,0.0,0.0,0.0,0.0,0.0,0.0,0.0,4.5785,4.5396,4.4539,4.6772,4.8902,5.0356,5.1447,5.207,5.22,5.3135,5.3732,5.3893,5.3732,5.3945,5.4049,5.4049,5.4336,5.4849,5.4953,5.5134,5.5576,5.5784,5.5758,5.5654,5.5784,5.581,5.5732,5.4563,5.408,5.5018,5.687,5.8463,5.9108,6.1268,6.2644,6.331,6.5244,6.7137,6.8274,7.0248,7.186,7.324,7.4839,7.5759,7.5355,7.5647,7.5715,7.5133,7.5535,7.5669,7.4916,7.4868,7.4982,-0.2705,-0.2705,-0.186,-0.1014,0.0,0.2269,0.481,0.7761,1.099,1.3408,1.5356,1.6326,1.6335,1.5344,1.381,1.2594,1.171,1.0781,1.1064,1.2065,1.3434,1.5118,1.7279,2.0164,2.3574,2.7473,3.2087,3.6465,4.1176,4.5695,4.9318,5.1965,5.2921,5.3938,5.4875,5.394,5.368,5.4173,5.4667,5.5091,5.5091,5.4875,5.4987,5.4987,5.4909,5.4199,5.3161,5.3109,5.2382,5.0723,5.0024,4.8815,4.7266,4.6053,4.4478,0.0,4.135,0.0,0.0,0.0,0.0,0.0,0.0,0.0,0.0,4.2539,4.472,4.7369,4.8174,4.8746,4.9239,4.9862,5.0252,5.0252,5.0252,5.046,5.0927,5.1158,5.1395,5.2459,5.2589,5.2797,5.3394,5.3446,5.3446,5.355,5.3524,5.3446,5.342,5.3213,5.3322,5.4248,5.5887,5.7968,6.0479,6.263,6.4179,6.4982,6.685,6.9134,7.0357,7.1639,7.3096,7.495,7.5237,7.5299,7.5916,7.5455,7.5181,7.5039,7.5039,7.4878,7.4223,7.4451,7.4944,-0.1141,-0.1141,-0.0815,0.0162,0.1438,0.2993,0.5495,0.8516,1.1421,1.3836,1.5896,1.6828,1.6705,1.5844,1.4734,1.3962,1.3361,1.2496,1.2461,1.3116,1.4373,1.5362,1.6433,1.9277,2.2764,2.6486,3.072,3.5275,4.0419,4.4494,4.7781,5.0596,5.1745,5.2178,5.194,5.1992,5.233,5.2901,5.3784,5.4381,5.4857,5.4883,5.4883,5.4883,5.4883,5.4336,5.319,5.3164,5.2226,5.0538,4.9291,4.7889,4.6175,4.3811,4.1604,0.0,0.0,0.0,0.0,0.0,0.0,0.0,0.0,0.0,0.0,0.0,4.0851,4.3058,4.4902,4.6227,4.6824,4.7369,4.7707,4.7707,4.7733,4.7811,4.8071,4.8382,4.9005,5.0122,5.0538,5.1057,5.194,5.233,5.2511,5.2511,5.1706,5.1109,5.1135,5.1856,5.2503,5.3454,5.5112,5.7185,5.9456,6.2466,6.4577,6.5509,6.7484,6.9239,6.9958,7.1086,7.2243,7.3233,7.3567,7.3726,7.4007,7.3805,7.3615,7.3615,7.3615,7.3653,7.3691,7.4033,7.4451,0.0,0.0,0.0,0.0916,0.2554,0.3497,0.5815,0.8901,1.1641,1.4014,1.5817,1.6897,1.6654,1.5564,1.4874,1.4664,1.4636,1.4182,1.4211,1.4578,1.5539,1.6213,1.6259,1.8956,2.2253,2.5932,2.9932,3.4621,3.9749,4.372,4.671,4.8937,4.9993,4.9984,4.9109,5.0252,5.1239,5.1914,5.3057,5.3992,5.4831,5.4883,5.4883,5.4857,5.4753,5.3966,5.2849,5.2563,5.155,4.9856,4.7993,4.6175,4.4201,4.1111,0.0,0.0,0.0,0.0,0.0,0.0,0.0,0.0,0.0,3.1554,3.3683,0.0,3.7137,0.0,4.1552,4.3474,4.4071,4.4642,0.0,0.0,4.4772,4.4824,4.498,4.5473,4.6305,4.7577,4.8356,4.9161,5.0174,5.0901,5.1392,5.1411,5.0213,4.9482,4.9629,5.0467,5.1327,5.2394,5.4063,5.5892,5.7439,6.0742,6.3548,6.5086,6.7173,6.8796,6.9332,7.0353,7.1327,7.1666,7.2065,7.2514,7.259,7.2514,7.2325,7.1489,7.1489,7.1869,7.2666,7.297,7.3388,0.0,0.0,0.0,0.0858,0.2429,0.3904,0.5995,0.8579,1.1965,1.3747,1.4478,1.6087,1.5833,1.4098,1.3693,0.0,1.5656,1.5846,1.6667,1.7689,1.8068,1.8257,1.8588,2.0476,2.284,2.5524,3.0837,3.5416,3.9419,4.4392,4.7235,4.8004,4.769,4.7279,4.7343,4.8902,5.0278,5.1343,5.2485,5.3602,5.4831,5.4883,5.4883,5.4857,5.4199,5.3368,5.2226,5.1213,4.9629,4.7421,4.5655,4.3474,4.0747,0.0,0.0,0.0,0.0,0.0,0.0,0.0,0.0,0.0,0.0,0.0,0.0,0.0,0.0,3.5239,3.8072,0.0,4.0539,4.1111,0.0,0.0,0.0,4.0877,4.1396,4.1968,4.3083,4.4724,0.0,0.0,4.7317,4.833,4.9079,4.9426,4.9241,4.9195,4.9768,4.9535,4.9679,5.1281,5.2707,5.4015,5.4983,5.7633,6.0793,6.3729,6.6092,6.7843,6.9546,7.0274,7.0901,7.1876,7.2438,7.24,7.2476,7.2211,7.1527,6.8452,6.8566,6.9325,7.0123,7.0844,7.1565,0.0,0.0,0.0,0.0811,0.2302,0.3429,0.5393,0.8065,1.0415,1.2134,1.3189,1.353,1.3256,1.2243,1.1865,0.0,0.0,0.0,1.5915,1.6606,1.7506,1.8224,1.8801,2.0835,2.3184,2.6255,3.0264,3.4146,3.8087,4.1882,4.346,4.2668,0.0,0.0,4.4487,4.6512,4.8434,5.0252,5.1732,5.3031,5.4147,5.4537,5.4537,5.4173,5.329,5.2278,5.1161,5.0018,4.82,4.5577,4.35,4.1085,0.0,0.0,0.0,0.0,0.0,0.0,0.0,0.0,0.0,0.0,0.0,2.5892,2.7269,0.0,0.0,0.0,3.4748,3.6877,3.8514,3.8851,0.0,0.0,0.0,0.0,0.0,0.0,0.0,4.1188,4.2669,4.4335,4.5834,4.626,4.6695,4.7376,4.805,4.8643,4.8923,0.0,4.9925,5.0203,5.2115,5.363,5.3493,5.5547,5.7851,5.9873,6.2442,6.4823,6.6011,6.7006,6.7785,6.8574,6.8951,6.9083,6.9308,6.8604,6.7427,6.625,6.625,6.6744,6.7579,6.7996,6.8771,0.0,0.0,0.0,0.0,0.0,0.2964,0.4547,0.6919,0.8596,0.9953,1.0957,1.0825,0.0,0.0,0.0,0.0,0.0,0.0,1.5218,1.6206,1.7338,1.8415,1.9311,2.1358,2.3612,2.6334,3.0022,3.3287,3.6318,3.8661,3.9152,3.8212,0.0,0.0,0.0,0.0,4.6824,4.9057,5.0953,5.2537,5.381,5.4407,5.4433,5.3862,5.2433,5.1057,4.9759,4.8148,4.6019,4.3318,4.0903,0.0,0.0,0.0,0.0,0.0,0.0,0.0,0.0,0.0,0.0,0.0,0.0,0.0,0.0,0.0,0.0,0.0,0.0,0.0,3.5968,3.668,3.6654,0.0,0.0,0.0,0.0,0.0,0.0,0.0,0.0,0.0,4.3597,4.3965,4.4543,0.0,0.0,4.7836,4.8375,4.9352,4.9898,4.9735,5.1755,0.0,5.2157,5.3751,5.5368,5.5895,5.8222,6.0472,6.146,6.2746,6.3987,6.4794,6.5209,6.5197,6.4761,6.3592,6.2871,6.2833,6.2833,6.3099,6.3896,6.4435,6.5251,0.0,0.0,0.0,0.0,0.0,0.0,0.0,0.0,0.6736,0.7345,0.0,0.7974,0.0,0.0,0.0,0.0,0.0,1.3034,0.0,0.0,1.8501,1.9671,2.0852,2.2358,2.3946,2.5659,3.01,3.2943,3.4421,3.4721,0.0,0.0,0.0,0.0,0.0,0.0,4.5629,4.7915,5.0174,5.2148,5.3784,5.4407,5.4596,5.381,5.168,4.9707,4.7967,4.524,4.2695,4.0383,3.7631,0.0,0.0,0.0,0.0,0.0,0.0,0.0,0.0,0.0,0.0,0.0,0.0,0.0,0.0,0.0,0.0,0.0,0.0,0.0,0.0,3.4034,0.0,0.0,0.0,0.0,0.0,0.0,0.0,0.0,0.0,0.0,3.981,4.1288,4.3124,4.5548,0.0,0.0,0.0,0.0,4.9148,5.0519,5.1374,5.1653,5.089,5.2074,5.2995,5.2995,0.0,0.0,5.6966,5.8335,5.9457,6.0777,6.2052,6.1975,5.8543,5.7746,5.7708,5.7817,5.7708,5.7974,5.8771,5.9903,6.1198,0.0,0.0,0.0,0.0,0.0,0.0,0.0,0.0,0.0,0.4661,0.0,0.5168,0.0,0.0,0.0,0.0,0.0,0.0,0.0,0.0,1.7422,1.9235,2.1078,2.2616,2.4521,0.0,2.97,3.1158,0.0,0.0,0.0,0.0,0.0,0.0,0.0,0.0,4.3734,4.6746,4.9395,5.1576,5.3213,5.3862,5.3862,5.329,5.1447,4.8772,4.5188,4.2695,3.9786,0.0,0.0,0.0,0.0,0.0,0.0,0.0,0.0,0.0,0.0,0.0,0.0,0.0,0.0,0.0,0.0,0.0,0.0,0.0,0.0,0.0,0.0,0.0,3.219,0.0,0.0,0.0,0.0,0.0,0.0,0.0,0.0,0.0,3.7116,3.9215,4.1739,4.4761,4.608,4.7451,4.9184,0.0,0.0,0.0,0.0,0.0,0.0,0.0,5.0928,5.0928,5.0691,5.109,5.2592,5.4202,5.561,5.6861,0.0,0.0,5.2635,5.2241,5.262,5.262,5.2819,5.3094,5.3262,5.4733,5.6299,0.0,0.0,0.0,0.0,0.0,0.0,0.0,0.0,0.0,0.2826,0.3103,0.0,0.0,0.0,0.0,0.0,0.0,0.0,0.0,0.0,0.0,0.0,2.1051,2.2776,0.0,0.0,0.0,0.0,0.0,0.0,0.0,0.0,0.0,0.0,0.0,0.0,4.2357,4.5577,4.8616,5.1005,5.2667,5.3446,5.3472,5.2719,5.1057,4.8278,4.4279,0.0,0.0,0.0,0.0,0.0,0.0,0.0,0.0,0.0,0.0,0.0,0.0,0.0,0.0,0.0,0.0,0.0,0.0,0.0,0.0,0.0,0.0,0.0,0.0,0.0,3.0163,0.0,0.0,0.0,0.0,0.0,0.0,0.0,0.0,0.0,0.0,0.0,3.9657,4.2954,4.5008,4.7035,4.9486,5.104,5.1974,0.0,0.0,0.0,0.0,0.0,0.0,0.0,0.0,0.0,0.0,0.0,0.0,0.0,0.0,4.9739,4.6926,4.6733,4.6836,4.6962,0.0,0.0,0.0,0.0,0.0,0.0,0.0,0.0,0.0,0.0,0.0,0.0,0.0,0.0,0.0,0.1762,0.0,0.0,0.0924,0.0,0.0,0.0,0.0,0.0,0.0,0.0,0.0,0.0,0.0,0.0,0.0,0.0,0.0,0.0,0.0,0.0,0.0,0.0,0.0,0.0,0.0,4.1578,4.4568,4.7863,5.0434,5.2122,5.3239,5.329,5.2174,5.0434,4.82,4.5318,0.0,0.0,0.0,0.0,0.0,0.0,0.0,0.0,0.0,0.0,0.0,0.0,0.0,0.0,0.0,0.0,0.0,0.0,0.0,0.0,0.0,0.0,0.0,0.0,0.0,0.0,2.947,2.9748,2.9737,0.0,0.0,0.0,0.0,0.0,0.0,0.0,0.0,0.0,0.0,4.3039,4.6016,4.9478,5.1052,5.2614,5.4489,5.4264,5.3558,5.2884,5.1448,5.0071,0.0,0.0,0.0,0.0,0.0,0.0,0.0,0.0,0.0,0.0,0.0,0.0,0.0,0.0,0.0,0.0,0.0,0.0,0.0,0.0,0.0,0.0,0.0,0.0,0.0,0.0,0.0,0.0,0.0,0.0,0.0,0.0,0.0,0.0,0.0,0.0,0.0,0.0,0.0,0.0,0.0,0.0,0.0,0.0,0.0,0.0,0.0,0.0,0.0,0.0,0.0,0.0,0.0,0.0,4.0591,4.3811,4.7629,5.0434,5.2096,5.2875,5.2901,5.2096,4.9317,4.6642,0.0,0.0,0.0,0.0,0.0,0.0,0.0,0.0,0.0,0.0,0.0,0.0,0.0,0.0,0.0,0.0,0.0,0.0,0.0,0.0,0.0,0.0,0.0,0.0,0.0,0.0,0.0,0.0,2.8397,2.8672,2.8517,0.0,0.0,0.0,0.0,0.0,0.0,0.0,0.0,0.0,0.0,4.46,4.9181,5.1429,5.2751,5.3366,5.4016,5.3708,5.1536,4.9972,4.8343,4.6562,0.0,0.0,0.0,0.0,0.0,0.0,0.0,0.0,0.0,0.0,0.0,0.0,0.0,0.0,0.0,0.0,0.0,0.0,0.0,0.0,0.0,0.0,0.0,0.0,0.0,0.0,0.0,0.0,0.0,0.0,0.0,0.0,0.0,0.0,0.0,0.0,0.0,0.0,0.0,0.0,0.0,0.0,0.0,0.0,0.0,0.0,0.0,0.0,0.0,0.0,0.0,0.0,0.0,3.9838,4.324,4.7006,4.9888,5.1732,5.2382,5.2278,5.1499,4.8881,4.5903,0.0,0.0,0.0,0.0,0.0,0.0,0.0,0.0,0.0,0.0,0.0,0.0,0.0,0.0,0.0,0.0,0.0,0.0,0.0,0.0,0.0,0.0,0.0,0.0,0.0,0.0,0.0,0.0,2.7226,2.7751,2.742,0.0,0.0,0.0,0.0,0.0,0.0,0.0,0.0,0.0,0.0,4.34,4.803,5.0349,0.0,0.0,5.3002,5.2887,5.1028,4.9488,4.7767,4.5651,4.3345,0.0,0.0,0.0,0.0,0.0,0.0,0.0,0.0,0.0,0.0,0.0,0.0,0.0,0.0,0.0,0.0,0.0,0.0,0.0,0.0,0.0,0.0,0.0,0.0,0.0,0.0,0.0,0.0,0.0,0.0,0.0,0.0,0.0,0.0,0.0,0.0,0.0,0.0,0.0,0.0,0.0,0.0,0.0,0.0,0.0,0.0,0.0,0.0,0.0,0.0,0.0,0.0,3.941,4.2695,4.6123,4.9005,5.1161,5.1836,5.1576,5.0559,4.8869,4.5975,0.0,0.0,0.0,0.0,0.0,0.0,0.0,0.0,0.0,0.0,0.0,0.0,0.0,0.0,0.0,0.0,0.0,0.0,0.0,0.0,0.0,0.0,0.0,0.0,0.0,0.0,0.0,0.0,0.0,0.0,0.0,0.0,0.0,0.0,0.0,0.0,0.0,0.0,0.0,0.0,0.0,4.2328,4.613,4.8325,5.0056,0.0,0.0,5.1175,5.079,4.9695,4.7978,4.548,0.0,0.0,0.0,0.0,0.0,0.0,0.0,0.0,0.0,0.0,0.0,0.0,0.0,0.0,0.0,0.0,0.0,0.0,0.0,0.0,0.0,0.0,0.0,0.0,0.0,0.0,0.0,0.0,0.0,0.0,0.0,0.0,0.0,0.0,0.0,0.0,0.0,0.0,0.0,0.0,0.0,0.0,0.0,0.0,0.0,0.0,0.0,0.0,0.0,0.0,0.0,0.0,0.0,0.0,4.2695,4.6149,4.8798,5.0616,5.1628,5.1703,5.0732,4.8431,0.0,0.0,0.0,0.0,0.0,0.0,0.0,0.0,0.0,0.0,0.0,0.0,0.0,0.0,0.0,0.0,0.0,0.0,0.0,0.0,0.0,0.0,0.0,0.0,0.0,0.0,0.0,2.2361,0.0,0.0,0.0,0.0,0.0,0.0,0.0,0.0,0.0,0.0,0.0,0.0,0.0,0.0,3.9754,4.3957,4.6261,4.7665,0.0,0.0,4.9417,4.7505,4.7368,4.6563,0.0,0.0,0.0,0.0,0.0,0.0,0.0,0.0,0.0,0.0,0.0,0.0,0.0,0.0,0.0,0.0,0.0,0.0,0.0,0.0,0.0,0.0,0.0,0.0,0.0,0.0,0.0,0.0,0.0,0.0,0.0,0.0,0.0,0.0,0.0,0.0,0.0,0.0,0.0,0.0,0.0,0.0,0.0,0.0,0.0,0.0,0.0,0.0,0.0,0.0,0.0,0.0,0.0,0.0,3.8384,4.2305,4.5525,4.8226,5.0533,5.1624,5.159,5.0297,4.8899,4.6438,0.0,0.0,0.0,0.0,0.0,0.0,0.0,0.0,0.0,0.0,0.0,0.0,0.0,0.0,0.0,0.0,0.0,0.0,0.0,0.0,0.0,0.0,0.0,0.0,0.0,0.0,0.0,0.0,0.0,0.0,0.0,0.0,0.0,0.0,0.0,0.0,0.0,0.0,0.0,0.0,0.0,0.0,4.0874,4.3004,0.0,0.0,0.0,4.6164,4.4602,0.0,0.0,0.0,0.0,0.0,0.0,0.0,0.0,0.0,0.0,0.0,0.0,0.0,0.0,0.0,0.0,0.0,0.0,0.0,0.0,0.0,0.0,0.0,0.0,0.0,0.0,0.0,0.0,0.0,0.0,0.0,0.0,0.0,0.0,0.0,0.0,0.0,0.0,0.0,0.0,0.0,0.0,0.0,0.0,0.0,0.0,0.0,0.0,0.0,0.0,0.0,0.0,0.0,0.0,0.0,0.0,0.0,4.1859,4.4642,4.7589,5.0422,5.1558,5.1535,5.0123,4.9647,4.7388,0.0,0.0,0.0,0.0,0.0,0.0,0.0,0.0,0.0,0.0,0.0,0.0,0.0,0.0,0.0,0.0,0.0,0.0,0.0,0.0,0.0,0.0,0.0,0.0,0.0,0.0,0.0,0.0,0.0,0.0,0.0,0.0,0.0,0.0,0.0,0.0,0.0,0.0,0.0,0.0,0.0,3.5765,3.7634,3.926,4.0248,0.0,0.0,4.2324,4.1987,4.2686,0.0,0.0,0.0,0.0,0.0,0.0,0.0,0.0,0.0,0.0,0.0,0.0,0.0,0.0,0.0,0.0,0.0,0.0,0.0,0.0,0.0,0.0,0.0,0.0,0.0,0.0,0.0,0.0,0.0,0.0,0.0,0.0,0.0,0.0,0.0,0.0,0.0,0.0,0.0,0.0,0.0,0.0,0.0,0.0,0.0,0.0,0.0,0.0,0.0,0.0,0.0,0.0,0.0,0.0,0.0,0.0,4.1137,4.4045,4.6948,4.9979,5.0668,5.126,5.1768,5.0094,4.8164,0.0,0.0,0.0,0.0,0.0,0.0,0.0,0.0,0.0,0.0,0.0,0.0,0.0,0.0,0.0,0.0,0.0,0.0,0.0,0.0,0.0,0.0,0.0,0.0,0.0,0.0,0.0,0.0,0.0,0.0,0.0,0.0,0.0,0.0,0.0,0.0,0.0,0.0,0.0,0.0,0.0,3.3238,3.5337,3.6333,0.0,0.0,0.0,0.0,3.9099,3.9868,0.0,0.0,0.0,0.0,0.0,0.0,0.0,0.0,0.0,0.0,0.0,0.0,0.0,0.0,0.0,0.0,0.0,0.0,0.0,0.0,0.0,0.0,0.0,0.0,0.0,0.0,0.0,0.0,0.0,0.0,0.0,0.0,0.0,0.0,0.0,0.0,0.0,0.0,0.0,0.0,0.0,0.0,0.0,0.0,0.0,0.0,0.0,0.0,0.0,0.0,0.0,0.0,0.0,0.0,0.0,0.0,4.015,4.3318,4.6563,4.978,5.1207,5.2104,5.2677,5.1372,4.9479,0.0,0.0,0.0,0.0,0.0,0.0,0.0,0.0,0.0,0.0,0.0,0.0,0.0,0.0,0.0,0.0,0.0,0.0,0.0,0.0,0.0,0.0,0.0,0.0,0.0,0.0,0.0,0.0,0.0,0.0,0.0,0.0,0.0,0.0,0.0,0.0,0.0,0.0,0.0,0.0,2.9921,3.1494,3.2887,0.0,0.0,0.0,0.0,0.0,0.0,3.7885,3.7954,0.0,0.0,0.0,0.0,0.0,0.0,0.0,0.0,0.0,0.0,0.0,0.0,0.0,0.0,0.0,0.0,0.0,0.0,0.0,0.0,0.0,0.0,0.0,0.0,0.0,0.0,0.0,0.0,0.0,0.0,0.0,0.0,0.0,0.0,0.0,0.0,0.0,0.0,0.0,0.0,0.0,0.0,0.0,0.0,0.0,0.0,0.0,0.0,0.0,0.0,0.0,0.0,0.0,0.0,0.0,3.9033,4.2513,4.615,4.9669,5.173,5.2986,5.3461,5.2643,5.0786,4.7411,0.0,0.0,0.0,0.0,0.0,0.0,0.0,0.0,0.0,0.0,0.0,0.0,0.0,0.0,0.0,0.0,0.0,0.0,0.0,0.0,0.0,0.0,0.0,0.0,0.0,0.0,0.0,0.0,0.0,0.0,0.0,0.0,0.0,0.0,0.0,0.0,0.0,0.0,0.0,2.8541,3.0025,0.0,0.0,0.0,0.0,0.0,0.0,0.0,0.0,3.6369,0.0,0.0,0.0,0.0,0.0,0.0,0.0,0.0,0.0,0.0,0.0,0.0,0.0,0.0,0.0,0.0,0.0,0.0,0.0,0.0,0.0,0.0,0.0,0.0,0.0,0.0,0.0,0.0,0.0,0.0,0.0,0.0,0.0,0.0,0.0,0.0,0.0,0.0,0.0,0.0,0.0,0.0,0.0,0.0,0.0,0.0,0.0,0.0,0.0,0.0,0.0,0.0,0.0,0.0,0.0,0.0,4.1734,4.5311,4.8735,5.0586,5.2507,5.4264,5.3008,5.0821,4.7812,0.0,0.0,0.0,0.0,0.0,0.0,0.0,0.0,0.0,0.0,0.0,0.0,0.0,0.0,0.0,0.0,0.0,0.0,0.0,0.0,0.0,0.0,0.0,0.0,0.0,0.0,0.0,0.0,0.0,0.0,0.0,0.0,0.0,0.0,0.0,0.0,0.0,0.0,2.3562,2.6257,0.0,0.0,0.0,0.0,0.0,0.0,0.0,0.0,3.426,0.0,0.0,0.0,0.0,0.0,0.0,0.0,0.0,0.0,0.0,0.0,0.0,0.0,0.0,0.0,0.0,0.0,0.0,0.0,0.0,0.0,0.0,0.0,0.0,0.0,0.0,0.0,0.0,0.0,0.0,0.0,0.0,0.0,0.0,0.0,0.0,0.0,0.0,0.0,0.0,0.0,0.0,0.0,0.0,0.0,0.0,0.0,0.0,0.0,0.0,0.0,0.0,0.0,0.0,0.0,0.0,0.0,0.0,4.4281,4.841,5.0175,5.2144,5.4438,5.2743,4.9963,0.0,0.0,0.0,0.0,0.0,0.0,0.0,0.0,0.0,0.0,0.0,0.0,0.0,0.0,0.0,0.0,0.0,0.0,0.0,0.0,0.0,0.0,0.0,0.0,0.0,0.0,0.0,0.0,0.0,0.0,0.0,0.0,0.0,0.0,0.0,0.0,0.0,0.0,0.0,0.0,0.0,0.0,0.0,0.0,0.0,0.0,0.0,0.0,0.0,0.0,0.0,0.0,0.0,0.0,0.0,0.0,0.0,0.0,0.0,0.0,0.0,0.0,0.0,0.0,0.0,0.0,0.0,0.0,0.0,0.0,0.0,0.0,0.0,0.0,0.0,0.0,0.0,0.0,0.0,0.0,0.0,0.0,0.0,0.0,0.0,0.0,0.0,0.0,0.0,0.0,0.0,0.0,0.0,0.0,0.0,0.0,0.0,0.0,0.0,0.0,0.0,0.0,0.0,0.0,0.0,0.0,0.0,0.0,4.3091,4.7646,4.9498,5.1451,5.37,5.1385,4.7894,0.0,0.0,0.0,0.0,0.0,0.0,0.0,0.0,0.0,0.0,0.0,0.0,0.0,0.0,0.0,0.0,0.0,0.0,0.0,0.0,0.0,0.0,0.0,0.0,0.0,0.0,0.0,0.0,0.0,0.0,0.0,0.0,0.0,0.0,0.0,0.0,0.0,0.0,0.0,0.0,0.0,0.0,0.0,0.0,0.0,0.0,0.0,0.0,3.3218,0.0,0.0,0.0,0.0,0.0,0.0,0.0,0.0,0.0,0.0,0.0,0.0,0.0,0.0,0.0,0.0,0.0,0.0,0.0,0.0,0.0,0.0,0.0,0.0,0.0,0.0,0.0,0.0,0.0,0.0,0.0,0.0,0.0,0.0,0.0,0.0,0.0,0.0,0.0,0.0,0.0,0.0,0.0,0.0,0.0,0.0,0.0,0.0,0.0,0.0,0.0,0.0,0.0,0.0,0.0,0.0,0.0,0.0,0.0,4.1955,4.5245,4.8311,5.0212,5.1048,4.7974,4.4426,0.0,0.0,0.0,0.0,0.0,0.0,0.0,0.0,0.0,0.0,0.0,0.0,0.0,0.0,0.0,0.0,0.0,0.0,0.0,0.0,0.0,0.0,0.0,0.0,0.0,0.0,0.0,0.0,0.0,0.0,0.0,0.0,0.0,0.0,0.0,0.0,0.0,0.0,0.0,0.0,0.0,0.0,0.0,0.0,0.0,0.0,0.0,0.0,0.0,0.0,0.0,0.0,0.0,0.0,0.0,0.0,0.0,0.0,0.0,0.0,0.0,0.0,0.0,0.0,0.0,0.0,0.0,0.0,0.0,0.0,0.0,0.0,0.0,0.0,0.0,0.0,0.0,0.0,0.0,0.0,0.0,0.0,0.0,0.0,0.0,0.0,0.0,0.0,0.0,0.0,0.0,0.0,0.0,0.0,0.0,0.0,0.0,0.0,0.0,0.0,0.0,0.0,0.0,0.0,0.0,0.0,0.0,0.0,4.0078,4.3826,4.5834,4.6432,4.5189,4.3803,4.0969,0.0,0.0,0.0,0.0,0.0,0.0,0.0,0.0,0.0,0.0,0.0,0.0,0.0,0.0,0.0,0.0,0.0,0.0,0.0,0.0,0.0,0.0,0.0,0.0,0.0,0.0,0.0,0.0,0.0,0.0,0.0,0.0,0.0,0.0,0.0,0.0,0.0,0.0,0.0,0.0,0.0,0.0,0.0,0.0,0.0,0.0,0.0,0.0,0.0,0.0,0.0,0.0,0.0,0.0,0.0,0.0,0.0,0.0,0.0,0.0,0.0,0.0,0.0,0.0,0.0,0.0,0.0,0.0,0.0,0.0,0.0,0.0,0.0,0.0,0.0,0.0,0.0,0.0,0.0,0.0,0.0,0.0,0.0,0.0,0.0,0.0,0.0,0.0,0.0,0.0,0.0,0.0,0.0,0.0,0.0,0.0,0.0,0.0,0.0,0.0,0.0,0.0,0.0,0.0,0.0,0.0,0.0,0.0,0.0,4.1813,4.2372,4.1628,3.9753,3.9347,3.7227,0.0,0.0,0.0,0.0,0.0,0.0,0.0,0.0,0.0,0.0,0.0,0.0,0.0,0.0,0.0,0.0,0.0,0.0,0.0,0.0,0.0,0.0,0.0,0.0,0.0,0.0,0.0,0.0,0.0,0.0,0.0,0.0,0.0,0.0,0.0,0.0,0.0,0.0,0.0,0.0,0.0,0.0,0.0,0.0,0.0,0.0,0.0,0.0,0.0,0.0,0.0,0.0,0.0,0.0,0.0,0.0,0.0,0.0,0.0,0.0,0.0,0.0,0.0,0.0,0.0,0.0,0.0,0.0,0.0,0.0,0.0,0.0,0.0,0.0,0.0,0.0,0.0,0.0,0.0,0.0,0.0,0.0,0.0,0.0,0.0,0.0,0.0,0.0,0.0,0.0,0.0,0.0,0.0,0.0,0.0,0.0,0.0,0.0,0.0,0.0,0.0,0.0,0.0,0.0,0.0,0.0,0.0,0.0,0.0,3.8917,3.7365,3.6129,3.5566,3.4855,3.2985,0.0,0.0,0.0,0.0,0.0,0.0,0.0,0.0,0.0,0.0,0.0,0.0,0.0,0.0,0.0,0.0,0.0,0.0,0.0,0.0,0.0,0.0,0.0,0.0,0.0,0.0,0.0,0.0,0.0,0.0,0.0,0.0,0.0,0.0,0.0,0.0,0.0,0.0,0.0,0.0,0.0,0.0,0.0,0.0,0.0,0.0,0.0,0.0,0.0,0.0,0.0,0.0,0.0,0.0,0.0,0.0,0.0,0.0,0.0,0.0,0.0,0.0,0.0,0.0,0.0,0.0,0.0,0.0,0.0,0.0,0.0,0.0,0.0,0.0,0.0,0.0,0.0,0.0,0.0,0.0,0.0,0.0,0.0,0.0,0.0,0.0,0.0,0.0,0.0,0.0,0.0,0.0,0.0,0.0,0.0,0.0,0.0,0.0,0.0,0.0,0.0,0.0,0.0,0.0,0.0,0.0,0.0,0.0,0.0,3.4192,3.3567,3.3396,3.3466,3.21,3.0272,2.8105,0.0,0.0,0.0,0.0,0.0,0.0,0.0,0.0,0.0,0.0,0.0,0.0,0.0,0.0,0.0,0.0,0.0,0.0,0.0,0.0,0.0,0.0,0.0,0.0,0.0,0.0,0.0,0.0,0.0,0.0,0.0,0.0,0.0,0.0,0.0,0.0,0.0,0.0,0.0,0.0,0.0,0.0,0.0,0.0,0.0,0.0,0.0,0.0,0.0,0.0,0.0,0.0,0.0,0.0,0.0,0.0,0.0,0.0,0.0,0.0,0.0,0.0,0.0,0.0,0.0,0.0,0.0,0.0,0.0,0.0,0.0,0.0,0.0,0.0,0.0,0.0,0.0,0.0,0.0,0.0,0.0,0.0,0.0,0.0,0.0,0.0,0.0,0.0,0.0,0.0,0.0,0.0,0.0,0.0,0.0,0.0,0.0,0.0,0.0,0.0,0.0,0.0,0.0,0.0,0.0,0.0,0.0,0.0,3.0541,3.0813,3.0995,3.1063,2.9582,2.7924,0.0,0.0,0.0,0.0,0.0,0.0,0.0,0.0,0.0,0.0,0.0,0.0,0.0,0.0,0.0,0.0,0.0,0.0,0.0,0.0,0.0,0.0,0.0,0.0,0.0,0.0,0.0,0.0,0.0,0.0,0.0,0.0,0.0,0.0,0.0,0.0,0.0,0.0,0.0,0.0,0.0,0.0,0.0,0.0,0.0,0.0,0.0,0.0,0.0,0.0,0.0,0.0,0.0,0.0,0.0,0.0,0.0,0.0,0.0,0.0,0.0,0.0,0.0,0.0,0.0,0.0,0.0,0.0,0.0,0.0,0.0,0.0,0.0,0.0,0.0,0.0,0.0,0.0,0.0,0.0,0.0,0.0,0.0,0.0,0.0,0.0,0.0,0.0,0.0,0.0,0.0,0.0,0.0,0.0,0.0,0.0,0.0,0.0,0.0,0.0,0.0,0.0,0.0,0.0,0.0,0.0,0.0,0.0,2.6593,2.8177,2.8801,2.8913,2.8255,2.7191,2.5996,0.0,0.0,0.0,0.0,0.0,0.0,0.0,0.0,0.0,0.0,0.0,0.0,0.0,0.0,0.0,0.0,0.0,0.0,0.0,0.0,0.0,0.0,0.0,0.0,0.0,0.0,0.0,0.0,0.0,0.0,0.0,0.0,0.0,0.0,0.0,0.0,0.0,0.0,0.0,0.0,0.0,0.0,0.0,0.0,0.0,0.0,0.0,0.0,0.0,0.0,0.0,0.0,0.0,0.0,0.0,0.0,0.0,0.0,0.0,0.0,0.0,0.0,0.0,0.0,0.0,0.0,0.0,0.0,0.0,0.0,0.0,0.0,0.0,0.0,0.0,0.0,0.0,0.0,0.0,0.0,0.0,0.0,0.0,0.0,0.0,0.0,0.0,0.0,0.0,0.0,0.0,0.0,0.0,0.0,0.0,0.0,0.0,0.0,0.0,0.0,0.0,0.0,0.0,0.0,0.0,0.0,0.0,0.0,0.0,2.597,0.0,2.745,0.0,2.6567,2.5399,0.0,0.0,0.0,0.0,0.0,0.0,0.0,0.0,0.0,0.0,0.0,0.0,0.0,0.0,0.0,0.0,0.0,0.0,0.0,0.0,0.0,0.0,0.0,0.0,0.0,0.0,0.0,0.0,0.0,0.0,0.0,0.0,0.0,0.0,0.0,0.0,0.0,0.0,0.0,0.0,0.0,0.0,0.0,0.0,0.0,0.0,0.0,0.0,0.0,0.0,0.0,0.0,0.0,0.0,0.0,0.0,0.0,0.0,0.0,0.0,0.0,0.0,0.0,0.0,0.0,0.0,0.0,0.0,0.0,0.0,0.0,0.0,0.0,0.0,0.0,0.0,0.0,0.0,0.0,0.0,0.0,0.0,0.0,0.0,0.0,0.0,0.0,0.0,0.0,0.0,0.0,0.0,0.0,0.0,0.0,0.0,0.0,0.0,0.0,0.0,0.0,0.0,0.0,0.0,0.0,0.0,0.0,0.0,0.0,2.4902,2.5736,2.6386,2.6723,2.6074,2.5113,0.0,0.0,0.0,0.0,0.0,0.0,0.0,0.0,0.0,0.0,0.0,0.0,0.0,0.0,0.0,0.0,0.0,0.0,0.0,0.0,0.0,0.0,0.0,0.0,0.0,0.0,0.0,0.0,0.0,0.0,0.0,0.0,0.0,0.0,0.0,0.0,0.0,0.0,0.0,0.0,0.0,0.0,0.0,0.0,0.0,0.0,0.0,0.0,0.0,0.0,0.0,0.0,0.0,0.0,0.0,0.0,0.0,0.0,0.0,0.0,0.0,0.0,0.0,0.0,0.0,0.0,0.0,0.0,0.0,0.0,0.0,0.0,0.0,0.0,0.0,0.0,0.0,0.0,0.0,0.0,0.0,0.0,0.0,0.0,0.0,0.0,0.0,0.0,0.0,0.0,0.0,0.0,0.0,0.0,0.0,0.0,0.0,0.0,0.0,0.0,0.0,0.0,0.0,0.0,0.0,0.0,0.0,0.0,0.0,2.4824,2.5397,2.5658,2.5658,2.5632,2.5113,0.0,0.0,0.0,0.0,0.0,0.0,0.0,0.0,0.0,0.0,0.0,0.0,0.0,0.0,0.0,0.0,0.0,0.0,0.0,0.0,0.0,0.0,0.0,0.0,0.0,0.0,0.0,0.0,0.0,0.0,0.0,0.0,0.0,0.0,0.0,0.0,0.0,0.0,0.0,0.0,0.0,0.0,0.0,0.0,0.0,0.0,0.0,0.0,0.0,0.0,0.0,0.0,0.0,0.0,0.0,0.0,0.0,0.0,0.0,0.0,0.0,0.0,0.0,0.0,0.0,0.0,0.0,0.0,0.0,0.0,0.0,0.0,0.0,0.0,0.0,0.0,0.0,0.0,0.0,0.0,0.0,0.0,0.0,0.0,0.0,0.0,0.0,0.0,0.0,0.0,0.0,0.0,0.0,0.0,0.0,0.0,0.0,0.0,0.0,0.0,0.0,0.0,0.0,0.0,0.0,0.0,0.0,0.0,0.0,0.0,2.4798,2.511,2.511,2.511,2.4745,2.3944,0.0,0.0,0.0,0.0,0.0,0.0,0.0,0.0,0.0,0.0,0.0,0.0,0.0,0.0,0.0,0.0,0.0,0.0,0.0,0.0,0.0,0.0,0.0,0.0,0.0,0.0,0.0,0.0,0.0,0.0,0.0,0.0,0.0,0.0,0.0,0.0,0.0,0.0,0.0,0.0,0.0,0.0,0.0,0.0,0.0,0.0,0.0,0.0,0.0,0.0,0.0,0.0,0.0,0.0,0.0,0.0,0.0,0.0,0.0,0.0,0.0,0.0,0.0,0.0,0.0,0.0,0.0,0.0,0.0,0.0,0.0,0.0,0.0,0.0,0.0,0.0,0.0,0.0,0.0,0.0,0.0,0.0,0.0,0.0,0.0,0.0,0.0,0.0,0.0,0.0,0.0,0.0,0.0,0.0,0.0,0.0,0.0,0.0,0.0,0.0,0.0,0.0,0.0,0.0,0.0,0.0,0.0,0.0,0.0,0.0,2.4615,2.485,2.4615,2.4224,0.0,0.0,0.0,0.0,0.0,0.0,0.0,0.0,0.0,0.0,0.0,0.0,0.0,0.0,0.0,0.0,0.0,0.0,0.0,0.0,0.0,0.0,0.0,0.0,0.0,0.0,0.0,0.0,0.0,0.0,0.0,0.0,0.0,0.0,0.0,0.0,0.0,0.0,0.0,0.0,0.0,0.0,0.0,0.0,0.0,0.0,0.0,0.0,0.0,0.0,0.0,0.0,0.0,0.0,0.0,0.0,0.0,0.0,0.0,0.0,0.0,0.0,0.0,0.0,0.0,0.0,0.0,0.0,0.0,0.0,0.0,0.0,0.0,0.0,0.0,0.0,0.0,0.0,0.0,0.0,0.0,0.0,0.0,0.0,0.0,0.0,0.0,0.0,0.0,0.0,0.0,0.0,0.0,0.0,0.0,0.0,0.0,0.0,0.0,0.0,0.0,0.0,0.0,0.0,0.0,0.0,0.0,0.0,0.0,0.0,0.0,2.4152,2.4819,2.4251,0.0,2.3545,0.0,0.0,0.0,0.0,0.0,0.0,0.0,0.0,0.0,0.0,0.0,0.0,0.0,0.0,0.0,0.0,0.0,0.0,0.0,0.0,0.0,0.0,0.0,0.0,0.0,0.0,0.0,0.0,0.0,0.0,0.0,0.0,0.0,0.0,0.0,0.0,0.0,0.0,0.0,0.0,0.0,0.0,0.0,0.0,0.0,0.0,0.0,0.0,0.0,0.0,0.0,0.0,0.0,0.0,0.0,0.0,0.0,0.0,0.0,0.0,0.0,0.0,0.0,0.0,0.0,0.0,0.0,0.0,0.0,0.0,0.0,0.0,0.0,0.0,0.0,0.0,0.0,0.0,0.0,0.0,0.0,0.0,0.0,0.0,0.0,0.0,0.0,0.0,0.0,0.0,0.0,0.0,0.0,0.0,0.0,0.0,0.0,0.0,0.0,0.0,0.0,0.0,0.0,0.0,0.0,0.0,0.0,0.0,0.0,0.0,0.0,0.0,2.4401,2.4296,2.3958,0.0,0.0,0.0,0.0,0.0,0.0,0.0,0.0,0.0,0.0,0.0,0.0,0.0,0.0,0.0,0.0,0.0,0.0,0.0,0.0,0.0,0.0,0.0,0.0,0.0,0.0,0.0,0.0,0.0,0.0,0.0,0.0,0.0,0.0,0.0,0.0,0.0,0.0,0.0,0.0,0.0,0.0,0.0,0.0,0.0,0.0,0.0,0.0,0.0,0.0,0.0,0.0,0.0,0.0,0.0,0.0,0.0,0.0,0.0,0.0,0.0,0.0,0.0,0.0,0.0,0.0,0.0,0.0,0.0,0.0,0.0,0.0,0.0,0.0,0.0,0.0,0.0,0.0,0.0,0.0,0.0,0.0,0.0,0.0,0.0,0.0,0.0,0.0,0.0,0.0,0.0,0.0,0.0,0.0,0.0,0.0,0.0,0.0,0.0,0.0,0.0,0.0,0.0,0.0,0.0,0.0,0.0,0.0,0.0,0.0,2.4348,2.4705,2.4946,2.479,2.4397,0.0,0.0,0.0,0.0,0.0,0.0,0.0,0.0,0.0,0.0,0.0,0.0,0.0,0.0,0.0,0.0,0.0,0.0,0.0,0.0,0.0,0.0,0.0,0.0,0.0,0.0,0.0,0.0,0.0,0.0,0.0,0.0,0.0,0.0,0.0,0.0,0.0,0.0,0.0,0.0,0.0,0.0,0.0,0.0,0.0,0.0,0.0,0.0,0.0,0.0,0.0,0.0,0.0,0.0,0.0,0.0,0.0,0.0,0.0,0.0,0.0,0.0,0.0,0.0,0.0,0.0,0.0,0.0,0.0,0.0,0.0,0.0,0.0,0.0,0.0,0.0,0.0,0.0,0.0,0.0,0.0,0.0,0.0,0.0,0.0,0.0,0.0,0.0,0.0,0.0,0.0,0.0,0.0,0.0,0.0,0.0,0.0,0.0,0.0,0.0,0.0,0.0,0.0,0.0,0.0,0.0,0.0,0.0,0.0,0.0,0.0,0.0,0.0,0.0,2.4901,0.0,0.0,0.0,0.0,0.0,0.0,0.0,0.0,0.0,0.0,0.0,0.0,0.0,0.0,0.0,0.0,0.0,0.0,0.0,0.0,0.0,0.0,0.0,0.0,0.0,0.0,0.0,0.0,0.0,0.0,0.0,0.0,0.0,0.0,0.0,0.0,0.0,0.0,0.0,0.0,0.0,0.0,0.0,0.0,0.0,0.0,0.0,0.0,0.0,0.0,0.0,0.0,0.0,0.0,0.0,0.0,0.0,0.0,0.0,0.0,0.0,0.0,0.0,0.0,0.0,0.0,0.0,0.0,0.0,0.0,0.0,0.0,0.0,0.0,0.0,0.0,0.0,0.0,0.0,0.0,0.0,0.0,0.0,0.0,0.0,0.0,0.0,0.0,0.0,0.0,0.0,0.0,0.0,0.0,0.0,0.0,0.0,0.0,0.0,0.0,0.0,0.0,0.0,0.0,0.0,0.0,0.0,0.0,0.0,0.0,0.0,0.0,0.0,0.0,0.0,0.0,0.0,0.0,0.0,0.0,0.0,0.0,0.0,0.0,0.0,0.0,0.0,0.0,0.0,0.0,0.0,0.0,0.0,0.0,0.0,0.0,0.0,0.0,0.0,0.0,0.0,0.0,0.0,0.0,0.0,0.0,0.0,0.0,0.0,0.0,0.0,0.0,0.0,0.0,0.0,0.0,0.0,0.0,0.0,0.0,0.0,0.0,0.0,0.0,0.0,0.0,0.0,0.0,0.0,0.0,0.0,0.0,0.0,0.0,0.0,0.0,0.0,0.0,0.0,0.0,0.0,0.0,0.0,0.0,0.0,0.0,0.0,0.0,0.0,0.0,0.0,0.0,0.0,0.0,0.0,0.0,0.0,0.0,0.0,0.0,0.0,0.0,0.0,0.0,0.0,0.0,0.0,0.0,0.0,0.0,0.0,0.0,0.0,0.0,0.0,0.0,0.0,0.0,0.0,0.0,0.0,0.0,0.0,0.0,0.0,0.0,0.0,0.0,0.0,0.0,0.0,0.0,0.0,0.0,0.0,0.0,0.0,0.0,0.0,0.0,0.0,0.0,0.0,0.0,0.0,0.0,0.0,0.0,0.0,0.0,0.0,0.0,0.0,0.0,0.0,0.0,0.0,0.0,0.0,0.0,0.0,0.0,0.0,0.0,0.0,0.0,0.0,0.0,0.0,0.0,0.0,0.0,0.0,0.0,0.0,0.0,0.0,0.0,0.0,0.0,0.0,0.0,0.0,0.0,0.0,0.0,0.0,0.0,0.0,0.0,0.0,0.0,0.0,0.0,0.0,0.0,0.0,0.0,0.0,0.0,0.0,0.0,0.0,0.0,0.0,0.0,0.0,0.0,0.0,0.0,0.0,0.0,0.0,0.0,0.0,0.0,0.0,0.0,0.0,0.0,0.0,0.0,0.0,0.0,0.0,0.0,0.0,0.0,0.0,0.0,0.0,0.0,0.0,0.0,0.0,0.0,0.0,0.0,0.0,0.0,0.0,0.0,0.0,0.0,0.0,0.0,0.0,0.0,0.0,0.0,0.0,0.0,0.0,0.0,0.0,0.0,0.0,0.0,0.0,0.0,0.0,0.0,0.0,0.0,0.0,0.0,0.0,0.0,0.0,0.0,0.0,0.0,0.0,0.0,0.0,0.0,0.0,0.0,0.0,0.0,0.0,0.0,0.0,0.0,0.0,0.0,0.0,0.0,0.0,0.0,0.0,0.0,0.0,0.0,0.0,0.0,0.0,0.0,0.0,0.0,0.0,0.0,0.0,0.0,0.0,0.0,0.0,0.0,0.0,0.0,0.0,0.0,0.0,0.0,0.0,0.0,0.0,0.0,0.0,0.0,0.0,0.0,0.0,0.0,0.0,0.0,0.0,0.0,0.0,0.0,0.0,0.0,0.0,0.0,0.0,0.0,0.0,0.0,0.0,0.0,0.0,0.0,0.0,0.0,0.0,0.0,0.0,0.0,0.0,0.0,0.0,0.0,0.0,0.0,0.0,0.0,0.0,0.0,0.0,0.0,0.0,0.0,0.0,0.0,0.0,0.0,0.0,0.0,0.0,0.0,0.0,0.0,0.0,0.0,0.0,0.0,0.0,0.0,0.0,0.0,0.0,0.0,0.0,0.0,0.0,0.0,0.0,0.0,0.0,0.0,0.0,0.0,0.0,0.0,0.0,0.0,0.0,0.0,0.0,0.0,0.0,0.0,0.0,0.0,0.0,0.0,0.0,0.0,0.0,0.0,0.0,0.0,0.0,0.0,0.0,0.0,0.0,0.0,0.0,0.0,0.0,0.0,0.0,0.0,0.0,0.0,0.0,0.0,0.0,0.0,0.0,0.0,0.0,0.0,0.0,0.0,0.0,0.0,0.0,0.0,0.0,0.0,0.0,0.0,0.0,0.0,0.0,0.0,0.0,0.0,0.0,0.0,0.0,0.0,0.0,0.0,0.0,0.0,0.0,0.0,0.0,0.0,0.0,0.0,0.0,0.0,0.0,0.0,0.0,0.0,0.0,0.0,0.0,0.0,0.0,0.0,0.0,0.0,0.0,0.0,0.0,0.0,0.0,0.0,0.0,0.0,0.0,0.0,0.0,0.0,0.0,0.0,0.0,0.0,0.0,0.0,0.0,0.0,0.0,0.0,0.0,0.0,0.0,0.0,0.0,0.0,0.0,0.0,0.0,0.0,0.0,0.0,0.0,0.0,0.0,0.0,0.0,0.0,0.0,0.0,0.0,0.0,0.0,0.0,0.0,0.0,0.0,0.0,0.0,0.0,0.0,0.0,0.0,0.0,0.0,0.0,0.0,0.0,0.0,0.0,0.0,0.0,0.0,0.0,0.0,0.0,0.0,0.0,0.0,0.0,0.0,0.0,0.0,0.0,0.0,0.0,0.0,0.0,0.0,0.0,0.0,0.0,0.0,0.0,0.0,0.0,0.0,0.0,0.0,0.0,0.0,0.0,0.0,0.0,0.0,0.0,0.0,0.0,0.0,0.0,0.0,0.0,0.0,0.0,0.0,0.0,0.0,0.0,0.0,0.0,0.0,0.0,0.0,0.0,0.0,0.0,0.0,0.0,0.0,0.0,0.0,0.0,0.0,0.0,0.0,0.0,0.0,0.0,0.0,0.0,0.0,0.0,0.0,0.0,0.0,0.0,0.0,0.0,0.0,0.0,0.0,0.0,0.0,0.0,0.0,0.0,0.0,0.0,0.0,0.0,0.0,0.0,0.0,0.0,0.0,0.0,0.0,0.0,0.0,0.0,0.0,0.0,0.0,0.0,0.0,0.0,0.0,0.0,0.0,0.0,0.0,0.0,0.0,0.0,0.0,0.0,0.0,0.0,0.0,0.0,0.0,0.0,0.0,0.0,0.0,0.0,0.0,0.0,0.0,0.0,0.0,0.0,0.0,0.0,0.0,0.0,0.0,0.0,0.0,0.0,0.0,0.0,0.0,0.0,0.0,0.0,0.0,0.0,0.0,0.0,0.0,0.0,0.0,0.0,0.0,0.0,0.0,0.0,0.0,0.0,0.0,0.0,0.0,0.0,0.0,0.0,0.0,0.0,0.0,0.0,0.0,0.0,0.0,0.0,0.0,0.0,0.0,0.0,0.0,0.0,0.0,0.0,0.0,0.0,0.0,0.0,0.0,0.0,0.0,0.0,0.0,0.0,0.0,0.0,0.0,0.0,0.0,0.0,0.0,0.0,0.0,0.0,0.0,0.0,0.0,0.0,0.0,0.0,0.0,0.0,0.0,0.0,0.0,0.0,0.0,0.0,0.0,0.0,0.0,0.0,0.0,0.0,0.0,0.0,0.0,0.0,0.0,0.0,0.0,0.0,0.0,0.0,0.0,0.0,0.0,0.0,0.0,0.0,0.0,0.0,0.0,0.0,0.0,0.0,0.0,0.0,0.0,0.0,0.0,0.0,0.0,0.0,0.0,0.0,0.0,0.0,0.0,0.0,0.0,0.0,0.0,0.0,0.0,0.0,0.0,0.0,0.0,0.0,0.0,0.0,0.0,0.0,0.0,0.0,0.0,0.0,0.0,0.0,0.0,0.0,0.0,0.0,0.0,0.0,0.0,0.0,0.0,0.0,0.0,0.0,0.0,0.0,0.0,0.0,0.0,0.0,0.0,0.0,0.0,0.0,0.0,0.0,0.0,0.0,0.0,0.0,0.0,0.0,0.0,0.0,0.0,0.0,0.0,0.0,0.0,0.0,0.0,0.0,0.0,0.0,0.0,0.0,0.0,0.0,0.0,0.0,0.0,0.0,0.0,0.0,0.0,0.0,0.0,0.0,0.0,0.0,0.0,0.0,0.0,0.0,0.0,0.0,0.0,0.0,0.0,0.0,0.0,0.0]}]]]